Date StartTime U_cm/s V_cm/s W_cm/s Ustd_cm/s Vstd_cm/s Wstd_cm/s Uvar_(cm/s)^2 Vvar_(cm/s)^2 Wvar_(cm/s)^2 KE_(m/s)^2 TurbulentKE_(m/s)^2 HorizWindSpeed_cm/s FrictionSpeec_cm/s DragCoef SpeedOfSound_m/s SonicTemperature_C Pressure_mb 
10/26/2013  00:00:00     -139.288      -74.932      -12.121       19.923       19.956       17.190      396.919      398.253      295.491        1.313        0.055      158.164       11.717        0.005      336.903        8.516      867.471
10/26/2013  00:01:00     -145.419      -43.994       -8.813       23.340       18.633       12.717      544.765      347.182      161.732        1.211        0.053      151.929       10.385        0.005      336.869        8.460      867.468
10/26/2013  00:02:00     -123.081      -45.007       -8.974       14.483       14.283       11.876      209.760      204.005      141.045        0.890        0.028      131.052        8.433        0.004      336.827        8.390      867.478
10/26/2013  00:03:00     -109.411      -51.845       -7.977       13.650       20.082        9.986      186.320      403.306       99.722        0.771        0.034      121.073        6.820        0.003      336.809        8.360      867.473
10/26/2013  00:04:00     -117.219      -48.313      -10.447       17.040       11.474        9.706      290.377      131.642       94.208        0.835        0.026      126.785        9.068        0.005      336.813        8.368      867.469
10/26/2013  00:05:00     -143.483      -53.131      -14.876       12.035       10.472        8.861      144.846      109.659       78.513        1.198        0.017      153.004        4.451        0.001      336.813        8.366      867.469
10/26/2013  00:06:00     -135.901      -61.352       -9.901       18.177       14.233       11.758      330.387      202.565      138.242        1.150        0.034      149.108        8.789        0.003      336.711        8.198      867.467
10/26/2013  00:07:00     -126.384      -43.507       -9.131       18.331       17.234       13.164      336.014      297.011      173.292        0.938        0.040      133.663       11.477        0.007      336.711        8.197      867.455
10/26/2013  00:08:00     -135.492      -49.845      -12.379       14.622       16.441       12.654      213.817      270.311      160.130        1.082        0.032      144.370        8.991        0.004      336.642        8.083      867.455
10/26/2013  00:09:00     -115.827      -40.785      -11.239       18.467       18.868       16.075      341.044      355.993      258.420        0.808        0.048      122.797       12.730        0.011      336.611        8.031      867.462
10/26/2013  00:10:00     -118.439      -52.795       -7.151       17.674       19.940       13.376      312.386      397.601      178.927        0.888        0.044      129.673        5.846        0.002      336.583        7.982      867.462
10/26/2013  00:11:00      -93.293      -57.555       -1.777       23.714       19.676       14.452      562.346      387.146      208.868        0.659        0.058      109.619       11.550        0.011      336.533        7.898      867.471
10/26/2013  00:12:00      -83.653      -54.939       -2.678       29.508       17.944       15.930      870.698      321.986      253.756        0.573        0.072      100.081       12.689        0.016      336.619        8.043      867.474
10/26/2013  00:13:00      -67.081      -52.863        4.189       31.148       22.520       17.950      970.208      507.171      322.194        0.456        0.090       85.407       13.458        0.025      336.657        8.106      867.482
10/26/2013  00:14:00      -75.910      -43.156        4.816       36.925       19.913       16.735     1363.491      396.519      280.057        0.484        0.102       87.320       19.628        0.051      336.778        8.310      867.488
10/26/2013  00:15:00      -69.432      -45.063        1.078       30.603       18.509       14.758      936.567      342.568      217.798        0.417        0.075       82.774       12.173        0.022      336.729        8.227      867.472
10/26/2013  00:16:00      -61.763      -40.457        1.253       31.468       20.658       19.260      990.243      426.771      370.950        0.362        0.089       73.834       16.915        0.052      336.777        8.307      867.465
10/26/2013  00:17:00      -36.681      -28.329        6.833       27.516       21.558       16.049      757.132      464.746      257.568        0.184        0.074       46.347       14.022        0.092      336.778        8.309      867.459
10/26/2013  00:18:00        0.557      -19.753       21.486       26.168       15.544       18.033      684.746      241.626      325.175        0.105        0.063       19.760       17.078        0.747      336.728        8.225      867.451
10/26/2013  00:19:00      -43.667      -26.740        3.911       39.832       25.986       21.890     1586.585      675.278      479.180        0.269        0.137       51.204       23.217        0.206      336.594        8.001      867.439
10/26/2013  00:20:00      -54.962      -45.072        2.904       28.390       21.879       16.709      806.012      478.705      279.182        0.331        0.078       71.079       11.234        0.025      336.571        7.962      867.433
10/26/2013  00:21:00      -59.505      -55.837        5.339       44.338       21.861       18.582     1965.896      477.915      345.274        0.474        0.139       81.601       22.609        0.077      336.655        8.103      867.434
10/26/2013  00:22:00      -32.312      -40.170        7.786       37.412       19.814       18.115     1399.644      392.585      328.161        0.242        0.106       51.553       12.851        0.062      336.743        8.251      867.436
10/26/2013  00:23:00      -35.384      -27.211        5.586       29.242       25.416       18.839      855.123      645.949      354.905        0.194        0.093       44.637       19.751        0.196      336.675        8.137      867.442
10/26/2013  00:24:00      -56.801      -48.892       -7.901       23.149       18.355       15.714      535.858      336.911      246.940        0.340        0.056       74.945        8.078        0.012      336.772        8.298      867.444
10/26/2013  00:25:00      -53.003      -51.283        3.161       37.143       28.621       20.272     1379.627      819.141      410.948        0.403        0.130       73.752       20.439        0.077      336.752        8.266      867.429
10/26/2013  00:26:00      -92.607      -62.480       -6.165       23.218       22.871       17.145      539.080      523.101      293.947        0.694        0.068      111.713        9.603        0.007      336.728        8.225      867.423
10/26/2013  00:27:00      -82.949      -48.455        4.873       49.056       29.736       20.583     2406.489      884.238      423.644        0.648        0.186       96.065       20.460        0.045      336.637        8.074      867.417
10/26/2013  00:28:00      -70.632      -43.617        7.194       36.521       33.592       24.759     1333.789     1128.398      613.021        0.501        0.154       83.014       19.429        0.055      336.586        7.987      867.408
10/26/2013  00:29:00      -87.860      -51.339        4.954       35.921       21.925       19.186     1290.304      480.698      368.106        0.626        0.107      101.760       17.887        0.031      336.503        7.848      867.401
10/26/2013  00:30:00      -77.516      -49.388        9.219       51.565       34.037       21.502     2658.949     1158.542      462.316        0.641        0.214       91.913       26.152        0.081      336.526        7.888      867.409
10/26/2013  00:31:00      -90.019      -60.766        2.790       40.039       25.141       18.998     1603.095      632.081      360.935        0.720        0.130      108.610       19.521        0.032      336.526        7.887      867.412
10/26/2013  00:32:00     -101.251      -44.315        0.869       33.780       26.659       20.591     1141.059      710.681      423.984        0.725        0.114      110.524       16.226        0.022      336.497        7.838      867.413
10/26/2013  00:33:00      -87.870      -49.086       -3.190       23.899       19.236       14.395      571.154      370.021      207.215        0.564        0.057      100.651       10.573        0.011      336.525        7.886      867.418
10/26/2013  00:34:00      -61.736      -25.753        5.190       36.326       21.976       19.454     1319.576      482.963      378.456        0.334        0.109       66.892       20.200        0.091      336.501        7.845      867.426
10/26/2013  00:35:00      -84.170      -45.846       -2.822       25.611       17.352       13.265      655.931      301.092      175.957        0.516        0.057       95.846        5.501        0.003      336.534        7.901      867.426
10/26/2013  00:36:00      -50.787      -31.748        1.842       42.144       21.623       18.028     1776.114      467.533      325.022        0.308        0.128       59.894       21.820        0.133      336.475        7.803      867.434
10/26/2013  00:37:00      -70.140      -46.117        2.369       31.244       24.495       17.839      976.178      599.990      318.216        0.447        0.095       83.943       13.741        0.027      336.482        7.815      867.441
10/26/2013  00:38:00      -80.823      -35.459        0.887       33.335       21.662       19.574     1111.253      469.247      383.129        0.488        0.098       88.260       19.643        0.050      336.451        7.761      867.442
10/26/2013  00:39:00      -84.948      -38.431        1.021       28.331       17.594       15.595      802.661      309.549      243.200        0.502        0.068       93.237       15.953        0.029      336.473        7.799      867.454
10/26/2013  00:40:00      -43.321      -16.390        9.091       37.194       21.283       21.651     1383.423      452.986      468.756        0.227        0.115       46.318       19.171        0.171      336.395        7.668      867.476
10/26/2013  00:41:00      -30.688      -37.713        8.349       35.821       24.190       18.184     1283.131      585.165      330.668        0.232        0.110       48.621       19.983        0.169      336.394        7.666      867.488
10/26/2013  00:42:00      -90.194      -86.165       -6.778       36.728       26.387       19.850     1348.925      696.286      394.028        0.902        0.122      124.738       15.966        0.016      336.416        7.703      867.495
10/26/2013  00:43:00     -126.140     -111.842       -5.812       47.840       43.318       29.214     2288.684     1876.486      853.463        1.674        0.251      168.582       25.070        0.022      336.493        7.832      867.499
10/26/2013  00:44:00     -109.634     -109.275        3.620       63.429       61.883       32.259     4023.186     3829.483     1040.669        1.643        0.445      154.792       35.733        0.053      336.516        7.869      867.492
10/26/2013  00:45:00     -124.681     -107.537       -6.475       47.032       50.386       30.061     2211.980     2538.753      903.663        1.640        0.283      164.650       17.171        0.011      336.450        7.759      867.497
10/26/2013  00:46:00     -134.661     -101.437       -1.891       53.547       48.651       33.836     2867.254     2366.953     1144.896        1.740        0.319      168.591       32.943        0.038      336.498        7.840      867.506
10/26/2013  00:47:00     -118.065     -109.633       -3.344       35.008       34.047       26.086     1225.580     1159.204      680.467        1.452        0.153      161.117       20.803        0.017      336.456        7.770      867.497
10/26/2013  00:48:00     -105.080      -50.991      -10.338       17.751       22.233       12.500      315.101      494.301      156.251        0.736        0.048      116.798        8.177        0.005      336.434        7.734      867.498
10/26/2013  00:49:00     -100.229      -29.022       -9.091       18.753       13.300       11.869      351.658      176.881      140.878        0.582        0.033      104.346        6.988        0.004      336.414        7.701      867.509
10/26/2013  00:50:00     -107.701      -34.111       -8.321       14.223       15.983       12.965      202.305      255.468      168.082        0.673        0.031      112.974        3.541        0.001      336.427        7.721      867.501
10/26/2013  00:51:00     -117.887      -39.546       -4.273       14.553       16.312        8.315      211.799      266.068       69.146        0.801        0.027      124.344        5.996        0.002      336.393        7.665      867.501
10/26/2013  00:52:00     -104.870      -41.219       -5.418       22.420       15.126       13.547      502.647      228.788      183.532        0.682        0.046      112.680       14.292        0.016      336.334        7.566      867.511
10/26/2013  00:53:00      -99.894      -46.026       -5.421       15.900       13.600        8.303      252.825      184.953       68.944        0.632        0.025      109.988        5.729        0.003      336.316        7.535      867.508
10/26/2013  00:54:00     -105.220      -34.693       -3.626       14.818       18.036       13.407      219.574      325.306      179.758        0.651        0.036      110.792        9.448        0.007      336.276        7.469      867.516
10/26/2013  00:55:00     -123.795      -34.297       -9.747       14.827       11.273        8.379      219.829      127.071       70.212        0.851        0.021      128.458        3.847        0.001      336.261        7.443      867.522
10/26/2013  00:56:00     -116.034      -37.531       -5.602       20.709       17.854       14.548      428.880      318.768      211.635        0.793        0.048      121.953       11.429        0.009      336.250        7.426      867.520
10/26/2013  00:57:00     -118.822      -52.824       -3.574       18.160       15.893       11.328      329.786      252.583      128.321        0.882        0.036      130.035       10.366        0.006      336.262        7.447      867.530
10/26/2013  00:58:00     -106.952      -50.202       -1.023       21.919       14.165       12.573      480.429      200.648      158.072        0.740        0.042      118.148       12.873        0.012      336.265        7.449      867.521
10/26/2013  00:59:00     -120.607      -34.531      -11.815       22.192       16.429       13.492      492.471      269.905      182.031        0.841        0.047      125.453       10.111        0.006      336.213        7.362      867.518
10/26/2013  01:00:00     -125.502      -40.579      -13.268       14.106       14.581       12.426      198.965      212.614      154.417        0.907        0.028      131.899        7.934        0.004      336.205        7.350      867.527
10/26/2013  01:01:00     -107.699      -33.645      -14.433       22.241       13.382        9.742      494.648      179.082       94.914        0.685        0.038      112.832        8.884        0.006      336.245        7.416      867.528
10/26/2013  01:02:00      -95.816      -37.743      -15.817       17.968       14.301       12.210      322.861      204.531      149.079        0.577        0.034      102.982        7.850        0.006      336.115        7.199      867.533
10/26/2013  01:03:00      -93.595      -56.342      -12.958       16.704       13.730       14.092      279.020      188.518      198.596        0.638        0.033      109.245        9.580        0.008      336.178        7.306      867.546
10/26/2013  01:04:00      -91.613      -57.374      -12.712       21.366       22.218       18.728      456.527      493.642      350.749        0.657        0.065      108.096        9.491        0.008      336.188        7.321      867.548
10/26/2013  01:05:00     -127.308      -59.570      -17.098       23.347       18.017       13.069      545.101      324.627      170.787        1.054        0.052      140.555        6.772        0.002      336.038        7.071      867.551
10/26/2013  01:06:00     -130.769      -39.141      -17.570       12.263       13.778        8.773      150.376      189.822       76.968        0.968        0.021      136.501        4.509        0.001      335.903        6.847      867.559
10/26/2013  01:07:00     -120.649      -34.767      -18.618       16.689       15.494       13.902      278.539      240.074      193.258        0.841        0.036      125.559       12.576        0.010      335.942        6.911      867.560
10/26/2013  01:08:00     -117.196      -38.728      -18.228       14.523       20.179       12.318      210.910      407.191      151.733        0.817        0.038      123.429       11.672        0.009      336.000        7.008      867.563
10/26/2013  01:09:00     -121.632      -31.822      -16.296       30.156       20.874       12.753      909.393      435.742      162.638        0.879        0.075      125.726       12.017        0.009      335.894        6.832      867.569
10/26/2013  01:10:00     -106.625      -34.426      -12.596       20.909       19.087       16.079      437.206      364.298      258.519        0.689        0.053      112.045       10.345        0.009      335.899        6.841      867.565
10/26/2013  01:11:00     -110.790      -39.196      -14.812       26.640       29.659       15.062      709.693      879.644      226.867        0.792        0.091      117.519        9.969        0.007      335.885        6.816      867.568
10/26/2013  01:12:00      -93.861      -27.409      -20.329       20.830       23.981       17.412      433.898      575.092      303.185        0.564        0.066       97.781       13.769        0.020      335.941        6.909      867.572
10/26/2013  01:13:00     -124.070      -24.538      -19.063       13.506       20.767       12.196      182.425      431.275      148.748        0.856        0.038      126.474        8.282        0.004      335.965        6.949      867.570
10/26/2013  01:14:00     -122.405      -29.802      -17.015       22.798       23.007       14.972      519.733      529.315      224.162        0.872        0.064      125.981       13.935        0.012      336.000        7.008      867.575
10/26/2013  01:15:00     -130.109      -26.411      -17.508       17.290       22.180       12.827      298.960      491.955      164.534        0.944        0.048      132.763       12.176        0.008      335.985        6.982      867.590
10/26/2013  01:16:00     -129.591      -39.679      -17.558       15.954       15.495       10.878      254.522      240.096      118.323        0.964        0.031      135.530        7.134        0.003      335.954        6.931      867.595
10/26/2013  01:17:00     -121.488      -46.440      -13.442       10.136       13.140        9.580      102.744      172.667       91.775        0.873        0.018      130.062        6.001        0.002      335.945        6.916      867.597
10/26/2013  01:18:00     -127.203      -29.137      -19.013       11.276       10.697        7.507      127.144      114.422       56.361        0.884        0.015      130.498        5.515        0.002      335.994        6.998      867.612
10/26/2013  01:19:00      -94.797      -33.470      -18.402       18.361       22.445       16.950      337.142      503.786      287.305        0.579        0.056      100.532       12.614        0.016      335.997        7.003      867.611
10/26/2013  01:20:00      -81.700      -31.331      -12.962       25.782       23.277       18.229      664.701      541.832      332.285        0.468        0.077       87.502       16.011        0.033      335.991        6.993      867.614
10/26/2013  01:21:00     -108.094      -34.795      -15.809       17.792       23.368       14.255      316.571      546.049      203.207        0.711        0.053      113.556       14.293        0.016      336.033        7.062      867.617
10/26/2013  01:22:00     -100.407      -30.125      -14.672       19.489       25.107       12.950      379.835      630.362      167.704        0.619        0.059      104.829       12.464        0.014      336.024        7.049      867.607
10/26/2013  01:23:00     -115.877      -31.202      -15.186       15.528       23.781       10.457      241.118      565.534      109.356        0.777        0.046      120.005        9.746        0.007      336.015        7.033      867.605
10/26/2013  01:24:00      -88.159      -34.173       -9.107       23.913       20.977       15.197      571.842      440.055      230.963        0.513        0.062       94.550       11.376        0.014      336.045        7.082      867.611
10/26/2013  01:25:00      -82.240      -41.209      -12.091       19.194       24.264       14.465      368.401      588.761      209.229        0.489        0.058       91.987       10.959        0.014      336.021        7.042      867.596
10/26/2013  01:26:00      -94.412      -20.660      -14.914       16.931       18.924       13.671      286.655      358.118      186.894        0.520        0.042       96.646        9.766        0.010      336.005        7.016      867.592
10/26/2013  01:27:00      -81.897      -26.202       -8.000       26.505       20.265       17.013      702.520      410.678      289.441        0.443        0.070       85.986       14.221        0.027      335.982        6.978      867.595
10/26/2013  01:28:00     -103.945      -31.913       -7.617       23.287       32.271       23.721      542.298     1041.439      562.698        0.701        0.107      108.734       14.431        0.018      335.921        6.876      867.598
10/26/2013  01:29:00     -108.244      -38.345      -13.364       22.965       23.953       18.926      527.379      573.733      358.179        0.741        0.073      114.835       14.462        0.016      335.989        6.990      867.611
10/26/2013  01:30:00     -110.244      -45.046      -15.862       15.600       13.429       11.987      243.356      180.343      143.682        0.750        0.028      119.092        8.270        0.005      335.911        6.860      867.628
10/26/2013  01:31:00     -112.653      -26.187      -15.095       13.309       12.287       11.348      177.141      150.965      128.788        0.703        0.023      115.656        7.320        0.004      335.948        6.923      867.637
10/26/2013  01:32:00     -126.605      -57.257      -18.301       10.376       15.555        7.093      107.653      241.955       50.310        1.002        0.020      138.951        3.918        0.001      336.025        7.050      867.651
10/26/2013  01:33:00     -118.942      -66.571      -12.425       12.807       10.818        9.466      164.026      117.038       89.613        0.955        0.019      136.305        7.035        0.003      336.079        7.140      867.671
10/26/2013  01:34:00     -115.647      -68.283       -5.337       17.342       18.155       14.307      300.743      329.601      204.678        0.945        0.042      134.302        5.873        0.002      336.093        7.163      867.677
10/26/2013  01:35:00     -104.305      -58.363       -8.723       24.509       20.091       16.089      600.709      403.637      258.868        0.781        0.063      119.523       10.641        0.008      335.993        6.996      867.677
10/26/2013  01:36:00     -115.799      -42.969      -11.885       13.870       15.117       12.651      192.376      228.530      160.040        0.799        0.029      123.514        5.153        0.002      335.987        6.985      867.684
10/26/2013  01:37:00     -117.838      -36.254      -13.212       16.839       13.194        9.207      283.563      174.091       84.767        0.796        0.027      123.289        5.177        0.002      335.940        6.907      867.688
10/26/2013  01:38:00     -121.009      -35.923      -11.455       20.978       19.809       14.053      440.091      392.389      197.488        0.855        0.051      126.229        7.017        0.003      335.928        6.888      867.680
10/26/2013  01:39:00     -101.429      -31.560       -7.887       31.810       17.481       12.883     1011.846      305.591      165.960        0.641        0.074      106.226       12.447        0.014      335.897        6.837      867.673
10/26/2013  01:40:00      -90.437      -24.760       -3.923       28.599       16.189       16.667      817.919      262.071      277.782        0.508        0.068       93.765       17.963        0.037      335.911        6.860      867.684
10/26/2013  01:41:00     -134.413      -52.181      -10.947       14.397       13.691       12.145      207.275      187.433      147.508        1.073        0.027      144.187        6.999        0.002      335.894        6.832      867.682
10/26/2013  01:42:00     -134.732      -44.119      -13.889       13.005       13.990        8.983      169.130      195.718       80.686        1.037        0.022      141.772        6.310        0.002      335.884        6.815      867.669
10/26/2013  01:43:00     -130.709      -30.513      -13.331       13.529       14.645       13.219      183.045      214.483      174.752        0.938        0.029      134.223        6.897        0.003      335.794        6.665      867.682
10/26/2013  01:44:00     -113.079      -33.655      -11.159       17.500       16.171       11.535      306.260      261.500      133.051        0.737        0.035      117.981       11.630        0.010      335.806        6.685      867.687
10/26/2013  01:45:00     -129.592      -53.155       -9.961       11.461        9.038        6.839      131.352       81.681       46.768        0.999        0.013      140.070        3.236        0.001      335.899        6.840      867.683
10/26/2013  01:46:00     -118.140      -53.327       -3.379       17.205       12.435       12.168      296.013      154.625      148.048        0.871        0.030      129.618       10.281        0.006      335.934        6.897      867.685
10/26/2013  01:47:00     -119.351      -43.248       -4.584       15.419       14.529       12.265      237.731      211.090      150.434        0.837        0.030      126.945        8.379        0.004      335.938        6.904      867.698
10/26/2013  01:48:00     -127.882      -51.352      -12.300       10.106        8.764        6.827      102.122       76.802       46.607        0.968        0.011      137.807        4.341        0.001      335.869        6.788      867.706
10/26/2013  01:49:00     -133.082      -44.953       -9.836       15.573       16.010       13.286      242.510      256.312      176.512        1.025        0.034      140.470        7.917        0.003      335.876        6.801      867.702
10/26/2013  01:50:00     -137.103      -57.520       -5.810       13.860       13.561       10.223      192.103      183.900      104.508        1.131        0.024      148.680        2.447        0.000      335.908        6.855      867.691
10/26/2013  01:51:00     -132.836      -56.170       -5.227       15.034       18.628       10.526      226.034      347.008      110.802        1.076        0.034      144.224        8.674        0.004      335.979        6.973      867.684
10/26/2013  01:52:00     -110.441      -37.016       -5.236       27.311       18.296       15.405      745.895      334.749      237.322        0.746        0.066      116.479       15.885        0.019      335.871        6.792      867.681
10/26/2013  01:53:00      -95.356      -34.951       -3.612       21.574       20.185       15.188      465.425      407.434      230.661        0.572        0.055      101.560        8.698        0.007      335.830        6.726      867.671
10/26/2013  01:54:00     -107.196      -31.742       -4.332       17.841       16.979       14.239      318.301      288.298      202.757        0.666        0.040      111.797       11.155        0.010      335.758        6.605      867.670
10/26/2013  01:55:00     -108.734      -42.404       -4.077       15.598       17.608       10.777      243.313      310.049      116.154        0.715        0.033      116.710        7.387        0.004      335.778        6.639      867.682
10/26/2013  01:56:00     -104.375      -35.602       -4.547       20.549       15.797       10.297      422.260      249.558      106.030        0.648        0.039      110.280        8.445        0.006      335.825        6.716      867.687
10/26/2013  01:57:00     -117.280      -37.747       -6.556       10.857       14.851        6.533      117.865      220.556       42.678        0.780        0.019      123.205        4.918        0.002      335.836        6.734      867.694
10/26/2013  01:58:00      -99.986      -34.511       -4.796       27.372       13.341       14.937      749.245      177.989      223.101        0.618        0.058      105.775       16.506        0.024      335.706        6.519      867.703
10/26/2013  01:59:00      -40.646      -32.619       -3.287       32.611       13.827       16.252     1063.445      191.197      264.112        0.212        0.076       52.116       18.181        0.122      335.773        6.630      867.724
10/26/2013  02:00:00      -62.767      -44.392       -2.140       23.993       20.645       15.401      575.679      426.225      237.193        0.358        0.062       76.878       13.474        0.031      335.834        6.733      867.742
10/26/2013  02:01:00      -98.171      -67.969       -7.826       18.973       17.737       13.745      359.962      314.607      188.926        0.759        0.043      119.404        8.706        0.005      335.807        6.688      867.739
10/26/2013  02:02:00      -99.453      -52.652       -6.197       27.176       25.096       14.749      738.546      629.791      217.528        0.714        0.079      112.531       15.419        0.019      335.774        6.633      867.732
10/26/2013  02:03:00      -61.173      -38.346        5.681       32.098       18.217       15.247     1030.263      331.847      232.474        0.342        0.080       72.198       17.884        0.061      335.694        6.499      867.737
10/26/2013  02:04:00      -71.701      -51.479       -7.436       17.896       18.229       15.737      320.256      332.287      247.662        0.437        0.045       88.267       13.727        0.024      335.758        6.604      867.756
10/26/2013  02:05:00      -85.318      -63.585      -11.899       14.866       12.172       10.581      221.002      148.151      111.953        0.597        0.024      106.406        3.170        0.001      335.821        6.711      867.754
10/26/2013  02:06:00      -94.176      -49.366       -5.927        9.955       14.267       10.015       99.106      203.538      100.292        0.587        0.020      106.330        7.233        0.005      335.726        6.554      867.755
10/26/2013  02:07:00      -90.808      -47.546       -5.660       15.632       11.557       10.558      244.355      133.562      111.472        0.551        0.024      102.503        6.116        0.004      335.678        6.472      867.778
10/26/2013  02:08:00      -77.889      -40.989       -8.121       16.461       11.988       10.339      270.973      143.702      106.888        0.417        0.026       88.015        7.024        0.006      335.693        6.498      867.791
10/26/2013  02:09:00      -77.267      -40.582      -10.446       10.936        9.939        9.789      119.592       98.793       95.824        0.402        0.016       87.276        5.104        0.003      335.743        6.580      867.784
10/26/2013  02:10:00      -77.623      -28.238       -4.899       17.594       12.129       10.312      309.558      147.107      106.334        0.370        0.028       82.600        9.026        0.012      335.690        6.493      867.781
10/26/2013  02:11:00     -104.892      -31.371      -12.415       11.037       10.963        8.095      121.815      120.188       65.533        0.622        0.015      109.482        6.487        0.004      335.707        6.521      867.789
10/26/2013  02:12:00     -117.794      -29.582      -15.843       13.354       11.305       11.941      178.321      127.795      142.593        0.773        0.022      121.452        4.651        0.001      335.719        6.540      867.793
10/26/2013  02:13:00     -109.443      -24.397      -10.147       22.202       16.851       12.769      492.946      283.961      163.036        0.681        0.047      112.129       10.759        0.009      335.676        6.468      867.791
10/26/2013  02:14:00      -99.873      -29.532       -8.549       25.801       13.984       13.411      665.684      195.560      179.857        0.598        0.052      104.148       13.686        0.017      335.593        6.331      867.803
10/26/2013  02:15:00     -113.522      -35.173       -5.819       22.873       18.871       15.390      523.159      356.126      236.861        0.764        0.056      118.846       13.072        0.012      335.561        6.277      867.821
10/26/2013  02:16:00     -105.471      -34.089       -5.009       21.887       18.095       12.061      479.041      327.412      145.469        0.663        0.048      110.843        9.601        0.008      335.524        6.216      867.840
10/26/2013  02:17:00     -123.539      -38.364       -7.457       16.569       17.468       11.532      274.529      305.126      132.997        0.875        0.036      129.359        8.555        0.004      335.571        6.294      867.850
10/26/2013  02:18:00     -115.778      -47.012       -7.150       20.087       17.139       15.926      403.497      293.747      253.648        0.831        0.048      124.958       13.260        0.011      335.486        6.150      867.865
10/26/2013  02:19:00     -118.930      -40.830       -9.701       20.999       15.073       12.537      440.960      227.196      157.167        0.837        0.041      125.743       10.883        0.007      335.499        6.174      867.887
10/26/2013  02:20:00     -128.283      -49.097       -4.895       21.047       18.442       16.599      442.962      340.118      275.543        0.997        0.053      137.357       13.291        0.009      335.532        6.230      867.896
10/26/2013  02:21:00     -141.184      -56.529       -9.738       12.487       11.380       11.214      155.913      129.503      125.765        1.182        0.021      152.081        5.884        0.001      335.492        6.163      867.896
10/26/2013  02:22:00     -127.814      -34.422       -8.445       15.186       16.566       10.831      230.628      274.416      117.316        0.911        0.031      132.368        7.875        0.004      335.440        6.074      867.899
10/26/2013  02:23:00     -114.437      -29.159       -4.655       26.523       17.887       14.561      703.486      319.935      212.032        0.760        0.062      118.094       11.659        0.010      335.480        6.142      867.902
10/26/2013  02:24:00     -139.725      -42.458      -11.882       19.203       13.758       10.357      368.773      189.291      107.260        1.107        0.033      146.033        8.475        0.003      335.594        6.332      867.899
10/26/2013  02:25:00     -142.315      -36.465      -13.525       19.152       19.307       15.293      366.803      372.762      233.873        1.137        0.049      146.913       11.577        0.006      335.540        6.244      867.892
10/26/2013  02:26:00     -114.082      -26.721       -8.247       40.753       20.470       19.920     1660.830      419.014      396.816        0.814        0.124      117.170       19.331        0.027      335.402        6.013      867.902
10/26/2013  02:27:00     -122.844      -34.245       -7.654       25.798       18.726       16.418      665.549      350.672      269.564        0.880        0.064      127.528       12.307        0.009      335.418        6.038      867.911
10/26/2013  02:28:00     -123.769      -33.344      -12.072       22.582       14.151       10.060      509.935      200.240      101.202        0.869        0.041      128.182        7.786        0.004      335.471        6.127      867.917
10/26/2013  02:29:00     -135.801      -29.865      -18.968       14.760       14.240       12.752      217.856      202.777      162.620        1.014        0.029      139.046        7.907        0.003      335.523        6.213      867.923
10/26/2013  02:30:00     -146.879      -19.701      -19.049        9.701       12.720       12.031       94.116      161.806      144.744        1.136        0.020      148.194        7.550        0.003      335.470        6.126      867.937
10/26/2013  02:31:00     -138.072      -40.834      -19.205       10.608       14.032       10.782      112.535      196.898      116.254        1.076        0.021      143.984        7.109        0.002      335.528        6.222      867.940
10/26/2013  02:32:00     -149.228      -38.725      -18.408        8.322       12.141        7.457       69.251      147.411       55.614        1.219        0.014      154.170        4.548        0.001      335.547        6.255      867.942
10/26/2013  02:33:00     -145.800      -42.198      -22.761       11.480       12.767       11.125      131.795      162.996      123.765        1.199        0.021      151.784        4.889        0.001      335.624        6.383      867.954
10/26/2013  02:34:00     -133.300      -46.616      -15.437       13.086       15.196       12.585      171.234      230.928      158.390        1.037        0.028      141.216        7.090        0.003      335.619        6.374      867.953
10/26/2013  02:35:00     -137.514      -28.534      -17.777        7.614       14.586        7.154       57.979      212.747       51.187        1.018        0.016      140.443        3.505        0.001      335.545        6.251      867.943
10/26/2013  02:36:00     -142.371      -12.947      -15.276       16.236       13.836       15.513      263.604      191.440      240.662        1.068        0.035      142.958       12.049        0.007      335.523        6.213      867.944
10/26/2013  02:37:00     -135.699      -26.928      -21.483       21.335       14.907       13.667      455.176      222.210      186.778        1.023        0.043      138.345       10.398        0.006      335.512        6.194      867.948
10/26/2013  02:38:00     -120.757      -37.697      -21.499       15.044       23.378       14.485      226.310      546.540      209.824        0.872        0.049      126.505       13.634        0.012      335.429        6.057      867.941
10/26/2013  02:39:00     -126.843      -36.714      -16.400       18.485       23.653       14.415      341.678      559.473      207.797        0.941        0.055      132.050       14.696        0.012      335.388        5.988      867.936
10/26/2013  02:40:00     -129.308      -33.557      -16.421       25.081       24.911       14.613      629.035      620.543      213.553        0.979        0.073      133.591       12.501        0.009      335.413        6.029      867.940
10/26/2013  02:41:00     -122.985      -30.791      -21.449       19.378       23.511       14.412      375.514      552.789      207.704        0.883        0.057      126.781        9.526        0.006      335.360        5.942      867.944
10/26/2013  02:42:00     -143.780       -3.142      -20.409       20.996       17.629       13.104      440.813      310.797      171.723        1.101        0.046      143.814       11.110        0.006      335.397        6.004      867.938
10/26/2013  02:43:00     -100.222       -8.792      -21.093       18.558       26.659       13.523      344.412      710.711      182.880        0.590        0.062      100.607       12.873        0.016      335.347        5.919      867.928
10/26/2013  02:44:00     -112.158       -2.597      -16.806       13.496       10.933       10.729      182.146      119.524      115.103        0.664        0.021      112.188        7.860        0.005      335.503        6.180      867.921
10/26/2013  02:45:00      -83.975      -24.191      -15.403       16.651       20.907       11.200      277.252      437.099      125.450        0.436        0.042       87.390        7.701        0.008      335.497        6.170      867.904
10/26/2013  02:46:00      -86.803      -39.071      -12.827       13.588       16.299       13.213      184.641      265.656      174.573        0.493        0.031       95.190        7.608        0.006      335.407        6.020      867.897
10/26/2013  02:47:00      -89.511      -31.029      -14.359       17.159       24.890       14.138      294.419      619.505      199.893        0.515        0.056       94.737        9.921        0.011      335.315        5.865      867.897
10/26/2013  02:48:00     -117.717      -38.781      -22.902       16.540       21.113       13.942      273.565      445.762      194.381        0.840        0.046      123.940       10.207        0.007      335.256        5.768      867.890
10/26/2013  02:49:00     -112.741      -36.917      -11.960       26.959       26.036       18.659      726.772      677.851      348.169        0.798        0.088      118.631       14.804        0.016      335.138        5.573      867.884
10/26/2013  02:50:00     -120.106      -40.910      -13.825       22.132       31.032       17.221      489.827      962.985      296.549        0.902        0.087      126.883       14.559        0.013      335.100        5.510      867.876
10/26/2013  02:51:00     -109.093      -34.355      -13.842       33.796       34.514       18.494     1142.186     1191.217      342.038        0.797        0.134      114.375       15.372        0.018      335.193        5.664      867.876
10/26/2013  02:52:00     -119.654      -31.347      -18.270       25.186       24.078       17.944      634.346      579.745      321.973        0.858        0.077      123.692       14.804        0.014      335.158        5.607      867.870
10/26/2013  02:53:00     -104.615      -48.270      -17.451       23.217       24.401       15.501      539.041      595.432      240.283        0.748        0.069      115.214       14.100        0.015      335.210        5.693      867.864
10/26/2013  02:54:00     -109.341      -49.637      -11.770       22.045       22.801       14.955      486.003      519.877      223.662        0.789        0.061      120.081       10.060        0.007      335.126        5.555      867.875
10/26/2013  02:55:00     -123.766      -60.411      -11.095       12.489       14.986        8.973      155.986      224.578       80.511        0.978        0.023      137.723        5.481        0.002      335.232        5.730      867.883
10/26/2013  02:56:00     -107.260      -68.906       -2.485       36.926       19.142       20.351     1363.514      366.435      414.146        0.920        0.107      127.486       18.801        0.022      335.509        6.191      867.892
10/26/2013  02:57:00      -97.759      -43.156        2.278       39.634       30.546       18.220     1570.882      933.053      331.966        0.713        0.142      106.861       18.221        0.029      335.411        6.026      867.910
10/26/2013  02:58:00      -93.985      -52.776        0.196       55.432       39.602       32.681     3072.707     1568.325     1068.080        0.866        0.285      107.789       29.663        0.076      335.528        6.222      867.922
10/26/2013  02:59:00      -95.734      -65.383        5.545       90.715       47.243       35.192     8229.273     2231.898     1238.442        1.258        0.585      115.931       44.569        0.148      335.538        6.237      867.924
10/26/2013  03:00:00     -108.195      -56.008        9.215       69.237       53.679       35.566     4793.724     2881.414     1264.918        1.193        0.447      121.832       36.236        0.088      335.515        6.199      867.919
10/26/2013  03:01:00     -122.162      -80.757       -0.184       76.571       58.281       34.920     5863.046     3396.719     1219.411        1.596        0.524      146.442       35.466        0.059      335.563        6.281      867.923
10/26/2013  03:02:00     -116.026     -121.190       -0.524       55.865       42.130       36.485     3120.950     1774.934     1331.156        1.719        0.311      167.777       31.974        0.036      335.618        6.372      867.921
10/26/2013  03:03:00      -64.904      -67.599       12.472       53.652       46.210       25.916     2878.580     2135.318      671.642        0.731        0.284       93.713       24.958        0.071      335.548        6.254      867.909
10/26/2013  03:04:00      -91.216      -80.059       -1.868       29.464       31.778       20.513      868.124     1009.841      420.784        0.852        0.115      121.366       15.032        0.015      335.538        6.238      867.907
10/26/2013  03:05:00      -81.936      -69.516        5.583       47.616       38.227       26.041     2267.301     1461.285      678.138        0.799        0.220      107.452       22.053        0.042      335.516        6.202      867.912
10/26/2013  03:06:00      -90.315     -101.661       -5.206       44.013       44.970       28.479     1937.152     2022.322      811.062        1.164        0.239      135.985       23.853        0.031      335.519        6.208      867.908
10/26/2013  03:07:00     -158.220     -128.096       -8.330       52.410       38.624       33.569     2746.814     1491.823     1126.904        2.344        0.268      203.574       28.897        0.020      335.491        6.158      867.906
10/26/2013  03:08:00     -143.766     -124.430       -5.589       61.234       66.407       38.533     3749.643     4409.940     1484.779        2.291        0.482      190.135       40.418        0.045      335.475        6.131      867.911
10/26/2013  03:09:00     -162.690     -133.969       -8.108       68.334       42.740       34.303     4669.476     1826.741     1176.728        2.608        0.384      210.750       29.756        0.020      335.432        6.059      867.899
10/26/2013  03:10:00     -129.614     -119.452       -4.316       50.202       46.927       27.992     2520.280     2202.146      783.528        1.830        0.275      176.263       24.264        0.019      335.442        6.078      867.891
10/26/2013  03:11:00     -101.509     -102.373       -4.133       47.751       48.237       30.064     2280.136     2326.808      903.817        1.316        0.276      144.167       21.678        0.023      335.433        6.064      867.882
10/26/2013  03:12:00     -120.709      -34.530       -2.653       47.047       25.384       19.446     2213.461      644.361      378.159        0.950        0.162      125.551       18.829        0.022      335.373        5.962      867.882
10/26/2013  03:13:00     -121.840      -54.125       -1.128       30.662       22.334       19.552      940.131      498.787      382.274        0.980        0.091      133.321       12.446        0.009      335.387        5.986      867.864
10/26/2013  03:14:00     -103.607      -43.656       -0.900       27.963       25.712       18.951      781.925      661.106      359.140        0.722        0.090      112.429       17.483        0.024      335.237        5.736      867.855
10/26/2013  03:15:00     -105.337      -25.277       -0.479       26.898       28.124       17.414      723.488      790.955      303.232        0.678        0.091      108.327       14.232        0.017      335.164        5.616      867.854
10/26/2013  03:16:00     -117.350      -29.738        2.077       35.786       27.139       16.716     1280.620      736.544      279.424        0.848        0.115      121.059       15.290        0.016      335.147        5.589      867.854
10/26/2013  03:17:00     -114.253      -31.472        1.110       40.046       23.944       18.740     1603.647      573.312      351.189        0.829        0.126      118.508       21.429        0.033      335.154        5.599      867.853
10/26/2013  03:18:00     -109.294      -38.316        4.339       35.134       24.154       17.705     1234.393      583.438      313.471        0.778        0.107      115.816       15.951        0.019      335.109        5.527      867.858
10/26/2013  03:19:00      -89.602      -25.980        0.635       29.059       25.282       15.488      844.436      639.168      239.864        0.521        0.086       93.292       13.462        0.021      335.139        5.575      867.874
10/26/2013  03:20:00      -82.807      -34.631        1.223       31.304       25.396       14.663      979.954      644.976      214.995        0.495        0.092       89.757       13.349        0.022      335.129        5.559      867.874
10/26/2013  03:21:00     -114.443      -25.941       -5.879       27.097       20.693       16.275      734.233      428.187      264.882        0.762        0.071      117.346       14.953        0.016      335.146        5.585      867.865
10/26/2013  03:22:00     -116.537      -39.112       -3.876       21.740       19.070       17.374      472.639      363.683      301.839        0.813        0.057      122.925       15.083        0.015      335.181        5.643      867.871
10/26/2013  03:23:00     -131.436      -31.587       -6.274       19.354       17.601       13.979      374.559      309.780      195.417        0.960        0.044      135.178       11.822        0.008      335.126        5.554      867.875
10/26/2013  03:24:00     -127.078      -40.828       -4.947       25.927       18.090       16.775      672.204      327.253      281.400        0.956        0.064      133.476       12.264        0.008      335.064        5.451      867.868
10/26/2013  03:25:00     -113.879      -43.189       -3.468       29.375       24.174       18.566      862.909      584.376      344.709        0.832        0.090      121.793       16.485        0.018      334.974        5.300      867.859
10/26/2013  03:26:00     -126.246      -43.265       -6.695       18.633       14.743       10.371      347.183      217.368      107.560        0.926        0.034      133.454        6.737        0.003      334.831        5.063      867.856
10/26/2013  03:27:00     -123.592      -35.830      -15.618       22.077       24.631       16.450      487.403      606.682      270.595        0.908        0.068      128.681       10.770        0.007      334.791        4.994      867.853
10/26/2013  03:28:00     -137.576      -62.059       -8.297       29.691       30.158       20.680      881.581      909.496      427.659        1.253        0.111      150.926       18.846        0.016      334.844        5.085      867.838
10/26/2013  03:29:00      -98.245      -64.893       -7.049       60.309       32.400       21.541     3637.162     1049.783      463.995        0.953        0.258      117.742       21.876        0.035      334.835        5.069      867.824
10/26/2013  03:30:00     -103.795      -49.883      -12.865       21.460       27.498       18.741      460.541      756.137      351.233        0.750        0.078      115.159        9.050        0.006      334.852        5.098      867.810
10/26/2013  03:31:00      -90.410      -38.794       -7.899       27.498       22.890       12.512      756.131      523.956      156.556        0.559        0.072       98.382        6.910        0.005      334.924        5.218      867.814
10/26/2013  03:32:00      -51.872      -33.867        6.225       52.451       27.793       19.100     2751.145      772.453      364.824        0.388        0.194       61.949       20.990        0.115      335.054        5.434      867.818
10/26/2013  03:33:00      -74.083      -26.531       -1.760       19.979       20.321       12.866      399.173      412.943      165.542        0.359        0.049       78.690        8.035        0.010      335.078        5.473      867.807
10/26/2013  03:34:00      -26.536       -9.569        0.154       26.031       15.812       15.696      677.606      250.011      246.362        0.098        0.059       28.209       12.491        0.196      334.999        5.343      867.805
10/26/2013  03:35:00      -60.231      -25.468       -3.007       24.397       14.332       11.472      595.225      205.396      131.604        0.261        0.047       65.394        8.669        0.018      334.968        5.291      867.808
10/26/2013  03:36:00      -37.947      -21.139       -1.524       32.331       23.055       17.481     1045.293      531.532      305.589        0.189        0.094       43.438       17.147        0.156      334.931        5.230      867.807
10/26/2013  03:37:00     -103.450      -43.209       -8.372       14.646       13.205        7.770      214.498      174.385       60.367        0.654        0.022      112.111        4.337        0.001      334.932        5.230      867.811
10/26/2013  03:38:00      -94.386      -27.515       -7.180       13.337       17.187        9.745      177.867      295.380       94.972        0.514        0.028       98.315        4.221        0.002      334.974        5.300      867.807
10/26/2013  03:39:00      -70.887      -38.653       -1.194       16.425       21.068        9.499      269.779      443.850       90.223        0.366        0.040       80.741        5.224        0.004      334.998        5.340      867.808
10/26/2013  03:40:00      -72.599      -33.278       -0.871       19.379       20.378       12.030      375.541      415.270      144.721        0.366        0.047       79.863       11.224        0.020      335.020        5.378      867.806
10/26/2013  03:41:00      -81.191      -35.957        1.022       16.075       15.289       13.140      258.419      233.739      172.655        0.428        0.033       88.797        9.189        0.011      334.989        5.326      867.819
10/26/2013  03:42:00      -51.120      -35.919        2.316       30.174       17.697       16.113      910.484      313.175      259.622        0.270        0.074       62.477       17.270        0.076      334.956        5.271      867.829
10/26/2013  03:43:00      -75.226      -41.119      -12.213       12.911        7.364       10.782      166.696       54.228      116.251        0.392        0.017       85.730        6.466        0.006      335.007        5.356      867.837
10/26/2013  03:44:00      -88.672      -47.573      -12.435       14.747       12.653       12.172      217.471      160.105      148.147        0.540        0.026      100.628        6.294        0.004      334.944        5.252      867.847
10/26/2013  03:45:00      -44.410      -34.022        5.615       32.508       20.111       18.841     1056.787      404.471      354.983        0.249        0.091       55.945       16.577        0.088      334.878        5.143      867.850
10/26/2013  03:46:00      -79.423      -58.570       -0.566       31.325       24.151       16.590      981.255      583.266      275.225        0.579        0.092       98.683       14.029        0.020      334.882        5.148      867.851
10/26/2013  03:47:00     -101.778      -52.349       -6.341       16.498       14.256       14.675      272.197      203.233      215.347        0.691        0.035      114.451        8.831        0.006      334.940        5.245      867.849
10/26/2013  03:48:00      -87.640      -48.158       -0.614       21.365       17.391       16.512      456.482      302.451      272.646        0.552        0.052      100.000       14.555        0.021      334.951        5.261      867.848
10/26/2013  03:49:00      -87.189      -54.471       -8.881       17.714       10.543        9.974      313.799      111.152       99.479        0.559        0.026      102.805        5.903        0.003      335.016        5.371      867.842
10/26/2013  03:50:00      -87.751      -52.693       -5.117       14.731       10.574       10.057      216.992      111.819      101.148        0.547        0.021      102.356        6.698        0.004      335.040        5.411      867.839
10/26/2013  03:51:00      -90.931      -53.344       -5.542       13.201       12.610        8.326      174.267      159.005       69.318        0.577        0.020      105.423        5.540        0.003      335.007        5.357      867.836
10/26/2013  03:52:00      -93.867      -34.259       -6.139       28.213       14.354       16.623      795.960      206.031      276.340        0.565        0.064       99.924       16.762        0.028      335.009        5.359      867.839
10/26/2013  03:53:00      -69.045      -39.219        2.469       47.700       20.381       19.326     2275.281      415.403      373.476        0.469        0.153       79.406       21.859        0.076      334.969        5.292      867.845
10/26/2013  03:54:00      -74.829      -45.836        1.526       41.140       20.362       17.296     1692.519      414.629      299.167        0.505        0.120       87.751       13.334        0.023      334.923        5.216      867.856
10/26/2013  03:55:00      -90.181      -44.450        8.805       49.762       32.490       25.568     2476.212     1055.610      653.719        0.719        0.209      100.541       24.606        0.060      335.053        5.433      867.863
10/26/2013  03:56:00      -83.736      -61.502        2.878       47.817       38.386       24.014     2286.509     1473.498      576.665        0.757        0.217      103.895       23.774        0.052      335.080        5.477      867.859
10/26/2013  03:57:00      -50.857      -34.586        6.756       40.849       28.748       25.987     1668.672      826.448      675.330        0.350        0.159       61.503       29.349        0.228      335.036        5.405      867.852
10/26/2013  03:58:00      -97.691      -63.723       -4.971       28.959       34.701       19.359      838.613     1204.186      374.763        0.802        0.121      116.636       19.513        0.028      335.052        5.430      867.852
10/26/2013  03:59:00      -76.600      -67.949       -3.025       43.215       20.966       18.772     1867.579      439.587      352.388        0.658        0.133      102.394       20.637        0.041      335.056        5.437      867.860
10/26/2013  04:00:00      -64.245      -60.061        6.365       40.768       27.382       24.528     1662.014      749.771      601.636        0.539        0.151       87.947       24.887        0.080      335.009        5.359      867.879
10/26/2013  04:01:00      -68.619      -47.796        4.081       42.285       41.863       23.157     1787.982     1752.526      536.240        0.554        0.204       83.624       22.016        0.069      335.007        5.356      867.887
10/26/2013  04:02:00      -58.455      -34.067        6.005       51.412       26.472       21.391     2643.191      700.768      457.563        0.421        0.190       67.658       22.609        0.112      335.035        5.403      867.890
10/26/2013  04:03:00      -67.999      -55.108        4.295       40.244       29.267       19.645     1619.595      856.533      385.943        0.527        0.143       87.526       10.792        0.015      335.071        5.461      867.888
10/26/2013  04:04:00      -67.240      -35.112       13.926       55.366       29.955       23.914     3065.364      897.288      571.863        0.524        0.227       75.856       29.032        0.146      335.010        5.360      867.890
10/26/2013  04:05:00     -109.343      -61.644        2.922       52.981       34.143       29.130     2806.972     1165.714      848.544        1.029        0.241      125.522       29.218        0.054      334.971        5.295      867.888
10/26/2013  04:06:00     -107.227      -58.099       -2.502       26.651       32.381       19.517      710.260     1048.526      380.897        0.851        0.107      121.955       16.745        0.019      335.003        5.350      867.886
10/26/2013  04:07:00      -93.979      -35.444        3.502       40.179       23.984       19.882     1614.333      575.213      395.291        0.634        0.129      100.441       20.541        0.042      334.980        5.311      867.885
10/26/2013  04:08:00      -69.323      -33.056        7.361       41.317       24.695       20.428     1707.066      609.846      417.291        0.434        0.137       76.801       20.418        0.071      335.007        5.357      867.890
10/26/2013  04:09:00      -64.838      -24.380        7.985       24.285       20.612       15.957      589.755      424.857      254.639        0.307        0.063       69.270       13.628        0.039      334.928        5.225      867.907
10/26/2013  04:10:00      -76.209      -20.627        2.304       24.931       20.810       11.283      621.561      433.060      127.310        0.371        0.059       78.951       11.664        0.022      334.866        5.121      867.921
10/26/2013  04:11:00      -74.360      -26.109       -0.948       23.530       21.691       12.061      553.665      470.515      145.458        0.369        0.058       78.811       12.577        0.025      334.852        5.098      867.928
10/26/2013  04:12:00      -74.645      -33.367       -1.506       21.609       21.788       10.810      466.954      474.700      116.851        0.387        0.053       81.763       10.902        0.018      334.814        5.035      867.930
10/26/2013  04:13:00      -84.260      -23.020       -6.457       18.821       13.404        9.024      354.239      179.660       81.438        0.414        0.031       87.348        6.735        0.006      334.783        4.984      867.931
10/26/2013  04:14:00      -76.894      -14.087      -10.699       15.684       16.343       10.372      245.992      267.085      107.588        0.342        0.031       78.174        5.149        0.004      334.764        4.953      867.932
10/26/2013  04:15:00      -75.777       -8.195       -5.614       19.017       14.847       10.990      361.664      220.432      120.775        0.327        0.035       76.219        8.680        0.013      334.757        4.941      867.922
10/26/2013  04:16:00      -86.975      -21.053       -9.998       10.828       13.581        8.825      117.243      184.433       77.874        0.424        0.019       89.486        3.707        0.002      334.773        4.968      867.906
10/26/2013  04:17:00      -87.970      -11.658      -10.164       25.598       14.294       10.157      655.261      204.307      103.174        0.447        0.048       88.739        9.750        0.012      334.690        4.829      867.887
10/26/2013  04:18:00      -84.372      -31.400       -6.979       17.807       20.637       15.864      317.079      425.892      251.656        0.457        0.050       90.025       12.227        0.018      334.632        4.733      867.879
10/26/2013  04:19:00      -78.793      -32.456      -12.518       19.955       20.650       14.037      398.184      426.424      197.025        0.422        0.051       85.216       10.357        0.015      334.525        4.554      867.876
10/26/2013  04:20:00      -57.674      -33.590       -7.316       26.592       19.368       18.346      707.134      375.120      336.582        0.296        0.071       66.742       16.046        0.058      334.511        4.531      867.872
10/26/2013  04:21:00      -76.877      -32.300       -9.213       21.047       20.879       13.196      442.962      435.915      174.134        0.405        0.053       83.387       11.114        0.018      334.454        4.437      867.872
10/26/2013  04:22:00      -94.341      -32.746      -16.923       14.583       17.257       12.258      212.668      297.802      150.256        0.546        0.033       99.862        9.115        0.008      334.441        4.417      867.875
10/26/2013  04:23:00      -93.820      -47.485      -12.692       13.022       12.585        7.944      169.572      158.382       63.106        0.580        0.020      105.152        3.765        0.001      334.382        4.318      867.896
10/26/2013  04:24:00      -91.832      -41.406      -10.768       16.798       18.631       10.061      282.167      347.104      101.215        0.550        0.037      100.735        6.202        0.004      334.395        4.339      867.909
10/26/2013  04:25:00      -95.610      -20.576      -19.011       17.508       12.767       12.788      306.535      162.993      163.532        0.528        0.032       97.799        7.514        0.006      334.571        4.631      867.919
10/26/2013  04:26:00      -84.552      -32.508      -12.894       17.351       16.360        8.864      301.062      267.634       78.575        0.451        0.032       90.586        7.897        0.008      334.622        4.715      867.921
10/26/2013  04:27:00      -75.256      -37.488      -16.939        7.753        8.476        6.092       60.110       71.847       37.119        0.376        0.008       84.076        3.676        0.002      334.623        4.718      867.930
10/26/2013  04:28:00      -77.887      -31.014      -11.185       20.290       13.897       11.856      411.686      193.135      140.563        0.395        0.037       83.834       12.656        0.023      334.648        4.759      867.936
10/26/2013  04:29:00      -98.200      -38.689      -11.074        6.683        7.916        6.356       44.656       62.663       40.403        0.571        0.007      105.547        3.136        0.001      334.733        4.899      867.935
10/26/2013  04:30:00     -106.038      -27.064      -11.346       11.305       10.398        7.261      127.808      108.128       52.724        0.620        0.014      109.437        5.222        0.002      334.786        4.987      867.928
10/26/2013  04:31:00     -110.328      -20.655      -13.358       13.347       13.357        9.394      178.142      178.418       88.250        0.661        0.022      112.244        6.117        0.003      334.734        4.902      867.920
10/26/2013  04:32:00      -90.813      -18.996       -9.007       24.265       13.878       14.796      588.795      192.598      218.910        0.484        0.050       92.778       15.841        0.029      334.611        4.698      867.920
10/26/2013  04:33:00      -98.032      -23.693       -5.973       13.069       11.664       11.344      170.798      136.052      128.685        0.532        0.022      100.855        8.188        0.007      334.633        4.734      867.933
10/26/2013  04:34:00      -79.590      -20.641       -9.053       20.053       16.834       11.286      402.113      283.371      127.381        0.383        0.041       82.223        8.951        0.012      334.573        4.634      867.933
10/26/2013  04:35:00     -108.617      -16.897      -11.433       16.806       12.253       13.435      282.434      150.140      180.496        0.641        0.031      109.923        9.792        0.008      334.450        4.431      867.934
10/26/2013  04:36:00      -96.009      -21.492      -10.888       22.611       14.174       10.663      511.242      200.901      113.710        0.531        0.041       98.385        9.094        0.009      334.525        4.555      867.938
10/26/2013  04:37:00      -74.551      -29.722       -5.663       13.510       13.162        9.914      182.508      173.240       98.297        0.346        0.023       80.257        1.130        0.000      334.525        4.555      867.941
10/26/2013  04:38:00     -104.796      -33.437      -11.312       10.961       11.401       10.291      120.153      129.987      105.903        0.629        0.018      110.001        4.312        0.002      334.536        4.572      867.933
10/26/2013  04:39:00      -87.917      -30.590      -11.440       10.305       12.623        7.442      106.191      159.352       55.382        0.456        0.016       93.087        4.839        0.003      334.522        4.549      867.924
10/26/2013  04:40:00      -82.922      -36.322       -5.269       15.139       15.414       10.168      229.179      237.600      103.389        0.440        0.029       90.528        8.746        0.009      334.520        4.546      867.923
10/26/2013  04:41:00      -69.496      -34.251       -5.219       19.514       12.085       11.095      380.794      146.048      123.092        0.334        0.032       77.478       11.158        0.021      334.507        4.526      867.931
10/26/2013  04:42:00      -98.004      -33.596      -12.347       10.824        9.662        7.779      117.153       93.354       60.510        0.558        0.014      103.603        5.575        0.003      334.602        4.682      867.937
10/26/2013  04:43:00     -115.667      -29.274      -11.755       12.011       11.481        7.476      144.253      131.817       55.896        0.735        0.017      119.314        3.645        0.001      334.568        4.626      867.939
10/26/2013  04:44:00     -120.746      -41.014       -8.416       10.582       18.023        9.963      111.969      324.843       99.257        0.843        0.027      127.521        7.285        0.003      334.492        4.500      867.936
10/26/2013  04:45:00     -135.877      -41.098      -10.628        9.949        9.889        7.528       98.985       97.797       56.671        1.026        0.013      141.956        4.998        0.001      334.485        4.489      867.939
10/26/2013  04:46:00     -126.190      -52.338      -10.908        9.080        9.647        8.270       82.454       93.059       68.398        0.951        0.012      136.614        4.386        0.001      334.441        4.416      867.951
10/26/2013  04:47:00     -111.297      -39.641      -10.328       13.520       15.554       10.427      182.801      241.937      108.726        0.730        0.027      118.145        7.633        0.004      334.485        4.488      867.950
10/26/2013  04:48:00      -96.551      -28.703      -11.744       15.064       15.995       10.759      226.909      255.825      115.758        0.544        0.030      100.727        5.200        0.003      334.537        4.574      867.953
10/26/2013  04:49:00     -102.609      -26.055       -5.333       23.199       16.547       11.702      538.183      273.795      136.938        0.609        0.047      105.866       10.272        0.009      334.461        4.448      867.953
10/26/2013  04:50:00      -85.055      -28.292       -2.480       28.837       18.760       15.616      831.591      351.935      243.862        0.473        0.071       89.637       10.914        0.015      334.453        4.435      867.962
10/26/2013  04:51:00     -107.114      -23.929       -5.549       14.835       13.104       12.195      220.089      171.705      148.717        0.631        0.027      109.755        9.435        0.007      334.387        4.328      867.971
10/26/2013  04:52:00     -101.950      -29.708       -7.908       14.616       15.485       10.944      213.640      239.798      119.773        0.596        0.029      106.190        8.016        0.006      334.418        4.377      867.972
10/26/2013  04:53:00      -96.751      -19.467       -3.504       31.360       16.010       16.742      983.476      256.316      280.300        0.564        0.076       98.690       17.788        0.032      334.309        4.196      867.967
10/26/2013  04:54:00     -103.272      -23.494       -8.119       23.332       18.561       12.135      544.376      344.511      147.262        0.616        0.052      105.910       11.424        0.012      334.412        4.369      867.964
10/26/2013  04:55:00     -127.349      -23.811       -9.536       15.218       12.950       11.538      231.576      167.705      133.130        0.870        0.027      129.556        7.523        0.003      334.416        4.374      867.972
10/26/2013  04:56:00     -127.192      -24.204      -15.643       19.194       15.822       11.437      368.420      250.338      130.798        0.888        0.037      129.474        7.951        0.004      334.380        4.313      867.979
10/26/2013  04:57:00     -118.885      -33.350      -20.422       26.668       15.477       13.149      711.203      239.540      172.901        0.839        0.056      123.474       14.699        0.014      334.361        4.284      867.987
10/26/2013  04:58:00      -96.282      -23.073       -1.476       31.650       23.763       19.581     1001.734      564.694      383.428        0.588        0.097       99.008       16.036        0.026      334.264        4.122      867.992
10/26/2013  04:59:00     -104.571      -27.473       -7.528       24.034       20.529       11.596      577.648      421.428      134.468        0.644        0.057      108.120        8.688        0.006      334.288        4.161      868.004
10/26/2013  05:00:00     -112.993      -23.400       -8.068       17.103       10.129       12.595      292.518      102.600      158.633        0.697        0.028      115.390       10.772        0.009      334.313        4.203      868.007
10/26/2013  05:01:00     -110.125      -40.336      -10.269       10.270       14.284        8.683      105.465      204.028       75.402        0.712        0.019      117.280        3.502        0.001      334.294        4.172      868.005
10/26/2013  05:02:00     -107.300      -45.602      -10.269       15.302       15.231       12.686      234.163      231.992      160.925        0.716        0.031      116.588        9.389        0.006      334.263        4.120      867.995
10/26/2013  05:03:00     -107.427      -48.334       -4.646       23.215       18.835       14.122      538.954      354.772      199.434        0.750        0.055      117.800       12.014        0.010      334.241        4.085      867.999
10/26/2013  05:04:00     -103.407      -50.190       -4.970       13.307       20.516       10.294      177.081      420.917      105.974        0.697        0.035      114.944        6.559        0.003      334.224        4.056      868.000
10/26/2013  05:05:00     -131.553      -47.518      -11.558        9.499       10.255        8.133       90.235      105.165       66.141        0.998        0.013      139.872        4.043        0.001      334.312        4.203      867.991
10/26/2013  05:06:00     -127.874      -34.414       -7.978       20.877       15.197       11.726      435.850      230.958      137.506        0.920        0.040      132.424       11.283        0.007      334.355        4.273      867.992
10/26/2013  05:07:00     -124.840      -41.574      -13.459       14.845       18.008       11.969      220.363      324.273      143.262        0.909        0.034      131.580        5.117        0.002      334.390        4.333      868.002
10/26/2013  05:08:00     -120.293      -38.892       -9.530       20.282       19.754       13.646      411.370      390.233      186.201        0.853        0.049      126.424       11.077        0.008      334.281        4.152      868.008
10/26/2013  05:09:00     -118.376      -47.676      -11.293       13.438       12.524        8.618      180.566      156.855       74.272        0.841        0.021      127.616        3.505        0.001      334.186        3.994      868.007
10/26/2013  05:10:00     -138.662      -50.050      -17.558       17.204       18.324       13.183      295.973      335.757      173.796        1.142        0.040      147.419        7.278        0.002      334.215        4.041      868.006
10/26/2013  05:11:00     -140.936      -43.598      -19.789       19.100       16.659       16.783      364.820      277.537      281.657        1.154        0.046      147.526        4.378        0.001      334.204        4.023      868.014
10/26/2013  05:12:00     -138.620      -55.992      -18.398       13.086       15.414       12.354      171.256      237.596      152.630        1.163        0.028      149.501        7.952        0.003      334.254        4.106      868.004
10/26/2013  05:13:00      -90.004      -60.673      -12.801       42.049       30.545       19.671     1768.109      932.993      386.947        0.752        0.154      108.545       20.844        0.037      334.197        4.010      867.991
10/26/2013  05:14:00      -85.976      -36.132       -2.337       34.451       34.832       25.735     1186.868     1213.266      662.278        0.588        0.153       93.260       11.283        0.015      334.206        4.026      867.991
10/26/2013  05:15:00     -103.873      -15.526      -14.595       39.666       33.635       22.029     1573.404     1131.290      485.272        0.722        0.159      105.027       17.201        0.027      334.251        4.100      867.996
10/26/2013  05:16:00     -106.792      -25.413      -11.033       41.039       29.263       20.291     1684.172      856.307      411.731        0.756        0.148      109.774       19.832        0.033      334.238        4.079      868.000
10/26/2013  05:17:00      -98.484      -28.695      -23.733       35.004       40.662       20.194     1225.281     1653.405      407.794        0.719        0.164      102.579       11.789        0.013      334.257        4.111      867.996
10/26/2013  05:18:00      -33.271      -35.158      -17.940       41.396       26.197       28.265     1713.670      686.307      798.932        0.293        0.160       48.404       26.227        0.294      334.239        4.082      868.007
10/26/2013  05:19:00     -104.766      -66.615       -1.127       34.745       33.750       22.255     1207.192     1139.064      495.299        0.913        0.142      124.150       17.509        0.020      334.184        3.989      868.023
10/26/2013  05:20:00     -116.047      -46.145       -2.046       26.757       20.454       16.251      715.959      418.377      264.094        0.850        0.070      124.885       14.745        0.014      334.188        3.996      868.036
10/26/2013  05:21:00      -90.223      -61.345      -10.950       21.556       17.158       15.539      464.675      294.405      241.458        0.651        0.050      109.103        8.369        0.006      334.287        4.161      868.035
10/26/2013  05:22:00     -124.129      -65.272      -15.796       16.227       14.801       10.441      263.316      219.073      109.022        1.025        0.030      140.244        3.262        0.001      334.379        4.314      868.049
10/26/2013  05:23:00     -114.086      -67.948       -5.374       24.151       17.043       12.257      583.266      290.473      150.227        0.934        0.051      132.787       10.986        0.007      334.561        4.614      868.046
10/26/2013  05:24:00      -62.677      -45.068       12.333       46.187       27.135       18.554     2133.246      736.331      344.246        0.466        0.161       77.198       21.873        0.080      334.471        4.465      868.046
10/26/2013  05:25:00      -66.542      -49.159        4.296       48.471       29.684       23.789     2349.403      881.117      565.902        0.533        0.190       82.731       24.025        0.084      334.358        4.279      868.046
10/26/2013  05:26:00      -93.763      -67.695       -1.631       27.008       28.530       16.292      729.410      813.937      265.426        0.759        0.090      115.646       12.007        0.011      334.301        4.186      868.055
10/26/2013  05:27:00     -106.654      -51.096        2.803       45.111       25.368       19.775     2034.970      643.551      391.055        0.853        0.153      118.262       23.048        0.038      334.291        4.166      868.054
10/26/2013  05:28:00      -87.666      -53.782        1.507       41.205       37.889       21.871     1697.819     1435.612      478.357        0.710        0.181      102.848       23.156        0.051      334.384        4.323      868.052
10/26/2013  05:29:00      -99.297      -44.444        8.671       44.608       26.481       18.930     1989.832      701.228      358.341        0.748        0.152      108.789       20.833        0.037      334.440        4.415      868.051
10/26/2013  05:30:00     -105.091      -53.579        4.096       41.575       23.818       19.756     1728.480      567.283      390.286        0.831        0.134      117.961       17.510        0.022      334.419        4.380      868.057
10/26/2013  05:31:00      -87.578      -55.841        5.681       49.811       30.626       22.269     2481.137      937.978      495.903        0.737        0.196      103.866       18.239        0.031      334.510        4.529      868.051
10/26/2013  05:32:00      -67.177      -58.161        8.039       45.721       34.315       23.175     2090.446     1177.522      537.081        0.588        0.190       88.856       21.924        0.061      334.567        4.625      868.047
10/26/2013  05:33:00      -69.900      -49.377        5.713       46.499       38.194       21.538     2162.186     1458.798      463.878        0.572        0.204       85.581       28.275        0.109      334.485        4.489      868.050
10/26/2013  05:34:00     -106.861      -51.207        4.104       43.873       24.799       18.780     1924.818      615.010      352.699        0.847        0.145      118.496       19.142        0.026      334.491        4.499      868.043
10/26/2013  05:35:00      -82.072      -45.556        3.838       42.691       21.975       19.284     1822.522      482.890      371.858        0.575        0.134       93.868       19.727        0.044      334.506        4.523      868.030
10/26/2013  05:36:00     -102.085      -48.470        1.721       35.560       27.585       19.731     1264.482      760.938      389.300        0.759        0.121      113.008       18.954        0.028      334.530        4.564      868.016
10/26/2013  05:37:00     -121.426      -39.283       -7.649       20.870       17.840       11.679      435.547      318.270      136.403        0.862        0.045      127.622       11.088        0.008      334.523        4.552      868.019
10/26/2013  05:38:00     -112.801      -44.709       -4.010       16.549       18.081       10.470      273.859      326.931      109.619        0.772        0.036      121.339        8.322        0.005      334.484        4.488      868.014
10/26/2013  05:39:00     -108.947      -41.972        0.810       20.678       15.544       12.278      427.570      241.602      150.754        0.723        0.041      116.752       10.711        0.008      334.439        4.412      868.011
10/26/2013  05:40:00     -111.917      -36.326        0.119       29.229       18.697       12.279      854.327      349.562      150.769        0.760        0.068      117.665       13.301        0.013      334.527        4.558      868.008
10/26/2013  05:41:00      -89.620      -38.965        4.133       26.480       19.820       15.623      701.200      392.818      244.072        0.545        0.067       97.724       14.509        0.022      334.540        4.579      868.028
10/26/2013  05:42:00      -73.198      -37.748        4.218       38.032       24.959       16.802     1446.402      622.961      282.303        0.458        0.118       82.358       17.942        0.047      334.422        4.385      868.039
10/26/2013  05:43:00      -42.449      -24.511        1.876       32.289       17.888       16.471     1042.565      319.995      271.301        0.202        0.082       49.017       16.341        0.111      334.380        4.315      868.039
10/26/2013  05:44:00      -57.837      -29.095       -2.451       24.859       17.007       11.055      617.977      289.254      122.218        0.261        0.051       64.743       10.256        0.025      334.357        4.278      868.046
10/26/2013  05:45:00      -51.012      -26.796        1.497       16.664       11.984        9.898      277.689      143.616       97.968        0.192        0.026       57.621        5.536        0.009      334.408        4.360      868.063
10/26/2013  05:46:00      -45.937      -35.163       -1.971       14.312       16.269        6.669      204.844      264.687       44.472        0.193        0.026       57.850        4.682        0.007      334.614        4.704      868.071
10/26/2013  05:47:00      -27.005      -16.432        1.858       24.693       12.770       11.807      609.759      163.066      139.408        0.096        0.046       31.611       12.852        0.165      334.538        4.576      868.073
10/26/2013  05:48:00      -72.079      -16.363       -3.905       17.964       14.726       12.904      322.710      216.859      166.522        0.309        0.035       73.913       10.988        0.022      334.465        4.456      868.072
10/26/2013  05:49:00      -74.570      -17.706       -1.094        9.265       11.904        8.754       85.833      141.703       76.630        0.309        0.015       76.643        2.935        0.001      334.474        4.470      868.066
10/26/2013  05:50:00      -58.301      -25.353       -3.402       14.560       16.911       10.549      211.984      285.970      111.276        0.233        0.030       63.575        6.412        0.010      334.511        4.532      868.064
10/26/2013  05:51:00      -54.993      -13.719       -1.276       14.864       12.799        9.107      220.944      163.824       82.932        0.184        0.023       56.678        5.719        0.010      334.477        4.475      868.073
10/26/2013  05:52:00      -57.625      -19.702       -2.486       14.856       14.301        7.996      220.703      204.514       63.933        0.210        0.024       60.900        4.920        0.007      334.428        4.393      868.076
10/26/2013  05:53:00      -63.272      -32.520       -8.017       13.355       12.762        8.932      178.356      162.862       79.772        0.277        0.021       71.140        2.741        0.001      334.438        4.412      868.090
10/26/2013  05:54:00      -64.884      -34.855       -6.342       10.400        8.948        8.215      108.153       80.073       67.487        0.286        0.013       73.653        3.945        0.003      334.396        4.341      868.096
10/26/2013  05:55:00      -73.077      -28.255       -8.532       11.023       17.114        8.297      121.511      292.877       68.841        0.335        0.024       78.349        6.062        0.006      334.459        4.445      868.109
10/26/2013  05:56:00      -85.245      -31.145       -5.497        9.968       10.014        7.449       99.353      100.289       55.483        0.426        0.013       90.756        2.311        0.001      334.401        4.350      868.118
10/26/2013  05:57:00      -87.759      -37.502      -10.628       12.732       10.714        8.958      162.102      114.795       80.252        0.479        0.018       95.436        4.846        0.003      334.392        4.336      868.122
10/26/2013  05:58:00      -85.333      -48.507       -8.972       12.220       15.608       11.373      149.337      243.623      129.353        0.512        0.026       98.156        6.747        0.005      334.417        4.376      868.132
10/26/2013  05:59:00      -82.825      -48.333       -9.209       15.878       10.576       10.128      252.100      111.860      102.571        0.487        0.023       95.896        3.458        0.001      334.378        4.312      868.133
10/26/2013  06:00:00      -83.495      -59.217      -11.900       11.213       13.892       11.106      125.726      192.986      123.350        0.553        0.022      102.363        3.501        0.001      334.457        4.443      868.135
10/26/2013  06:01:00      -58.958      -44.621       -1.534       25.625       17.319       12.850      656.630      299.956      165.133        0.330        0.056       73.940       11.914        0.026      334.377        4.312      868.138
10/26/2013  06:02:00      -24.787      -19.629        6.000       26.506       14.776       16.211      702.554      218.340      262.800        0.111        0.059       31.618       15.092        0.228      334.295        4.174      868.140
10/26/2013  06:03:00      -70.590      -26.773       -5.401       14.405       12.782        9.080      207.505      163.387       82.438        0.309        0.023       75.497        5.723        0.006      334.304        4.190      868.140
10/26/2013  06:04:00      -76.840      -18.128       -6.457       11.162       12.633        7.123      124.599      159.603       50.735        0.330        0.017       78.949        3.880        0.002      334.249        4.097      868.143
10/26/2013  06:05:00      -69.880      -22.022       -3.828       14.092       14.196       11.322      198.572      201.526      128.194        0.296        0.026       73.268        7.310        0.010      334.252        4.103      868.160
10/26/2013  06:06:00      -80.306      -16.477       -6.134       14.771       12.245       11.669      218.180      149.946      136.166        0.363        0.025       81.979        6.214        0.006      334.242        4.084      868.175
10/26/2013  06:07:00      -87.334      -22.257       -9.965       12.933       13.169        9.840      167.266      173.429       96.834        0.433        0.022       90.126        7.690        0.007      334.234        4.072      868.187
10/26/2013  06:08:00      -88.920      -21.136       -8.080        9.793       12.233        7.996       95.895      149.641       63.935        0.436        0.015       91.398        5.086        0.003      334.187        3.994      868.196
10/26/2013  06:09:00      -79.131      -13.746      -11.847       11.568       13.767        9.342      133.826      189.539       87.268        0.350        0.021       80.316        7.263        0.008      334.172        3.970      868.198
10/26/2013  06:10:00      -94.367      -12.210      -13.200       11.899       12.873        8.257      141.598      165.711       68.177        0.480        0.019       95.153        4.571        0.002      334.248        4.096      868.196
10/26/2013  06:11:00     -101.194      -17.396      -12.616       15.523       12.661       11.010      240.967      160.297      121.218        0.561        0.026      102.678        7.729        0.006      334.288        4.163      868.187
10/26/2013  06:12:00     -108.235      -23.552      -12.126        9.902       12.719        8.749       98.052      161.778       76.545        0.638        0.017      110.768        4.066        0.001      334.275        4.142      868.180
10/26/2013  06:13:00      -99.040      -13.254      -13.627       15.662       11.914       10.208      245.286      141.933      104.193        0.533        0.025       99.923        5.863        0.003      334.194        4.005      868.172
10/26/2013  06:14:00      -97.294      -22.046       -9.026       12.258       13.249        8.799      150.259      175.542       77.420        0.522        0.020       99.760        7.381        0.005      334.208        4.029      868.172
10/26/2013  06:15:00      -99.946      -20.066       -8.761       20.119       12.467        9.141      404.782      155.426       83.554        0.556        0.032      101.940        3.197        0.001      334.235        4.074      868.180
10/26/2013  06:16:00      -81.612      -28.197       -5.329       16.371       18.587       11.899      268.021      345.463      141.586        0.412        0.038       86.345        7.847        0.008      334.167        3.960      868.201
10/26/2013  06:17:00      -87.850      -35.207      -14.650       20.015       16.676       12.516      400.614      278.099      156.661        0.500        0.042       94.642        7.531        0.006      334.126        3.893      868.221
10/26/2013  06:18:00      -89.692      -37.349       -7.829       18.046       15.404        8.647      325.672      237.282       74.777        0.507        0.032       97.158        8.133        0.007      334.089        3.830      868.227
10/26/2013  06:19:00     -101.733      -33.556       -6.292       13.741       12.988       10.160      188.823      168.699      103.227        0.599        0.023      107.124        9.037        0.007      334.100        3.849      868.228
10/26/2013  06:20:00     -104.999      -14.130      -13.673       13.682       11.779       10.616      187.191      138.756      112.701        0.592        0.022      105.945        6.546        0.004      334.044        3.757      868.232
10/26/2013  06:21:00     -106.303      -16.923      -12.165       13.922       13.751       10.270      193.810      189.095      105.475        0.611        0.024      107.641        3.558        0.001      334.052        3.771      868.233
10/26/2013  06:22:00     -109.285      -12.700      -10.397       30.014       15.743       14.466      900.849      247.854      209.277        0.679        0.068      110.020       14.837        0.018      334.067        3.796      868.233
10/26/2013  06:23:00     -112.978      -13.221       -9.572       25.992       19.401       14.439      675.586      376.405      208.480        0.715        0.063      113.749       13.809        0.015      334.022        3.720      868.231
10/26/2013  06:24:00     -117.370      -21.913       -9.570       28.937       17.504       16.525      837.371      306.405      273.068        0.788        0.071      119.398       17.414        0.021      334.006        3.696      868.221
10/26/2013  06:25:00     -119.492      -18.570      -11.352       21.401       18.918       15.527      458.000      357.880      241.077        0.790        0.053      120.926       12.320        0.010      333.977        3.646      868.218
10/26/2013  06:26:00      -96.408      -15.664       -7.831       22.512       17.918       12.131      506.809      321.059      147.172        0.529        0.049       97.672       10.579        0.012      333.948        3.599      868.225
10/26/2013  06:27:00      -86.447      -16.605       -6.689       20.480       14.937       10.715      419.423      223.110      114.806        0.428        0.038       88.027        6.703        0.006      333.976        3.644      868.247
10/26/2013  06:28:00      -89.365      -22.737       -8.641       16.119       11.424       10.236      259.830      130.500      104.779        0.454        0.025       92.212       10.079        0.012      334.012        3.706      868.260
10/26/2013  06:29:00      -97.988      -26.000      -12.664        9.821        8.174        6.043       96.443       66.815       36.521        0.532        0.010      101.379        3.091        0.001      334.003        3.690      868.263
10/26/2013  06:30:00      -83.490      -28.083      -12.375       12.677       10.924        9.478      160.709      119.332       89.826        0.414        0.018       88.086        4.970        0.003      334.003        3.690      868.267
10/26/2013  06:31:00      -77.431      -39.353      -12.367        7.911       10.672        7.041       62.587      113.902       49.573        0.396        0.011       86.858        3.575        0.002      333.961        3.619      868.273
10/26/2013  06:32:00      -91.790      -23.949      -14.908        9.215       11.962        6.328       84.922      143.090       40.046        0.474        0.013       94.863        3.968        0.002      334.043        3.757      868.277
10/26/2013  06:33:00      -92.225      -36.338      -14.190        7.250        9.008        6.622       52.567       81.142       43.846        0.510        0.009       99.126        2.084        0.000      334.035        3.742      868.276
10/26/2013  06:34:00     -109.828      -34.013       -8.947       10.096       15.171        5.384      101.932      230.166       28.984        0.683        0.018      114.974        3.060        0.001      334.057        3.777      868.273
10/26/2013  06:35:00     -109.922      -27.016      -12.353       11.530       11.883        7.404      132.949      141.213       54.822        0.665        0.016      113.194        4.602        0.002      334.036        3.742      868.269
10/26/2013  06:36:00      -97.634      -26.633       -6.464       17.322       12.039        8.814      300.043      144.943       77.690        0.540        0.026      101.202        5.913        0.003      334.118        3.879      868.270
10/26/2013  06:37:00      -86.643      -21.410       -6.231       17.740       12.020       13.040      314.691      144.479      170.040        0.432        0.031       89.249       10.841        0.015      334.108        3.863      868.285
10/26/2013  06:38:00      -90.189      -31.580       -5.971       13.271       14.526        7.534      176.125      211.012       56.758        0.481        0.022       95.558        6.510        0.005      334.124        3.891      868.288
10/26/2013  06:39:00      -88.801      -26.219       -6.315       10.055       12.882        5.725      101.112      165.940       32.776        0.446        0.015       92.591        5.810        0.004      334.056        3.778      868.290
10/26/2013  06:40:00      -88.434      -24.468       -8.262        8.072        8.638        5.405       65.151       74.613       29.218        0.433        0.008       91.756        2.893        0.001      334.062        3.786      868.282
10/26/2013  06:41:00      -93.974      -38.762       -8.918        9.629       10.007        5.919       92.725      100.135       35.037        0.532        0.011      101.654        3.257        0.001      334.011        3.701      868.279
10/26/2013  06:42:00      -97.507      -39.437       -2.496       14.117       15.511       10.179      199.283      240.598      103.616        0.581        0.027      105.180        6.483        0.004      334.014        3.708      868.280
10/26/2013  06:43:00      -95.146      -31.993       -2.149       11.410       20.612        6.561      130.197      424.861       43.052        0.534        0.030      100.381        6.557        0.004      334.003        3.690      868.278
10/26/2013  06:44:00      -94.024      -14.671       -8.904       17.207       13.554       11.605      296.091      183.705      134.665        0.487        0.031       95.162        8.297        0.008      333.996        3.678      868.281
10/26/2013  06:45:00     -103.669      -33.311       -8.471       16.356       20.622        8.578      267.514      425.282       73.574        0.635        0.038      108.889        6.885        0.004      333.952        3.606      868.283
10/26/2013  06:46:00      -71.215      -21.656        0.622       27.316       19.859       14.491      746.143      394.368      209.999        0.345        0.068       74.435       15.394        0.043      333.872        3.471      868.283
10/26/2013  06:47:00      -71.059      -18.737       -3.347       15.174       13.841       10.061      230.265      191.568      101.233        0.297        0.026       73.488        7.908        0.012      333.933        3.574      868.284
10/26/2013  06:48:00      -76.063      -28.713       -1.695       14.785       11.664        8.368      218.593      136.060       70.020        0.352        0.021       81.302        7.673        0.009      333.929        3.566      868.279
10/26/2013  06:49:00      -91.422      -31.045       -1.704       16.653       13.796       11.687      277.314      190.328      136.595        0.496        0.030       96.549        8.808        0.008      333.870        3.469      868.277
10/26/2013  06:50:00      -92.435      -39.501        1.833       21.153       16.374       15.691      447.469      268.118      246.209        0.553        0.048      100.522       14.045        0.020      333.792        3.339      868.282
10/26/2013  06:51:00      -84.856      -37.531       -0.441       22.821       16.283       12.473      520.779      265.129      155.574        0.478        0.047       92.785       13.169        0.020      333.816        3.379      868.295
10/26/2013  06:52:00     -101.593      -40.696       -9.048       10.372        8.359        8.412      107.568       69.878       70.767        0.615        0.012      109.440        2.604        0.001      333.850        3.435      868.309
10/26/2013  06:53:00     -100.367      -38.699       -9.077       10.699       13.654       11.456      114.459      186.421      131.241        0.604        0.022      107.569        5.861        0.003      333.816        3.379      868.319
10/26/2013  06:54:00      -89.778      -23.422       -3.768       17.704       20.457       15.340      313.419      418.487      235.305        0.479        0.048       92.783        8.576        0.009      333.762        3.291      868.323
10/26/2013  06:55:00      -83.113      -27.607       -3.070       18.038       20.376       13.725      325.365      415.200      188.377        0.430        0.046       87.578        9.008        0.011      333.837        3.413      868.322
10/26/2013  06:56:00      -44.348      -10.097        8.532       35.775       20.733       17.598     1279.876      429.860      309.701        0.208        0.101       45.483       20.438        0.202      333.722        3.223      868.321
10/26/2013  06:57:00      -64.042      -13.018        1.187       31.063       17.376       13.697      964.881      301.934      187.618        0.286        0.073       65.351       15.297        0.055      333.742        3.257      868.327
10/26/2013  06:58:00      -91.124      -24.987       -5.808       18.227       16.234       11.150      332.238      263.554      124.322        0.484        0.036       94.487        9.369        0.010      333.937        3.580      868.336
10/26/2013  06:59:00      -73.276      -38.277        0.860       12.427       12.800        9.868      154.425      163.842       97.371        0.363        0.021       82.671        4.146        0.003      333.797        3.347      868.352
10/26/2013  07:00:00      -82.163      -41.274       -5.723       15.805       18.289       11.182      249.797      334.470      125.032        0.460        0.035       91.948        7.911        0.007      333.718        3.216      868.366
10/26/2013  07:01:00     -105.627      -27.074       -8.511       14.555       12.386        8.448      211.848      153.422       71.370        0.620        0.022      109.041        7.882        0.005      333.715        3.211      868.373
10/26/2013  07:02:00     -107.596      -25.748      -12.237       17.084       16.154       15.553      291.860      260.946      241.889        0.659        0.040      110.634       10.537        0.009      333.630        3.070      868.378
10/26/2013  07:03:00     -114.711      -18.438      -15.968       27.064       14.596       15.564      732.486      213.034      242.248        0.747        0.059      116.183       16.068        0.019      333.614        3.043      868.390
10/26/2013  07:04:00     -108.390      -20.181      -12.544       15.868       13.349       12.557      251.798      178.183      157.688        0.645        0.029      110.252       10.826        0.010      333.631        3.071      868.395
10/26/2013  07:05:00      -86.622      -25.246      -10.811       21.296       17.989       14.055      453.508      323.591      197.549        0.462        0.049       90.226       11.300        0.016      333.650        3.103      868.397
10/26/2013  07:06:00     -108.067      -11.948      -13.890       13.804       11.539       11.686      190.542      133.147      136.565        0.624        0.023      108.725        9.917        0.008      333.542        2.925      868.406
10/26/2013  07:07:00      -96.174       -6.142      -14.617       13.358       11.098       11.712      178.435      123.163      137.162        0.497        0.022       96.370        7.103        0.005      333.545        2.929      868.427
10/26/2013  07:08:00      -84.088       -7.015      -12.323       13.717       11.818        9.662      188.164      139.664       93.347        0.385        0.021       84.380        5.491        0.004      333.550        2.936      868.454
10/26/2013  07:09:00      -92.202      -12.398      -11.937       10.711       14.421       11.805      114.720      207.953      139.352        0.463        0.023       93.032        8.846        0.009      333.537        2.915      868.469
10/26/2013  07:10:00      -77.233      -14.766      -11.371        8.152       10.733        8.110       66.450      115.196       65.779        0.328        0.012       78.632        5.179        0.004      333.531        2.907      868.489
10/26/2013  07:11:00      -56.865      -21.280       -9.807       11.489       11.783        8.280      131.998      138.834       68.557        0.206        0.017       60.716        6.646        0.012      333.576        2.981      868.508
10/26/2013  07:12:00      -74.589      -22.245      -12.997       11.009       12.035        8.003      121.204      144.836       64.052        0.328        0.017       77.836        4.749        0.004      333.559        2.953      868.519
10/26/2013  07:13:00      -87.529      -15.916      -11.491       16.103       13.957       10.024      259.321      194.805      100.479        0.430        0.028       88.964        6.594        0.005      333.591        3.006      868.534
10/26/2013  07:14:00      -76.267      -42.496      -16.269        9.010        8.267        8.067       81.186       68.344       65.083        0.405        0.011       87.307        4.399        0.003      333.594        3.011      868.555
10/26/2013  07:15:00      -94.159      -43.982      -16.630       15.194       12.138        7.003      230.844      147.321       49.042        0.575        0.021      103.925        3.827        0.001      333.552        2.942      868.558
10/26/2013  07:16:00      -89.386      -41.278      -19.669        9.783        6.914        6.500       95.714       47.797       42.251        0.513        0.009       98.456        1.475        0.000      333.521        2.890      868.566
10/26/2013  07:17:00      -99.325      -31.643      -18.291       13.396       14.610        8.811      179.463      213.465       77.640        0.584        0.024      104.244        3.957        0.001      333.614        3.045      868.570
10/26/2013  07:18:00     -110.156      -41.382      -15.272       10.467       13.959        9.043      109.555      194.841       81.772        0.723        0.019      117.673        2.719        0.001      333.685        3.161      868.582
10/26/2013  07:19:00     -105.679      -20.936      -16.562       13.340        9.798       10.155      177.946       96.005      103.123        0.613        0.019      107.733        5.344        0.002      333.686        3.163      868.593
10/26/2013  07:20:00     -103.842      -21.940      -19.597        6.443       10.456        6.946       41.509      109.338       48.241        0.592        0.010      106.134        2.257        0.000      333.707        3.198      868.602
10/26/2013  07:21:00      -79.463      -21.077       -8.424       18.586       16.541       15.071      345.436      273.614      227.129        0.384        0.042       82.211       13.457        0.027      333.695        3.177      868.613
10/26/2013  07:22:00     -113.671      -11.678      -14.397       15.342       11.371       12.421      235.362      129.292      154.292        0.689        0.026      114.270       10.521        0.008      333.654        3.109      868.613
10/26/2013  07:23:00     -106.213      -32.668      -14.230       19.154       14.485       11.421      366.892      209.812      130.450        0.663        0.035      111.124        3.846        0.001      333.592        3.007      868.624
10/26/2013  07:24:00     -118.943      -32.848      -13.694       21.781       18.796       14.632      474.403      353.294      214.085        0.823        0.052      123.395       11.744        0.009      333.584        2.994      868.640
10/26/2013  07:25:00      -97.925      -34.160       -7.740       17.739       20.318       14.562      314.656      412.802      212.063        0.588        0.047      103.712        7.652        0.005      333.571        2.973      868.651
10/26/2013  07:26:00      -96.489      -32.406      -16.317       15.098       13.925       13.685      227.952      193.900      187.289        0.562        0.030      101.785        6.001        0.003      333.583        2.993      868.657
10/26/2013  07:27:00      -88.963      -39.448      -13.528       24.790       14.466       11.041      614.523      209.267      121.903        0.530        0.047       97.317        9.161        0.009      333.534        2.912      868.668
10/26/2013  07:28:00      -69.559      -50.969       -9.692       18.490       23.219       14.427      341.887      539.109      208.144        0.431        0.054       86.234        8.518        0.010      333.590        3.003      868.665
10/26/2013  07:29:00      -64.747      -46.407       -3.307       23.452       28.167       19.931      550.019      793.381      397.249        0.405        0.087       79.660       16.559        0.043      333.547        2.932      868.658
10/26/2013  07:30:00      -95.614      -52.515      -11.575       26.117       16.177       17.989      682.086      261.688      323.622        0.665        0.063      109.087       16.363        0.023      333.533        2.910      868.662
10/26/2013  07:31:00      -73.562      -47.271      -12.524       36.075       17.866       17.183     1301.412      319.180      295.249        0.486        0.096       87.441       12.628        0.021      333.575        2.981      868.658
10/26/2013  07:32:00      -69.308      -34.066       -3.205       17.688       14.791       13.880      312.882      218.759      192.661        0.335        0.036       77.227        7.271        0.009      333.652        3.107      868.659
10/26/2013  07:33:00      -86.592      -26.291      -11.202       15.740       21.642       12.289      247.742      468.374      151.016        0.459        0.043       90.495        2.933        0.001      333.605        3.030      868.660
10/26/2013  07:34:00      -78.302      -51.913       -5.438       15.138       19.420       15.536      229.157      377.123      241.352        0.485        0.042       93.947       10.973        0.014      333.618        3.050      868.659
10/26/2013  07:35:00      -92.888      -37.450       -6.653       12.927       20.172       15.204      167.095      406.922      231.171        0.544        0.040      100.154       10.935        0.012      333.674        3.144      868.653
10/26/2013  07:36:00     -112.166      -48.383      -20.356       11.843       10.782        9.265      140.255      116.255       85.835        0.784        0.017      122.156        2.806        0.001      333.589        3.002      868.651
10/26/2013  07:37:00      -98.766      -46.448       -7.465       18.780       21.449       14.405      352.693      460.046      207.500        0.649        0.051      109.142       11.126        0.010      333.569        2.969      868.651
10/26/2013  07:38:00      -93.960      -24.689       -4.900       19.568       27.640       15.746      382.914      763.976      247.943        0.543        0.070       97.149       13.355        0.019      333.517        2.882      868.652
10/26/2013  07:39:00     -117.122      -14.238      -12.372       34.744       20.070       16.397     1207.134      402.809      268.853        0.798        0.094      117.984       18.362        0.024      333.641        3.087      868.649
10/26/2013  07:40:00     -105.750       -0.180       -1.304       41.597       33.288       28.883     1730.327     1108.068      834.207        0.743        0.184      105.750       24.987        0.056      333.677        3.150      868.658
10/26/2013  07:41:00      -88.068       -5.384        5.428       52.105       41.009       26.266     2714.944     1681.766      689.895        0.645        0.254       88.233       27.673        0.098      333.681        3.156      868.668
10/26/2013  07:42:00      -93.445      -21.353       -0.248       45.460       47.867       21.556     2066.630     2291.260      464.650        0.700        0.241       95.853       21.110        0.049      333.633        3.076      868.681
10/26/2013  07:43:00     -109.793      -23.958       -2.860       43.438       40.942       24.998     1886.847     1676.271      624.924        0.841        0.209      112.377       20.954        0.035      333.717        3.214      868.697
10/26/2013  07:44:00     -123.335      -17.726       -8.392       38.421       29.985       21.472     1476.208      899.079      461.045        0.922        0.142      124.602       20.545        0.027      333.638        3.083      868.714
10/26/2013  07:45:00      -92.328      -16.365       -1.757       36.635       31.514       24.265     1342.102      993.120      588.797        0.586        0.146       93.767       21.116        0.051      333.635        3.080      868.722
10/26/2013  07:46:00     -103.748       -8.316       -7.303       43.979       28.934       21.305     1934.152      837.196      453.918        0.706        0.161      104.081       24.739        0.056      333.712        3.206      868.732
10/26/2013  07:47:00     -109.473      -20.719       -8.906       24.679       26.544       18.612      609.054      704.605      346.406        0.708        0.083      111.416       12.095        0.012      333.740        3.253      868.742
10/26/2013  07:48:00     -126.697        2.653      -11.967       28.739       22.125       21.770      825.942      489.510      473.931        0.900        0.089      126.725       15.192        0.014      333.759        3.285      868.753
10/26/2013  07:49:00     -130.966      -19.958      -12.475       19.877       25.361       14.548      395.077      643.164      211.652        0.948        0.062      132.478       11.625        0.008      333.801        3.353      868.753
10/26/2013  07:50:00     -119.325      -17.600      -12.703       30.679       20.296       21.262      941.200      411.927      452.080        0.826        0.090      120.616       22.355        0.034      333.811        3.370      868.758
10/26/2013  07:51:00     -111.223      -14.830       -5.852       26.723       25.314       21.206      714.114      640.791      449.679        0.721        0.090      112.208       17.535        0.024      333.823        3.390      868.771
10/26/2013  07:52:00     -106.056      -18.372        0.015       26.807       22.597       18.836      718.638      510.626      354.776        0.658        0.079      107.635       16.155        0.023      333.883        3.491      868.780
10/26/2013  07:53:00      -90.532      -33.714       -2.105       23.710       17.056       11.746      562.142      290.922      137.977        0.516        0.050       96.606       10.354        0.011      333.975        3.644      868.792
10/26/2013  07:54:00      -93.105      -37.829       -1.536       14.348       14.897        9.548      205.873      221.918       91.160        0.531        0.026      100.497        6.554        0.004      334.035        3.742      868.805
10/26/2013  07:55:00      -32.687      -24.878       13.564       37.655       21.517       15.883     1417.897      462.990      252.285        0.200        0.107       41.077       17.458        0.181      334.062        3.787      868.814
10/26/2013  07:56:00      -65.893      -62.296        2.287       28.522       24.412       18.588      813.480      595.929      345.520        0.499        0.088       90.679       15.241        0.028      334.185        3.991      868.816
10/26/2013  07:57:00      -84.948      -69.471       -3.878       27.440       28.455       16.179      752.980      809.707      261.748        0.694        0.091      109.738       15.128        0.019      334.314        4.206      868.815
10/26/2013  07:58:00      -77.630      -63.538       -8.939       21.185       23.316       15.203      448.801      543.649      231.130        0.568        0.061      100.317       11.028        0.012      334.368        4.296      868.815
10/26/2013  07:59:00      -61.009      -55.693      -11.383       24.233       17.119       10.876      587.257      293.068      118.281        0.398        0.050       82.606        9.211        0.012      334.373        4.302      868.816
10/26/2013  08:00:00      -42.012      -33.307       -1.724       26.355       17.555       10.847      694.589      308.162      117.649        0.200        0.056       53.614        8.884        0.027      334.315        4.207      868.830
10/26/2013  08:01:00      -48.855      -40.252       -0.207       25.661       22.348       14.259      658.487      499.424      203.328        0.268        0.068       63.301       12.184        0.037      334.406        4.359      868.838
10/26/2013  08:02:00      -74.258      -60.702       -3.032       20.864       17.727       11.889      435.315      314.242      141.351        0.505        0.045       95.911        9.760        0.010      334.471        4.466      868.849
10/26/2013  08:03:00      -78.971      -58.478       -1.509       14.479       17.634       10.494      209.651      310.967      110.128        0.514        0.032       98.266        7.803        0.006      334.496        4.508      868.851
10/26/2013  08:04:00      -62.836      -42.574       -3.144       23.842       16.146       13.096      568.440      260.679      171.505        0.339        0.050       75.900       10.772        0.020      334.490        4.497      868.868
10/26/2013  08:05:00      -59.084      -43.421       -4.070       13.164       12.348        8.967      173.291      152.465       80.414        0.290        0.020       73.323        5.334        0.005      334.599        4.679      868.875
10/26/2013  08:06:00      -54.040      -38.025       -1.608       16.789       12.005       10.887      281.857      144.126      118.533        0.246        0.027       66.078        5.220        0.006      334.611        4.698      868.883
10/26/2013  08:07:00      -42.153      -33.500       -2.041       17.077       14.633       13.449      291.617      214.139      180.885        0.179        0.034       53.844        8.031        0.022      334.643        4.752      868.897
10/26/2013  08:08:00      -26.732      -18.915        0.985       27.797       13.190       10.336      772.665      173.986      106.823        0.106        0.053       32.747       10.082        0.095      334.676        4.806      868.900
10/26/2013  08:09:00      -56.489      -24.246      -10.645       14.443        6.934        5.802      208.592       48.078       33.659        0.209        0.015       61.472        4.107        0.004      334.685        4.819      868.919
10/26/2013  08:10:00      -33.193      -19.944       -7.056       11.864        5.922        7.118      140.751       35.075       50.668        0.089        0.011       38.724        4.919        0.016      334.749        4.928      868.919
10/26/2013  08:11:00      -28.859      -14.752       -8.826        7.643        6.230        5.589       58.408       38.808       31.233        0.063        0.006       32.411        3.317        0.010      334.829        5.059      868.932
10/26/2013  08:12:00      -24.194      -12.904       -6.881        9.548        7.092        4.356       91.173       50.293       18.978        0.048        0.008       27.420        3.512        0.016      334.878        5.141      868.948
10/26/2013  08:13:00      -32.107       -3.254       -6.988        5.534        5.714        3.213       30.625       32.649       10.326        0.058        0.004       32.271        1.870        0.003      334.864        5.117      868.942
10/26/2013  08:14:00      -37.974       -8.188       -7.500        9.275        7.225        5.757       86.035       52.205       33.148        0.087        0.009       38.847        3.798        0.010      334.867        5.123      868.942
10/26/2013  08:15:00      -44.902      -12.000       -3.873       10.021        8.150        5.519      100.427       66.416       30.455        0.119        0.010       46.477        4.320        0.009      334.907        5.189      868.951
10/26/2013  08:16:00      -48.431      -12.395       -3.228        7.651        7.097        5.109       58.544       50.372       26.100        0.132        0.007       49.992        2.444        0.002      334.952        5.264      868.963
10/26/2013  08:17:00      -46.460       -6.831       -4.298        6.585        7.138        4.957       43.366       50.954       24.572        0.117        0.006       46.960        3.179        0.005      334.961        5.279      868.970
10/26/2013  08:18:00      -38.848       -7.373       -4.509        5.129        6.139        3.745       26.304       37.693       14.023        0.083        0.004       39.541        2.171        0.003      335.007        5.355      868.981
10/26/2013  08:19:00      -28.432      -12.103       -0.061        6.495        6.267        4.572       42.191       39.279       20.901        0.053        0.005       30.901        4.188        0.018      335.090        5.494      868.992
10/26/2013  08:20:00      -35.779       -8.743       -1.767        7.531        5.329        2.281       56.713       28.396        5.205        0.072        0.005       36.832        1.930        0.003      335.066        5.453      868.998
10/26/2013  08:21:00      -23.796      -13.457       -2.202        3.386        4.478        3.011       11.464       20.053        9.068        0.040        0.002       27.338        1.236        0.002      335.179        5.641      869.002
10/26/2013  08:22:00      -24.383       -9.004       -0.919        3.815        4.337        2.877       14.557       18.809        8.279        0.036        0.002       25.992        1.824        0.005      335.207        5.687      869.019
10/26/2013  08:23:00      -22.756       -5.720       -1.269        4.650        4.140        3.237       21.626       17.142       10.477        0.030        0.002       23.464        1.430        0.004      335.258        5.773      869.029
10/26/2013  08:24:00      -27.009       -1.143       -1.063        4.828        4.839        3.093       23.310       23.414        9.564        0.039        0.003       27.033        1.553        0.003      335.303        5.846      869.027
10/26/2013  08:25:00      -14.983       -6.518       -1.035        5.290        3.585        2.942       27.981       12.855        8.655        0.016        0.002       16.339        0.817        0.003      335.457        6.103      869.030
10/26/2013  08:26:00       -7.110       -0.773        3.942        4.795        4.860        5.205       22.996       23.617       27.095        0.007        0.004        7.151        3.278        0.210      335.690        6.491      869.038
10/26/2013  08:27:00       -0.854       13.760       13.444        6.744       12.074        9.749       45.488      145.784       95.047        0.033        0.014       13.787        4.693        0.116      335.831        6.727      869.047
10/26/2013  08:28:00       -9.007       -0.368       14.902        5.885       11.722        7.713       34.634      137.398       59.493        0.027        0.012        9.015        2.725        0.091      335.941        6.910      869.053
10/26/2013  08:29:00      -11.861       -2.739        0.826        5.662        4.329        4.221       32.058       18.736       17.815        0.011        0.003       12.174        2.467        0.041      335.642        6.411      869.061
10/26/2013  08:30:00      -12.135       -0.087        2.631        5.379        4.513        5.904       28.937       20.371       34.855        0.012        0.004       12.136        3.909        0.104      335.728        6.556      869.064
10/26/2013  08:31:00      -12.693        1.839        3.200        6.435        4.721        4.256       41.409       22.286       18.114        0.013        0.004       12.825        3.625        0.080      335.754        6.599      869.076
10/26/2013  08:32:00      -11.140       -1.621        1.678        5.669        3.532        3.243       32.133       12.476       10.519        0.009        0.003       11.258        1.307        0.013      335.772        6.628      869.089
10/26/2013  08:33:00      -10.973       11.890       33.220        8.115       14.127       15.435       65.856      199.583      238.233        0.093        0.025       16.179       11.094        0.470      336.238        7.403      869.095
10/26/2013  08:34:00      -10.079       17.166       32.227        7.243       11.540       11.672       52.458      133.183      136.226        0.088        0.016       19.907        4.184        0.044      336.127        7.221      869.100
10/26/2013  08:35:00      -40.717        1.642        0.051       17.115       13.801        7.599      292.921      190.480       57.737        0.110        0.027       40.750        3.417        0.007      335.629        6.392      869.102
10/26/2013  08:36:00      -64.620      -10.523       -5.997       12.647       14.249        9.339      159.949      203.024       87.225        0.239        0.023       65.472        7.966        0.015      335.581        6.311      869.107
10/26/2013  08:37:00      -54.919      -54.439       -9.192       12.856       19.349        8.601      165.275      374.390       73.982        0.334        0.031       77.329        7.885        0.010      335.530        6.225      869.105
10/26/2013  08:38:00      -62.002      -60.864      -11.314       24.562       19.179       10.180      603.284      367.820      103.642        0.438        0.054       86.883        6.930        0.006      335.571        6.292      869.109
10/26/2013  08:39:00      -70.911      -40.456      -12.388       19.628       20.148       13.275      385.268      405.954      176.229        0.389        0.048       81.640        8.203        0.010      335.622        6.380      869.114
10/26/2013  08:40:00      -47.420      -26.108       -9.266       27.791       13.945       11.290      772.318      194.468      127.471        0.206        0.055       54.133        8.757        0.026      335.674        6.465      869.114
10/26/2013  08:41:00      -10.878       22.161       25.969       11.146       17.660       12.257      124.239      311.892      150.229        0.093        0.029       24.687        6.891        0.078      336.151        7.260      869.126
10/26/2013  08:42:00      -15.946       21.277       24.478       21.130       14.784       14.378      446.459      218.578      206.735        0.109        0.044       26.589        7.712        0.084      336.131        7.227      869.133
10/26/2013  08:43:00       -7.868        1.659        5.014       13.374       21.132       17.365      178.852      446.544      301.530        0.051        0.046        8.041       14.204        3.120      336.125        7.218      869.135
10/26/2013  08:44:00      -20.279      -18.380       -3.225       18.887       13.671       14.405      356.713      186.909      207.502        0.076        0.038       27.369        7.157        0.068      335.878        6.805      869.142
10/26/2013  08:45:00      -30.733      -24.609       -6.032       21.534       23.596       20.757      463.697      556.756      430.842        0.152        0.073       39.371       16.590        0.178      335.851        6.760      869.144
10/26/2013  08:46:00      -35.204      -54.514      -10.182       53.867       37.664       19.582     2901.701     1418.598      383.441        0.451        0.235       64.892       19.792        0.093      335.855        6.766      869.153
10/26/2013  08:47:00      -30.490      -24.075        2.112       32.585       29.622       19.715     1061.766      877.475      388.669        0.192        0.116       38.849       12.430        0.102      335.917        6.870      869.159
10/26/2013  08:48:00      -15.609      -12.172        4.125       25.295       16.323       17.301      639.822      266.449      299.319        0.081        0.060       19.794       17.283        0.762      336.119        7.207      869.167
10/26/2013  08:49:00      -50.334       -4.838        0.503       26.983       13.477       16.171      728.087      181.624      261.492        0.186        0.059       50.566       18.095        0.128      335.952        6.929      869.169
10/26/2013  08:50:00      -67.027      -16.289      -12.849       31.159       15.290       14.417      970.858      233.776      207.850        0.317        0.071       68.978       13.023        0.036      335.874        6.798      869.169
10/26/2013  08:51:00      -11.275       -9.004        8.359       26.693       18.995       15.021      712.492      360.811      225.615        0.079        0.065       14.430       15.241        1.116      336.309        7.525      869.165
10/26/2013  08:52:00      -21.836      -13.200        7.163       28.782       15.843       15.434      828.395      251.008      238.218        0.101        0.066       25.515       15.731        0.380      336.441        7.745      869.168
10/26/2013  08:53:00      -28.295      -16.072        6.110       25.197       14.808       12.711      634.869      219.279      161.568        0.106        0.051       32.541        7.059        0.047      336.212        7.363      869.178
10/26/2013  08:54:00      -30.520      -12.972       -2.765        9.443        9.469        7.459       89.179       89.662       55.639        0.067        0.012       33.163        2.131        0.004      336.121        7.209      869.188
10/26/2013  08:55:00       -4.877        8.488       17.777       10.045       10.539       14.429      100.909      111.070      208.185        0.042        0.021        9.790        6.883        0.494      336.753        8.267      869.201
10/26/2013  08:56:00      -28.553       -0.699        4.211       14.139        7.355       11.974      199.915       54.096      143.377        0.062        0.020       28.562       11.910        0.174      336.306        7.520      869.212
10/26/2013  08:57:00      -15.080       -4.954       10.602       13.940       12.167       13.301      194.317      148.036      176.906        0.044        0.026       15.873        9.884        0.388      336.590        7.993      869.215
10/26/2013  08:58:00      -13.381       15.380        3.274       20.184       12.868       21.026      407.404      165.595      442.110        0.072        0.051       20.386       11.457        0.316      336.601        8.013      869.218
10/26/2013  08:59:00       -0.085       33.801       44.370       21.685       23.369       13.154      470.223      546.101      173.023        0.215        0.059       33.801       11.457        0.115      336.774        8.301      869.225
10/26/2013  09:00:00       14.686       26.788       43.885       20.541       19.009       18.046      421.952      361.350      325.664        0.198        0.055       30.550        6.901        0.051      336.765        8.287      869.239
10/26/2013  09:01:00       -2.822       25.272       49.877       17.166       24.606       17.039      294.676      605.434      290.335        0.216        0.060       25.429       14.809        0.339      336.998        8.676      869.244
10/26/2013  09:02:00      -25.438       -4.077       39.533       29.616       46.310       31.552      877.107     2144.615      995.513        0.312        0.201       25.763       34.862        1.831      336.799        8.345      869.253
10/26/2013  09:03:00       15.057       -2.167       23.760       31.489       24.049       26.610      991.578      578.357      708.071        0.154        0.114       15.212       26.315        2.992      336.925        8.553      869.254
10/26/2013  09:04:00       24.044       26.670       41.356       24.171       27.207       30.760      584.248      740.225      946.190        0.263        0.114       35.908       20.813        0.336      336.890        8.496      869.248
10/26/2013  09:05:00        0.174       30.376       58.751       22.570       27.717       17.010      509.409      768.229      289.351        0.297        0.078       30.377       16.161        0.283      336.945        8.586      869.254
10/26/2013  09:06:00        2.996       31.466       52.557       14.430       23.062       12.339      208.234      531.877      152.239        0.233        0.045       31.609       12.771        0.163      336.795        8.336      869.250
10/26/2013  09:07:00       -5.837       18.766       48.392       10.496       22.547       17.905      110.165      508.370      320.572        0.183        0.047       19.653       16.068        0.668      337.081        8.815      869.256
10/26/2013  09:08:00        0.324       26.742       44.017       13.690       24.093       14.647      187.410      580.489      214.541        0.182        0.049       26.744       13.146        0.242      337.043        8.751      869.260
10/26/2013  09:09:00       -9.379       11.353       35.165       13.639       17.297        9.630      186.010      299.199       92.733        0.102        0.029       14.726        8.412        0.326      337.169        8.963      869.261
10/26/2013  09:10:00       -8.752       22.775       52.295       11.985       24.531       18.124      143.652      601.750      328.492        0.220        0.054       24.399       17.504        0.515      337.127        8.891      869.262
10/26/2013  09:11:00        1.759       35.455       56.133       17.248       24.368       13.508      297.488      593.800      182.469        0.274        0.054       35.499       13.274        0.140      336.911        8.532      869.258
10/26/2013  09:12:00       28.757       45.037       46.833       30.186       19.023       15.550      911.203      361.879      241.810        0.328        0.076       53.435       16.796        0.099      336.778        8.309      869.256
10/26/2013  09:13:00       53.230       43.933       18.390       19.549       10.575       14.027      382.182      111.833      196.761        0.290        0.035       69.018        8.290        0.014      336.672        8.131      869.257
10/26/2013  09:14:00       32.534       18.818       21.416       31.012       20.921       22.887      961.736      437.675      523.806        0.190        0.096       37.584       19.258        0.263      337.179        8.980      869.258
10/26/2013  09:15:00       10.280       35.062       47.255       27.906       23.818       21.427      778.764      567.287      459.127        0.269        0.090       36.538       13.512        0.137      337.234        9.070      869.277
10/26/2013  09:16:00       71.054       64.282       43.531       33.226       24.855       19.356     1103.939      617.757      374.667        0.659        0.105       95.816       13.888        0.021      336.774        8.303      869.283
10/26/2013  09:17:00       63.496       62.659       44.609       39.668       34.778       30.696     1573.572     1209.515      942.229        0.684        0.186       89.207       25.522        0.082      336.946        8.587      869.295
10/26/2013  09:18:00       72.970       52.250       42.152       32.913       29.745       28.695     1083.290      884.757      823.431        0.631        0.140       89.748       27.434        0.093      336.909        8.527      869.301
10/26/2013  09:19:00       23.002       21.284       37.765       33.007       37.491       26.570     1089.439     1405.580      705.948        0.280        0.160       31.339       20.869        0.443      337.333        9.236      869.304
10/26/2013  09:20:00       39.673       69.185       59.399       33.082       25.927       23.450     1094.409      672.184      549.908        0.610        0.116       79.753       16.622        0.043      337.045        8.754      869.311
10/26/2013  09:21:00       61.899       48.959       19.651       19.620       16.447       22.433      384.934      270.490      503.219        0.389        0.058       78.920       10.012        0.016      336.789        8.328      869.319
10/26/2013  09:22:00       40.126       27.601        9.448       30.947       23.705       22.342      957.724      561.938      499.165        0.224        0.101       48.702       19.893        0.167      337.122        8.884      869.320
10/26/2013  09:23:00        7.641       17.471       30.430       30.999       31.562       22.793      960.969      996.164      519.535        0.188        0.124       19.069       21.430        1.263      337.763        9.956      869.324
10/26/2013  09:24:00        0.474       49.309       58.631       20.954       31.864       20.666      439.073     1015.345      427.081        0.388        0.094       49.311       12.867        0.068      337.729        9.902      869.329
10/26/2013  09:25:00       17.535       60.098       65.556       29.089       21.417       12.950      846.196      458.696      167.690        0.484        0.074       62.603        7.879        0.016      337.301        9.182      869.330
10/26/2013  09:26:00        7.008       -4.078       50.284       25.418       41.878       23.374      646.099     1753.754      546.338        0.277        0.147        8.108       18.659        5.296      337.708        9.865      869.331
10/26/2013  09:27:00       34.126       44.676       57.461       32.469       32.128       25.716     1054.228     1032.200      661.336        0.460        0.137       56.219       19.016        0.114      337.374        9.305      869.333
10/26/2013  09:28:00       12.389       61.857       68.211       30.513       61.098       36.499      931.023     3732.912     1332.149        0.731        0.300       63.085       31.968        0.257      337.429        9.398      869.327
10/26/2013  09:29:00      111.915       86.568       23.199       38.309       28.901       37.519     1467.606      835.255     1407.666        1.213        0.186      141.489       18.355        0.017      337.101        8.847      869.324
10/26/2013  09:30:00       99.952       81.558       19.309       22.614       22.190       26.477      511.409      492.409      701.027        0.936        0.085      129.005        8.180        0.004      336.913        8.534      869.329
10/26/2013  09:31:00       43.541       56.516       -6.244       41.485       27.588       26.998     1720.966      761.100      728.883        0.417        0.161       71.343       20.840        0.085      337.307        9.192      869.328
10/26/2013  09:32:00       73.219       54.378        1.675       38.830       24.608       22.683     1507.801      605.558      514.514        0.547        0.131       91.203       15.224        0.028      337.282        9.149      869.333
10/26/2013  09:33:00        7.045       46.818        2.325       28.095       34.028       25.988      789.322     1157.934      675.391        0.243        0.131       47.345       25.870        0.299      337.579        9.649      869.337
10/26/2013  09:34:00       34.219       43.624        0.984       37.402       29.457       23.231     1398.903      867.702      539.661        0.294        0.140       55.444       11.345        0.042      337.571        9.635      869.336
10/26/2013  09:35:00       70.419       73.789       24.952       25.372       35.219       33.009      643.750     1240.345     1089.601        0.700        0.149      101.998       18.400        0.033      337.303        9.186      869.336
10/26/2013  09:36:00       18.730       54.333       55.669       36.617       32.114       31.089     1340.807     1031.316      966.531        0.487        0.167       57.470       26.211        0.208      337.741        9.919      869.342
10/26/2013  09:37:00       36.706       39.840       27.578       50.278       26.121       28.238     2527.840      682.324      797.370        0.385        0.200       54.171       21.027        0.151      337.753        9.940      869.346
10/26/2013  09:38:00       45.030       57.714       51.927       40.801       32.572       34.410     1664.737     1060.931     1184.035        0.598        0.195       73.203       23.088        0.099      337.717        9.879      869.347
10/26/2013  09:39:00       93.485       82.534       50.338       44.798       25.176       35.287     2006.894      633.820     1245.194        1.098        0.194      124.705       29.345        0.055      337.310        9.198      869.349
10/26/2013  09:40:00      100.929       64.857       20.248       24.199       19.394       25.408      585.601      376.131      645.543        0.820        0.080      119.971       10.878        0.008      337.253        9.102      869.343
10/26/2013  09:41:00       52.858       64.775       37.350       27.394       13.677       18.688      750.407      187.070      349.247        0.484        0.064       83.605       11.347        0.018      337.306        9.191      869.351
10/26/2013  09:42:00       44.545       37.655        9.167       25.408       18.724       26.700      645.576      350.579      712.886        0.260        0.085       58.328       15.225        0.068      337.494        9.505      869.351
10/26/2013  09:43:00       11.276        3.427       14.562       18.858       36.380       27.007      355.614     1323.511      729.384        0.138        0.120       11.786       16.487        1.957      337.796       10.011      869.345
10/26/2013  09:44:00       53.917       36.155        1.438       22.165       25.036       29.688      491.299      626.779      881.394        0.311        0.100       64.918       14.464        0.050      337.643        9.755      869.342
10/26/2013  09:45:00       42.949       -5.394       15.178       31.012       44.754       31.170      961.743     2002.926      971.591        0.302        0.197       43.286       26.400        0.372      337.927       10.233      869.343
10/26/2013  09:46:00        5.924      -22.835       -7.279       26.156       47.387       18.606      684.147     2245.524      346.184        0.194        0.164       23.591       10.742        0.207      337.720        9.885      869.338
10/26/2013  09:47:00        2.563       19.166       51.051       25.537       72.406       36.195      652.155     5242.627     1310.065        0.509        0.360       19.337       37.540        3.769      338.151       10.608      869.332
10/26/2013  09:48:00       85.468       55.776       44.708       54.874       45.737       46.390     3011.159     2091.839     2152.017        0.983        0.363      102.057       46.655        0.209      337.633        9.740      869.325
10/26/2013  09:49:00       70.005       45.130       22.752       31.939       33.168       39.270     1020.108     1100.089     1542.146        0.556        0.183       83.292       20.430        0.060      337.796       10.012      869.319
10/26/2013  09:50:00       47.097       62.610       24.380       33.775       31.689       37.679     1140.740     1004.165     1419.738        0.515        0.178       78.346       20.065        0.066      337.890       10.169      869.319
10/26/2013  09:51:00       12.464       22.412       59.533       28.703       79.004       31.766      823.881     6241.640     1009.096        0.614        0.404       25.645       44.021        2.947      338.104       10.529      869.316
10/26/2013  09:52:00       59.428      -71.159       -1.152       28.350       46.761       29.818      803.711     2186.616      889.109        0.624        0.194       92.711       28.956        0.098      337.956       10.282      869.315
10/26/2013  09:53:00       53.866       15.478       17.656       29.480       35.633       34.448      869.049     1269.710     1186.674        0.339        0.166       56.045       20.083        0.128      337.941       10.256      869.307
10/26/2013  09:54:00       80.814       77.227       57.583       42.233       38.543       42.197     1783.664     1485.586     1780.572        1.043        0.252      111.780       33.893        0.092      337.911       10.206      869.298
10/26/2013  09:55:00       63.236       69.096       54.400       35.519       24.970       32.866     1261.606      623.521     1080.164        0.735        0.148       93.664       23.881        0.065      337.923       10.225      869.287
10/26/2013  09:56:00       57.067       52.937       43.096       37.009       27.282       28.075     1369.639      744.303      788.230        0.541        0.145       77.840       15.936        0.042      338.043       10.427      869.276
10/26/2013  09:57:00       47.276       36.975        7.417       37.346       33.875       39.562     1394.737     1147.494     1565.187        0.388        0.205       60.018       23.099        0.148      338.106       10.531      869.270
10/26/2013  09:58:00       89.114       76.211       13.727       35.876       27.692       30.983     1287.056      766.857      959.960        0.848        0.151      117.258       18.728        0.026      337.892       10.173      869.261
10/26/2013  09:59:00       31.320       45.469       39.715       36.341       30.394       36.339     1320.652      923.773     1320.496        0.409        0.178       55.212       25.857        0.219      338.398       11.022      869.260
10/26/2013  10:00:00        1.520       24.355       71.151       30.973       41.979       25.482      959.324     1762.202      649.337        0.451        0.169       24.402       26.666        1.194      338.626       11.406      869.254
10/26/2013  10:01:00       -3.763       30.189       68.438       20.645       34.742       28.567      426.221     1207.001      816.098        0.403        0.122       30.422       20.710        0.463      338.436       11.087      869.258
10/26/2013  10:02:00        6.040       21.350       52.711       23.749       33.369       21.460      564.011     1113.473      460.544        0.270        0.107       22.188       22.842        1.060      338.659       11.461      869.261
10/26/2013  10:03:00       58.699       61.469       45.565       39.217       27.000       29.787     1537.984      728.992      887.236        0.623        0.158       84.994       21.362        0.063      338.374       10.983      869.251
10/26/2013  10:04:00       19.247       44.973       57.747       26.834       28.816       15.762      720.078      830.390      248.433        0.376        0.090       48.919       15.359        0.099      338.558       11.291      869.241
10/26/2013  10:05:00       32.402       28.014       43.515       28.461       23.966       25.497      810.049      574.388      650.117        0.288        0.102       42.833       19.324        0.204      338.577       11.322      869.241
10/26/2013  10:06:00       38.793       81.112       79.695       32.181       41.675       19.466     1035.606     1736.815      378.940        0.879        0.158       89.912       21.377        0.057      338.495       11.186      869.234
10/26/2013  10:07:00       21.669       52.830       71.032       32.171       32.167       18.917     1034.982     1034.709      357.857        0.537        0.121       57.101       17.383        0.093      338.444       11.100      869.234
10/26/2013  10:08:00        8.459       41.116       73.015       27.624       41.510       28.465      763.086     1723.039      810.251        0.519        0.165       41.977       25.462        0.368      338.738       11.592      869.232
10/26/2013  10:09:00       -9.579       23.729       57.560       23.856       35.413       22.899      569.120     1254.115      524.370        0.316        0.117       25.590       22.073        0.744      338.959       11.967      869.227
10/26/2013  10:10:00      -14.153      -35.631       34.797       26.216       65.297       31.677      687.289     4263.699     1003.455        0.432        0.298       38.339       35.578        0.861      338.756       11.623      869.216
10/26/2013  10:11:00       -4.297       35.418       69.788       31.204       47.154       26.216      973.666     2223.474      687.299        0.501        0.194       35.677       24.825        0.484      339.063       12.141      869.204
10/26/2013  10:12:00        0.854       38.384       58.054       27.764       33.925       24.351      770.838     1150.902      592.966        0.368        0.126       38.394       19.662        0.262      339.112       12.224      869.192
10/26/2013  10:13:00       14.866      -28.672       23.469       23.558       53.764       33.808      554.973     2890.560     1142.954        0.309        0.229       32.297       32.684        1.024      338.998       12.031      869.180
10/26/2013  10:14:00       10.891       36.646       43.357       21.673       22.842       11.441      469.735      521.739      130.896        0.223        0.056       38.230       11.137        0.085      338.934       11.922      869.174
10/26/2013  10:15:00       -3.960       47.903       60.161       21.585       39.177       21.460      465.901     1534.845      460.533        0.420        0.123       48.067       23.899        0.247      339.084       12.177      869.166
10/26/2013  10:16:00       45.364       69.254       63.442       43.308       35.193       37.080     1875.572     1238.579     1374.916        0.768        0.224       82.789       27.374        0.109      338.622       11.397      869.163
10/26/2013  10:17:00       59.576       43.424       42.136       30.108       20.043       26.630      906.502      401.714      709.146        0.461        0.101       73.722       14.141        0.037      338.492       11.180      869.167
10/26/2013  10:18:00       19.080       21.035       32.306       34.480       33.492       28.676     1188.879     1121.725      822.304        0.249        0.157       28.399       27.327        0.926      338.867       11.810      869.168
10/26/2013  10:19:00       -5.037       42.268       60.700       15.557       35.239       27.299      242.013     1241.799      745.214        0.386        0.111       42.567       20.425        0.230      339.201       12.372      869.159
10/26/2013  10:20:00       13.021       36.675       42.946       35.992       31.854       19.898     1295.435     1014.696      395.937        0.303        0.135       38.918       18.022        0.214      339.250       12.456      869.167
10/26/2013  10:21:00       79.491       57.936       -0.040       34.858       35.972       30.249     1215.092     1293.973      915.032        0.655        0.171       98.364        5.848        0.004      338.638       11.427      869.153
10/26/2013  10:22:00       76.542       42.946       13.873       32.999       27.989       25.913     1088.939      783.401      671.464        0.522        0.127       87.767       10.719        0.015      338.791       11.683      869.151
10/26/2013  10:23:00       72.816       70.885       -7.439       26.251       23.806       21.529      689.121      566.732      463.496        0.605        0.086      101.621       16.394        0.026      338.590       11.345      869.141
10/26/2013  10:24:00       95.852       96.405      -15.456       42.151       31.114       28.840     1776.686      968.062      831.749        1.115        0.179      135.946       20.849        0.024      338.655       11.454      869.137
10/26/2013  10:25:00       59.003       50.136        2.050       29.892       33.249       29.666      893.507     1105.503      880.073        0.444        0.144       77.427       11.764        0.023      338.897       11.861      869.137
10/26/2013  10:26:00       86.675       73.572       13.781       44.201       35.300       32.815     1953.716     1246.122     1076.824        0.870        0.214      113.690       22.315        0.039      338.704       11.538      869.135
10/26/2013  10:27:00       21.822       33.035       15.853       34.660       38.757       24.854     1201.286     1502.077      617.713        0.257        0.166       39.592       13.819        0.122      338.963       11.972      869.117
10/26/2013  10:28:00       98.613       73.522        8.884       36.398       32.795       31.111     1324.796     1075.524      967.868        0.929        0.168      123.004       21.558        0.031      338.864       11.805      869.094
10/26/2013  10:29:00       81.902       47.091       -3.190       36.173       36.598       27.534     1308.477     1339.395      758.111        0.617        0.170       94.475       14.213        0.023      338.774       11.653      869.087
10/26/2013  10:30:00       42.944       64.775       -8.617       21.113       31.200       28.026      445.776      973.469      785.484        0.416        0.110       77.717       17.265        0.049      338.919       11.898      869.073
10/26/2013  10:31:00       69.231       41.764       10.406       25.964       22.797       23.414      674.116      519.704      548.194        0.419        0.087       80.853       12.574        0.024      338.709       11.545      869.052
10/26/2013  10:32:00       64.465       36.831        6.503       35.718       23.157       22.847     1275.797      536.232      521.971        0.394        0.117       74.245       11.924        0.026      339.164       12.310      869.039
10/26/2013  10:33:00       68.462       55.002       12.931       61.347       49.412       31.083     3763.396     2441.538      966.179        0.752        0.359       87.820       30.975        0.124      339.317       12.568      869.022
10/26/2013  10:34:00      114.920       82.546       -6.259       38.392       29.131       29.309     1473.923      848.611      859.024        1.162        0.159      141.494       10.301        0.005      338.877       11.827      869.010
10/26/2013  10:35:00       65.667       65.299       25.235       39.098       48.367       42.643     1528.675     2339.374     1818.401        0.745        0.284       92.607       26.431        0.081      339.400       12.708      869.004
10/26/2013  10:36:00       84.939       65.924       11.542       33.565       32.033       33.213     1126.635     1026.088     1103.111        0.747        0.163      107.521       24.343        0.051      339.203       12.377      869.003
10/26/2013  10:37:00       50.311       51.592       16.123       40.069       34.578       28.484     1605.496     1195.651      811.310        0.453        0.181       72.062       18.448        0.066      339.263       12.479      868.993
10/26/2013  10:38:00       81.035       45.879        8.047       25.435       25.928       32.717      646.949      672.241     1070.432        0.556        0.119       93.121       12.756        0.019      338.917       11.893      868.991
10/26/2013  10:39:00       61.789       42.058        5.056       40.242       25.274       29.185     1619.447      638.772      851.760        0.436        0.155       74.745       22.694        0.092      339.284       12.512      868.987
10/26/2013  10:40:00       26.909       50.634       29.663       39.118       41.840       26.206     1530.232     1750.614      686.740        0.407        0.198       57.340       21.229        0.137      339.651       13.129      868.970
10/26/2013  10:41:00       17.020       80.800       90.156       40.372       44.856       34.118     1629.859     2012.020     1164.040        0.988        0.240       82.573       30.613        0.137      339.616       13.073      868.964
10/26/2013  10:42:00       25.499       36.813       66.336       35.214       50.464       29.976     1240.010     2546.571      898.568        0.554        0.234       44.781       31.471        0.494      339.635       13.105      868.958
10/26/2013  10:43:00       68.921      120.974       94.020       37.886       25.538       21.305     1435.353      652.211      453.917        1.538        0.127      139.229        6.767        0.002      339.192       12.357      868.956
10/26/2013  10:44:00       71.262       73.109       56.293       37.193       25.437       27.477     1383.335      647.063      754.962        0.819        0.139      102.094       16.456        0.026      339.249       12.452      868.974
10/26/2013  10:45:00        5.663       34.219       50.254       22.375       32.868       22.895      500.657     1080.284      524.177        0.292        0.105       34.685       21.614        0.388      339.780       13.348      868.974
10/26/2013  10:46:00       29.021       30.257       54.447       36.079       39.657       32.155     1301.676     1572.694     1033.918        0.431        0.195       41.925       27.425        0.428      339.716       13.240      868.977
10/26/2013  10:47:00       25.526       33.789       41.495       28.976       33.211       26.993      839.624     1102.951      728.634        0.309        0.134       42.347       22.918        0.293      339.610       13.061      868.978
10/26/2013  10:48:00        7.827      -22.656       31.871       27.671       48.013       25.074      765.678     2305.273      628.726        0.264        0.185       23.970       26.173        1.192      339.926       13.594      868.966
10/26/2013  10:49:00       19.545       24.775       24.529       27.439       33.050       22.555      752.876     1092.291      508.731        0.198        0.118       31.556       18.040        0.327      339.967       13.665      868.960
10/26/2013  10:50:00      -18.709      -19.326       -5.713       28.809       36.300       15.789      829.954     1317.712      249.279        0.158        0.120       26.899       15.969        0.352      339.511       12.896      868.951
10/26/2013  10:51:00      -12.024       35.519       14.989       31.517       50.689       28.556      993.321     2569.370      815.466        0.300        0.219       37.499       25.864        0.476      339.824       13.422      868.940
10/26/2013  10:52:00       57.004       36.715       -0.931       37.772       30.577       30.904     1426.700      934.932      955.058        0.396        0.166       67.804       10.920        0.026      339.835       13.441      868.933
10/26/2013  10:53:00       17.382       42.614       19.204       32.573       54.875       40.431     1061.008     3011.293     1634.626        0.410        0.285       46.022       15.862        0.119      339.989       13.702      868.919
10/26/2013  10:54:00        6.101      -39.125       38.448       24.860       86.156       34.312      618.039     7422.931     1177.344        0.613        0.461       39.598       39.933        1.017      339.708       13.228      868.908
10/26/2013  10:55:00       26.782       59.192       66.494       41.859       42.468       29.303     1752.179     1803.541      858.668        0.653        0.221       64.969       29.782        0.210      339.982       13.687      868.894
10/26/2013  10:56:00       76.251       55.326       28.440       47.955       38.840       54.451     2299.715     1508.511     2964.883        0.823        0.339       94.208       36.309        0.149      339.851       13.467      868.875
10/26/2013  10:57:00      137.354       89.458       38.327       45.324       48.589       50.197     2054.234     2360.936     2519.764        1.764        0.347      163.917       25.314        0.024      339.552       12.962      868.866
10/26/2013  10:58:00       99.928       79.817       24.169       49.801       36.929       33.303     2480.096     1363.767     1109.073        1.095        0.248      127.892       26.731        0.044      339.607       13.058      868.867
10/26/2013  10:59:00       99.423       56.326        7.443       43.407       27.341       29.013     1884.144      747.553      841.725        0.829        0.174      114.269       15.289        0.018      339.602       13.048      868.854
10/26/2013  11:00:00       42.529       46.757      -12.762       46.099       43.028       22.980     2125.130     1851.366      528.084        0.433        0.225       63.206       15.299        0.059      339.892       13.536      868.846
10/26/2013  11:01:00       -3.742       -8.661        7.750       26.218       43.700       31.160      687.404     1909.667      970.946        0.186        0.178        9.435       23.611        6.263      340.259       14.157      868.837
10/26/2013  11:02:00        9.215       20.254       46.429       35.245       44.652       30.660     1242.221     1993.843      940.051        0.341        0.209       22.251       20.043        0.811      340.263       14.163      868.819
10/26/2013  11:03:00       -2.399        3.750       44.258       19.998       30.993       28.007      399.928      960.550      784.389        0.206        0.107        4.451       24.444       30.154      340.443       14.467      868.811
10/26/2013  11:04:00        5.584       23.682       72.993       28.471       51.292       31.122      810.589     2630.872      968.577        0.516        0.221       24.331       34.990        2.068      340.563       14.670      868.803
10/26/2013  11:05:00        9.718       66.019       83.944       29.193       36.889       29.462      852.226     1360.807      868.013        0.729        0.154       66.730       27.995        0.176      340.005       13.727      868.798
10/26/2013  11:06:00       13.912       30.168       64.129       34.930       43.676       51.369     1220.136     1907.566     2638.761        0.549        0.288       33.221       45.898        1.909      340.179       14.021      868.782
10/26/2013  11:07:00       68.513       75.459       73.049       59.546       68.410       49.670     3545.738     4679.912     2467.074        1.321        0.535      101.922       50.709        0.248      339.741       13.283      868.774
10/26/2013  11:08:00       -0.644       63.596       95.141       36.208       48.052       34.785     1310.994     2308.993     1209.988        0.896        0.241       63.599       31.491        0.245      340.300       14.225      868.760
10/26/2013  11:09:00       18.322       36.412       85.176       40.608       81.758       48.581     1649.041     6684.383     2360.139        0.980        0.535       40.762       59.754        2.149      340.181       14.027      868.756
10/26/2013  11:10:00       75.311       12.111       45.032       54.789       56.578       49.248     3001.801     3201.056     2425.378        0.824        0.431       76.278       46.355        0.369      339.874       13.507      868.758
10/26/2013  11:11:00       77.601       40.467       45.340       37.158       42.786       32.200     1380.743     1830.672     1036.828        0.698        0.212       87.518       15.896        0.033      339.775       13.338      868.761
10/26/2013  11:12:00       93.363       91.495       22.172       46.066       30.075       35.108     2122.050      904.499     1232.578        1.092        0.213      130.721       23.118        0.031      339.707       13.223      868.750
10/26/2013  11:13:00       25.552       45.090       56.953       54.558       64.756       53.368     2976.619     4193.326     2848.097        0.797        0.501       51.827       43.611        0.708      340.323       14.263      868.740
10/26/2013  11:14:00       59.273       61.219       32.678       34.435       38.057       24.431     1185.750     1448.304      596.861        0.578        0.162       85.212       13.220        0.024      339.868       13.497      868.750
10/26/2013  11:15:00       29.066      -15.614       34.872       20.671       46.536       23.335      427.291     2165.644      544.522        0.272        0.157       32.994       16.932        0.263      340.246       14.137      868.736
10/26/2013  11:16:00       43.581       66.043        2.918       42.672       39.581       33.015     1820.888     1566.660     1090.017        0.537        0.224       79.126       18.045        0.052      340.119       13.920      868.732
10/26/2013  11:17:00        3.736       17.876       53.171       26.762       42.123       37.703      716.215     1774.325     1421.501        0.354        0.196       18.262       29.812        2.665      340.499       14.560      868.707
10/26/2013  11:18:00       44.230       66.818       47.992       39.865       32.646       32.128     1589.185     1065.780     1032.197        0.621        0.184       80.131       21.967        0.075      340.180       14.023      868.705
10/26/2013  11:19:00       40.440      -13.864        9.527       26.224       56.850       27.908      687.674     3231.966      778.866        0.331        0.235       42.750       22.605        0.280      340.171       14.007      868.698
10/26/2013  11:20:00       38.229      -84.340       -2.586       38.345       30.862       32.138     1470.320      952.489     1032.872        0.602        0.173       92.599       12.576        0.018      339.980       13.686      868.688
10/26/2013  11:21:00      -25.780      -40.417       13.892       37.590       29.996       37.757     1413.027      899.783     1425.576        0.311        0.187       47.938       10.963        0.052      340.128       13.935      868.675
10/26/2013  11:22:00        4.929       58.105       80.758       29.331       65.347       49.759      860.287     4270.187     2476.007        0.876        0.380       58.314       52.927        0.824      340.652       14.821      868.663
10/26/2013  11:23:00       66.131       60.637       65.037       41.083       46.097       52.965     1687.798     2124.958     2805.299        0.945        0.331       89.723       37.362        0.173      340.223       14.096      868.661
10/26/2013  11:24:00       32.967       72.945       97.459       39.023       48.548       22.269     1522.808     2356.875      495.917        1.014        0.219       80.049       25.072        0.098      340.304       14.234      868.639
10/26/2013  11:25:00       24.918       78.234       88.893       45.980       54.096       33.711     2114.198     2926.405     1136.442        1.041        0.309       82.106       30.810        0.141      340.441       14.464      868.639
10/26/2013  11:26:00       12.324       25.542       65.632       32.686       60.341       31.068     1068.399     3641.069      965.207        0.539        0.284       28.360       38.485        1.842      340.819       15.102      868.621
10/26/2013  11:27:00       20.641       72.092       74.798       44.595       41.067       29.901     1988.676     1686.530      894.096        0.789        0.228       74.988       26.687        0.127      340.643       14.805      868.612
10/26/2013  11:28:00       11.787        0.648       45.094       33.130       35.284       22.577     1097.573     1244.942      509.720        0.251        0.143       11.804       22.584        3.660      340.902       15.243      868.611
10/26/2013  11:29:00       11.002       11.412       48.631       21.743       25.205       13.836      472.737      635.283      191.426        0.196        0.065       15.852       14.238        0.807      340.995       15.400      868.612
10/26/2013  11:30:00       -3.252       66.211       81.897       29.334       41.423       45.572      860.508     1715.881     2076.763        0.788        0.233       66.291       40.618        0.375      340.926       15.284      868.594
10/26/2013  11:31:00       18.839       35.501       40.816       35.412       30.261       25.677     1254.004      915.737      659.294        0.305        0.141       40.190       19.434        0.234      341.278       15.880      868.592
10/26/2013  11:32:00      -11.622      -39.701       28.733       29.155       52.126       32.039      850.028     2717.112     1026.516        0.356        0.230       41.367       32.117        0.603      341.109       15.595      868.575
10/26/2013  11:33:00       -0.123       27.031       53.564       32.901       44.724       29.652     1082.497     2000.227      879.249        0.378        0.198       27.031       17.790        0.433      341.087       15.556      868.568
10/26/2013  11:34:00      117.701       69.683       18.643       57.220       49.655       39.306     3274.175     2465.579     1544.956        1.317        0.364      136.782       27.046        0.039      340.632       14.785      868.567
10/26/2013  11:35:00       91.231       70.575       -2.751       33.987       31.132       33.920     1155.116      969.187     1150.549        0.829        0.164      115.343       14.025        0.015      340.432       14.448      868.561
10/26/2013  11:36:00       65.844       35.686       15.944       62.848       37.430       30.549     3949.925     1401.021      933.227        0.607        0.314       74.893       23.902        0.102      340.900       15.239      868.543
10/26/2013  11:37:00       94.143       74.597        5.125       43.569       27.701       34.371     1898.225      767.352     1181.393        0.915        0.192      120.115       14.399        0.014      340.765       15.010      868.535
10/26/2013  11:38:00       47.217       83.919      -15.236       26.588       38.495       23.235      706.914     1481.859      539.869        0.612        0.136       96.290       17.295        0.032      340.602       14.734      868.528
10/26/2013  11:39:00       55.096       54.853       13.974       40.901       44.350       33.571     1672.905     1966.964     1127.034        0.550        0.238       77.746       20.212        0.068      340.818       15.101      868.525
10/26/2013  11:40:00       61.382       34.966       29.651       28.115       26.544       33.204      790.446      704.591     1102.476        0.423        0.130       70.643       20.891        0.087      340.880       15.206      868.521
10/26/2013  11:41:00       23.555       51.508       31.317       47.166       38.550       41.083     2224.651     1486.085     1687.790        0.479        0.270       56.638       37.921        0.448      341.223       15.788      868.529
10/26/2013  11:42:00       61.432       49.522       21.477       52.657       46.158       32.323     2772.747     2130.586     1044.784        0.632        0.297       78.907       21.855        0.077      340.917       15.268      868.526
10/26/2013  11:43:00       34.049       46.333        8.841       27.296       38.065       32.193      745.072     1448.949     1036.363        0.331        0.162       57.498       25.829        0.202      341.052       15.497      868.524
10/26/2013  11:44:00       13.195       26.371       37.817       37.269       44.148       40.300     1388.981     1949.032     1624.068        0.363        0.248       29.488       31.370        1.132      341.347       15.997      868.515
10/26/2013  11:45:00       33.285       13.996       57.970       37.292       53.231       44.071     1390.729     2833.553     1942.220        0.541        0.308       36.108       45.558        1.592      340.974       15.366      868.513
10/26/2013  11:46:00       97.522     -125.669      -12.644       44.998       56.797       30.977     2024.786     3225.942      959.565        1.584        0.311      159.070       34.831        0.048      340.935       15.299      868.511
10/26/2013  11:47:00       42.586      -86.217       14.245       41.434       75.104       36.358     1716.807     5640.637     1321.904        0.906        0.434       96.161       47.148        0.240      341.065       15.520      868.500
10/26/2013  11:48:00       20.029        6.769       46.846       36.919       44.139       36.338     1362.982     1948.258     1320.415        0.364        0.232       21.142       35.218        2.775      341.333       15.972      868.503
10/26/2013  11:49:00       85.731       76.791       56.398       41.186       32.678       39.832     1696.322     1067.868     1586.553        1.039        0.218      115.094       31.556        0.075      340.996       15.403      868.492
10/26/2013  11:50:00        9.243      -15.453       -6.082       43.333       37.010       27.673     1877.787     1369.773      765.786        0.219        0.201       18.006       17.430        0.937      340.944       15.316      868.481
10/26/2013  11:51:00      -16.412       -2.572       -3.243       20.715       24.159       13.178      429.111      583.657      173.668        0.074        0.059       16.612       10.745        0.418      341.069       15.526      868.461
10/26/2013  11:52:00      105.342       64.972        9.096       38.076       26.523       25.853     1449.784      703.473      668.378        0.911        0.141      123.767       15.548        0.016      341.084       15.552      868.446
10/26/2013  11:53:00       38.752       45.182        3.188       36.462       20.822       22.246     1329.477      433.576      494.884        0.291        0.113       59.524       14.419        0.059      341.196       15.741      868.419
10/26/2013  11:54:00       34.854       40.372        4.709       42.253       33.458       25.416     1785.355     1119.454      645.993        0.321        0.178       53.336       11.101        0.043      341.571       16.376      868.397
10/26/2013  11:55:00       43.334       51.788       48.556       39.743       40.938       33.735     1579.543     1675.886     1138.069        0.565        0.220       67.526       14.810        0.048      341.475       16.215      868.387
10/26/2013  11:56:00       63.357       46.741       11.944       40.699       37.431       41.272     1656.442     1401.095     1703.359        0.555        0.238       78.733       31.059        0.156      341.235       15.807      868.369
10/26/2013  11:57:00       60.483       52.204       17.114       24.082       27.940       45.934      579.943      780.663     2109.901        0.507        0.174       79.896       32.119        0.162      340.994       15.400      868.359
10/26/2013  11:58:00       55.816       39.257       17.869       27.064       21.064       28.622      732.468      443.703      819.237        0.349        0.100       68.239       22.846        0.112      341.073       15.532      868.341
10/26/2013  11:59:00       39.630       30.495      -10.927       36.200       19.948       17.953     1310.421      397.941      322.299        0.232        0.102       50.005       17.795        0.127      341.048       15.489      868.323
10/26/2013  12:00:00      -54.140       -6.749       -2.928       11.039       11.896       11.997      121.860      141.526      143.936        0.170        0.020       54.559        5.822        0.011      341.131       15.631      868.305
10/26/2013  12:01:00       -5.663        6.232       21.295       23.016       24.500       20.112      529.729      600.274      404.477        0.103        0.077        8.420       18.549        4.853      341.943       17.007      868.293
10/26/2013  12:02:00       47.742       47.624       10.846       45.316       38.186       29.392     2053.570     1458.146      863.876        0.452        0.219       67.434       19.198        0.081      341.775       16.723      868.270
10/26/2013  12:03:00       51.109       52.861       17.855       35.921       33.007       37.129     1290.287     1089.438     1378.554        0.474        0.188       73.528       21.768        0.088      341.478       16.218      868.262
10/26/2013  12:04:00       51.633       37.580        4.702       38.602       31.441       31.105     1490.137      988.534      967.537        0.377        0.172       63.861       23.869        0.140      341.621       16.462      868.250
10/26/2013  12:05:00       25.703       69.924       99.213       65.441       48.198       35.175     4282.505     2323.052     1237.279        1.162        0.392       74.499       31.054        0.174      341.842       16.834      868.242
10/26/2013  12:06:00      131.119       88.703       47.203       26.457       19.222       26.760      699.986      369.472      716.073        1.454        0.089      158.305       21.597        0.019      341.183       15.718      868.237
10/26/2013  12:07:00       98.020       56.934       13.884       27.644       21.450       27.754      764.168      460.095      770.258        0.752        0.100      113.355       14.892        0.017      341.261       15.851      868.235
10/26/2013  12:08:00       67.656       54.693        5.568       46.594       54.110       41.899     2170.973     2927.856     1755.538        0.723        0.343       86.998       40.818        0.220      341.538       16.319      868.220
10/26/2013  12:09:00       67.842       46.039        9.410       23.975       30.770       22.263      574.792      946.793      495.623        0.441        0.101       81.989       21.828        0.071      341.217       15.776      868.211
10/26/2013  12:10:00       30.870        6.059       -9.819       34.133       20.961       20.280     1165.067      439.382      411.292        0.155        0.101       31.459       16.737        0.283      341.471       16.206      868.193
10/26/2013  12:11:00       34.991       45.038        3.820       32.289       22.311       28.737     1042.567      497.799      825.798        0.282        0.118       57.034       16.488        0.084      341.866       16.877      868.168
10/26/2013  12:12:00       22.895       90.416       -9.239       39.140       39.106       23.646     1531.939     1529.255      559.154        0.620        0.181       93.270        9.010        0.009      342.029       17.153      868.154
10/26/2013  12:13:00       41.456       63.187        0.940       39.026       39.147       30.875     1523.050     1532.496      953.289        0.486        0.200       75.572       12.326        0.027      341.898       16.931      868.152
10/26/2013  12:14:00      102.074       72.019       14.298       28.067       27.560       34.444      787.738      759.528     1186.363        0.927        0.137      124.923       18.961        0.023      341.782       16.734      868.131
10/26/2013  12:15:00       48.653       27.498        7.126       28.215       27.951       24.893      796.080      781.267      619.646        0.269        0.110       55.886       12.730        0.052      341.791       16.748      868.119
10/26/2013  12:16:00       12.273       90.482       -7.205       31.613       53.384       24.875      999.408     2849.895      618.790        0.643        0.223       91.311       22.408        0.060      341.698       16.592      868.100
10/26/2013  12:17:00       11.544       62.571       10.993       40.575       63.038       27.504     1646.303     3973.845      756.443        0.527        0.319       63.627       22.821        0.129      341.949       17.017      868.090
10/26/2013  12:18:00       19.225       58.526        9.562       28.225       34.124       27.002      796.643     1164.445      729.097        0.329        0.135       61.602       21.226        0.119      342.107       17.287      868.071
10/26/2013  12:19:00        6.049       53.932        5.742       35.855       37.913       23.158     1285.617     1437.425      536.314        0.312        0.163       54.270       21.871        0.162      341.903       16.939      868.073
10/26/2013  12:20:00      -40.580       34.990      -10.452       25.076       30.862       17.154      628.805      952.487      294.270        0.243        0.094       53.582       13.970        0.068      341.797       16.759      868.064
10/26/2013  12:21:00        3.148      -11.078        3.979       19.263       21.291       14.436      371.056      453.313      208.392        0.059        0.052       11.517        8.447        0.538      342.257       17.541      868.047
10/26/2013  12:22:00       -4.111       21.507       55.918       20.797       52.043       26.364      432.496     2708.497      695.078        0.372        0.192       21.896       31.312        2.045      342.447       17.864      868.032
10/26/2013  12:23:00      -15.420       15.575       39.936       17.856       21.319       15.708      318.825      454.505      246.735        0.155        0.051       21.917       14.634        0.446      342.595       18.115      868.021
10/26/2013  12:24:00        8.581      -35.481        9.811       35.966       33.221       28.603     1293.578     1103.606      818.109        0.232        0.161       36.504       22.892        0.393      342.360       17.716      868.016
10/26/2013  12:25:00       20.720      -10.211       11.107       29.096       41.481       25.615      846.564     1720.658      656.129        0.194        0.161       23.099       26.329        1.299      342.510       17.970      867.994
10/26/2013  12:26:00       37.969       40.827       41.856       37.605       47.716       44.038     1414.129     2276.826     1939.351        0.524        0.282       55.754       34.860        0.391      342.449       17.866      867.983
10/26/2013  12:27:00       14.299      -59.345       -2.763       32.856       41.949       21.961     1079.498     1759.742      482.273        0.353        0.166       61.043       20.599        0.114      342.201       17.446      867.967
10/26/2013  12:28:00        8.684       11.360       40.650       34.481       44.436       23.257     1188.924     1974.545      540.867        0.278        0.185       14.300       28.176        3.882      342.839       18.532      867.944
10/26/2013  12:29:00       93.424       69.778       27.895       36.708       34.385       46.484     1347.511     1182.331     2160.784        0.953        0.235      116.606       27.630        0.056      341.919       16.968      867.927
10/26/2013  12:30:00       91.594       27.567       13.737       38.314       30.139       32.556     1467.986      908.357     1059.869        0.639        0.172       95.653       14.015        0.021      342.019       17.136      867.908
10/26/2013  12:31:00       64.962       32.561       27.296       33.776       35.079       30.983     1140.850     1230.504      959.922        0.468        0.167       72.666       14.760        0.041      342.150       17.358      867.900
10/26/2013  12:32:00       60.327       45.232       47.256       41.741       53.023       35.785     1742.278     2811.387     1280.568        0.688        0.292       75.401       31.029        0.169      342.418       17.814      867.877
10/26/2013  12:33:00       11.782      -69.633       25.445       40.443       73.955       47.800     1635.634     5469.354     2284.868        0.751        0.469       70.623       41.443        0.344      342.332       17.667      867.856
10/26/2013  12:34:00       71.815       79.071       57.721       67.710       47.853       59.944     4584.589     2289.950     3593.316        1.260        0.523      106.815       51.439        0.232      342.228       17.491      867.847
10/26/2013  12:35:00      110.593       54.202       23.004       35.380       35.772       40.960     1251.721     1279.665     1677.741        0.995        0.210      123.161       15.392        0.016      342.071       17.224      867.836
10/26/2013  12:36:00      -18.316       70.452      -13.735       28.428       29.355       23.826      808.179      861.724      567.665        0.386        0.112       72.794       14.430        0.039      342.186       17.418      867.825
10/26/2013  12:37:00      -32.490       19.068       -7.868       23.583       22.018       18.348      556.148      484.784      336.643        0.143        0.069       37.672       14.864        0.156      342.389       17.764      867.802
10/26/2013  12:38:00      -16.067       21.351        5.840       36.184       16.335       23.575     1309.266      266.830      555.801        0.144        0.107       26.721       21.888        0.671      342.607       18.134      867.786
10/26/2013  12:39:00      -41.075       -1.798      -16.654       11.106       17.824       10.211      123.337      317.712      104.261        0.126        0.027       41.114        8.334        0.041      342.388       17.762      867.771
10/26/2013  12:40:00       -3.402      -55.138       -4.406       45.768       40.983       20.682     2094.703     1679.583      427.751        0.364        0.210       55.242       23.635        0.183      342.656       18.219      867.744
10/26/2013  12:41:00       26.109       62.011       74.917       43.230       54.232       42.560     1868.811     2941.092     1811.355        0.838        0.331       67.283       36.408        0.293      343.086       18.950      867.727
10/26/2013  12:42:00       26.588       17.450       44.818       34.589       88.570       58.226     1196.421     7844.610     3390.321        0.772        0.622       31.803       67.230        4.469      342.591       18.109      867.717
10/26/2013  12:43:00       17.569        9.915       27.513       22.090       41.524       40.318      487.955     1724.227     1625.578        0.250        0.192       20.173       37.538        3.463      342.608       18.136      867.700
10/26/2013  12:44:00      -15.122       16.958       21.073       39.791       30.014       29.893     1583.343      900.838      893.605        0.217        0.169       22.721       26.397        1.350      342.801       18.465      867.684
10/26/2013  12:45:00        4.515       36.731       13.163       42.645       27.619       31.954     1818.630      762.829     1021.028        0.257        0.180       37.007       23.516        0.404      342.755       18.388      867.678
10/26/2013  12:46:00      -16.964       -9.447       35.421       30.414       34.369       17.469      925.039     1181.225      305.182        0.202        0.121       19.417       17.395        0.803      343.238       19.210      867.661
10/26/2013  12:47:00      -70.098      -35.886       -5.069       26.601       28.633       22.653      707.607      819.867      513.153        0.413        0.102       78.750       14.779        0.035      342.655       18.216      867.652
10/26/2013  12:48:00      -35.296      -43.869        6.445       53.607       64.427       32.288     2873.711     4150.849     1042.520        0.564        0.403       56.306       26.262        0.218      342.825       18.505      867.619
10/26/2013  12:49:00      -26.103      -75.365      -23.306       41.588       40.818       31.354     1729.589     1666.134      983.078        0.564        0.219       79.757       23.472        0.087      342.626       18.167      867.615
10/26/2013  12:50:00      -36.422      -44.140       11.356       53.259       40.678       29.782     2836.477     1654.678      886.949        0.439        0.269       57.227       29.068        0.258      342.854       18.555      867.597
10/26/2013  12:51:00       17.608      -31.228        6.685       31.466       30.634       29.409      990.101      938.450      864.894        0.206        0.140       35.850       20.785        0.336      342.875       18.591      867.580
10/26/2013  12:52:00       31.877     -118.088      -30.155       28.703       40.093       26.306      823.840     1607.426      691.988        0.950        0.156      122.315       20.523        0.028      342.580       18.091      867.555
10/26/2013  12:53:00       -7.812      -33.356        8.821       46.545       52.056       29.790     2166.410     2709.781      887.460        0.351        0.288       34.258       33.661        0.965      342.888       18.614      867.542
10/26/2013  12:54:00      -49.982      -10.346       19.539       38.152       35.112       28.185     1455.603     1232.820      794.398        0.323        0.174       51.041       26.180        0.263      342.994       18.793      867.521
10/26/2013  12:55:00      -19.718       15.518       42.230       19.406       30.101       28.186      376.589      906.058      794.470        0.224        0.104       25.092       23.406        0.870      343.391       19.469      867.508
10/26/2013  12:56:00        0.075       62.581       12.648       41.690       75.374       37.410     1738.076     5681.235     1399.524        0.645        0.441       62.581       42.183        0.454      343.267       19.259      867.490
10/26/2013  12:57:00       66.379       43.647       17.442       29.829       29.752       29.375      889.798      885.193      862.880        0.463        0.132       79.444       15.403        0.038      342.926       18.676      867.467
10/26/2013  12:58:00       71.263       64.069       24.710       42.248       26.200       31.659     1784.893      686.418     1002.308        0.663        0.174       95.829       18.150        0.036      342.742       18.364      867.451
10/26/2013  12:59:00       56.848       25.566       -7.442       32.825       26.904       33.337     1077.494      723.821     1111.363        0.343        0.146       62.332       10.898        0.031      342.716       18.320      867.428
10/26/2013  13:00:00       24.178       26.653       20.450       15.908       24.582       27.853      253.077      604.256      775.778        0.167        0.082       35.986       20.989        0.340      343.095       18.964      867.406
10/26/2013  13:01:00        4.760       45.301        2.984       42.892       42.978       21.614     1839.736     1847.131      467.150        0.312        0.208       45.551       18.683        0.168      343.142       19.045      867.379
10/26/2013  13:02:00        1.514       65.760        0.571       26.420       48.360       21.858      698.035     2338.721      477.769        0.392        0.176       65.777       29.341        0.199      343.049       18.889      867.361
10/26/2013  13:03:00      -34.301       49.653        2.942       21.500       34.772       19.499      462.238     1209.099      380.222        0.285        0.103       60.348       19.094        0.100      343.145       19.050      867.328
10/26/2013  13:04:00       -3.650       -6.193        8.408       25.459       26.581       15.036      648.144      706.572      226.081        0.085        0.079        7.189       13.395        3.472      343.388       19.466      867.311
10/26/2013  13:05:00       10.279      -52.320        9.909       28.635       52.082       34.112      819.988     2712.494     1163.641        0.382        0.235       53.320       31.208        0.343      343.287       19.293      867.279
10/26/2013  13:06:00        2.129        2.105       39.105       40.323       42.806       28.648     1625.913     1832.369      820.684        0.291        0.214        2.994       25.188       70.772      343.900       20.337      867.267
10/26/2013  13:07:00       85.939      -50.443       27.683       37.981       58.195       44.660     1442.576     3386.696     1994.485        0.876        0.341       99.649       41.986        0.178      343.141       19.044      867.242
10/26/2013  13:08:00       57.139      -31.773       15.109       33.002       64.003       32.232     1089.121     4096.445     1038.910        0.536        0.311       65.379       30.669        0.220      343.145       19.050      867.225
10/26/2013  13:09:00       78.016      -51.868        1.801       53.637       87.852       33.252     2876.967     7717.964     1105.683        1.024        0.585       93.685       45.534        0.236      343.096       18.965      867.201
10/26/2013  13:10:00       36.373      -42.803       27.333       37.269       80.108       38.491     1389.000     6417.358     1481.573        0.659        0.464       56.170       49.075        0.763      343.074       18.930      867.188
10/26/2013  13:11:00       63.213      -84.211        4.492       50.049       82.061       47.690     2504.930     6734.003     2274.380        1.131        0.576      105.297       54.237        0.265      343.129       19.025      867.166
10/26/2013  13:12:00       25.520       37.013       72.039       58.223       72.550       49.675     3389.975     5263.497     2467.578        0.916        0.556       44.959       47.642        1.123      343.447       19.565      867.164
10/26/2013  13:13:00       23.481       31.807       87.752       47.115       50.207       35.496     2219.831     2520.746     1259.976        0.763        0.300       39.535       32.394        0.671      343.569       19.773      867.144
10/26/2013  13:14:00       70.171      -48.312       38.662       79.007       80.667       48.429     6242.152     6507.233     2345.383        1.192        0.755       85.194       62.957        0.546      343.392       19.471      867.136
10/26/2013  13:15:00       99.091      -39.754       27.377       35.128       31.711       33.409     1233.961     1005.574     1116.162        0.775        0.168      106.767       25.273        0.056      342.965       18.743      867.131
10/26/2013  13:16:00       54.733       35.244       -1.418       28.584       30.804       27.136      817.032      948.916      736.371        0.337        0.125       65.099        9.571        0.022      342.923       18.672      867.123
10/26/2013  13:17:00      -13.797       11.314        1.029       35.881       29.491       19.197     1287.437      869.694      368.541        0.142        0.126       17.843        8.921        0.250      343.277       19.276      867.084
10/26/2013  13:18:00      -26.115      -43.769      -11.356       13.353       25.715       18.793      178.302      661.280      353.173        0.196        0.060       50.968       12.973        0.065      342.906       18.645      867.067
10/26/2013  13:19:00      -45.553       22.167       -3.170       32.212       50.660       20.250     1037.582     2566.393      410.053        0.329        0.201       50.660        9.388        0.034      343.128       19.021      867.033
10/26/2013  13:20:00      -21.427       51.237       -7.339       21.756       46.132       26.504      473.334     2128.162      702.482        0.322        0.165       55.537       12.693        0.052      343.408       19.500      867.011
10/26/2013  13:21:00        6.122       -2.995       -9.762       18.387       17.806       15.124      338.087      317.041      228.746        0.051        0.044        6.815        5.077        0.555      343.237       19.206      866.993
10/26/2013  13:22:00       -0.647        8.608       20.800       21.689       17.282       22.330      470.431      298.665      498.628        0.089        0.063        8.632       13.384        2.404      343.529       19.706      866.967
10/26/2013  13:23:00       -7.948        5.954       19.104       25.964       29.895       19.762      674.118      893.729      390.519        0.121        0.098        9.930       13.851        1.945      343.806       20.179      866.950
10/26/2013  13:24:00        4.840       43.961        9.277       23.659       24.166       30.282      559.759      583.987      916.996        0.205        0.103       44.226       25.293        0.327      343.537       19.719      866.928
10/26/2013  13:25:00       59.382       -6.923       24.772       51.097       43.601       34.669     2610.868     1901.062     1201.954        0.495        0.286       59.785       34.351        0.330      343.439       19.551      866.917
10/26/2013  13:26:00       53.851       49.760       75.521       45.421       46.183       33.641     2063.097     2132.855     1131.718        0.820        0.266       73.321       23.473        0.102      343.438       19.549      866.893
10/26/2013  13:27:00       64.540      -67.878       26.343       57.795       54.486       42.942     3340.222     2968.750     1844.039        0.881        0.408       93.663       42.552        0.206      343.400       19.487      866.863
10/26/2013  13:28:00       15.407      -55.626        7.127       31.018       39.738       29.801      962.124     1579.131      888.088        0.341        0.171       57.721       29.839        0.267      343.703       20.001      866.832
10/26/2013  13:29:00       15.383      -89.755      -22.593       45.299       57.391       31.661     2051.973     3293.769     1002.420        0.757        0.317       91.064       25.143        0.076      343.523       19.695      866.800
10/26/2013  13:30:00       36.427      -43.407        2.977       34.653       43.037       35.247     1200.859     1852.226     1242.337        0.376        0.215       56.667       22.873        0.163      343.553       19.747      866.790
10/26/2013  13:31:00       22.636        0.957       23.325       27.074       41.043       29.495      732.983     1684.553      869.960        0.217        0.164       22.656       28.721        1.607      343.718       20.028      866.762
10/26/2013  13:32:00       45.030      -92.187        7.137       56.488       82.786       31.843     3190.914     6853.567     1013.993        1.082        0.553      102.597       33.968        0.110      343.545       19.731      866.739
10/26/2013  13:33:00       66.404      -70.564       21.237       54.864       66.906       33.005     3010.107     4476.473     1089.333        0.921        0.429       96.896       35.156        0.132      343.367       19.428      866.729
10/26/2013  13:34:00       89.809      -45.485       37.779       53.511       70.268       44.043     2863.392     4937.579     1939.744        1.065        0.487      100.671       41.662        0.171      343.636       19.888      866.695
10/26/2013  13:35:00       25.770        7.817       66.464       55.533       62.334       33.697     3083.950     3885.566     1135.463        0.662        0.405       26.929       35.838        1.771      343.733       20.052      866.698
10/26/2013  13:36:00        9.788      -11.386       41.053       31.318       60.839       38.430      980.810     3701.339     1476.834        0.403        0.308       15.015       33.351        4.934      343.787       20.144      866.678
10/26/2013  13:37:00       -7.473       -4.849       27.439       21.194       42.698       27.065      449.188     1823.144      732.515        0.192        0.150        8.909       23.182        6.771      344.136       20.741      866.670
10/26/2013  13:38:00      -61.210       48.524       -2.470       46.250       55.095       29.539     2139.054     3035.509      872.570        0.608        0.302       78.111       36.042        0.213      343.945       20.417      866.653
10/26/2013  13:39:00      -24.486       30.072       11.720       27.959       31.123       19.427      781.731      968.657      377.412        0.188        0.106       38.780       17.706        0.208      343.892       20.323      866.635
10/26/2013  13:40:00       43.206       29.975        8.588       66.583       29.643       19.406     4433.356      878.682      376.587        0.426        0.284       52.585       30.349        0.333      344.026       20.554      866.629
10/26/2013  13:41:00       38.392       81.765       -3.214       52.111       38.952       29.312     2715.524     1517.295      859.204        0.663        0.255       90.330       23.957        0.070      343.599       19.824      866.616
10/26/2013  13:42:00      -12.903      134.088      -16.443       24.017       30.650       17.889      576.828      939.400      320.014        1.013        0.092      134.708       13.176        0.010      343.340       19.383      866.600
10/26/2013  13:43:00      -23.460       71.958       -2.659       36.012       52.502       27.291     1296.884     2756.417      744.794        0.527        0.240       75.686       31.558        0.174      343.663       19.934      866.579
10/26/2013  13:44:00       30.180       43.231       26.732       42.629       25.190       27.517     1817.218      634.555      757.179        0.335        0.160       52.724       13.331        0.064      343.913       20.360      866.547
10/26/2013  13:45:00      136.684       68.516       31.958       49.364       42.055       36.366     2436.850     1768.639     1322.508        1.496        0.276      152.895        6.624        0.002      343.630       19.877      866.535
10/26/2013  13:46:00      134.022       73.649       26.572       70.534       60.648       42.423     4974.994     3678.144     1799.698        1.727        0.523      152.925       26.724        0.031      343.668       19.941      866.507
10/26/2013  13:47:00       -2.691       83.259       98.704       29.659       38.210       32.800      879.674     1460.008     1075.847        1.005        0.171       83.303       29.169        0.123      343.864       20.276      866.477
10/26/2013  13:48:00       26.794        3.786       37.603       45.805       26.233       37.984     2098.141      688.190     1442.766        0.319        0.211       27.060       18.125        0.449      343.887       20.317      866.471
10/26/2013  13:49:00       95.130        7.230       18.555       58.015       57.354       41.348     3365.740     3289.486     1709.669        0.890        0.418       95.405       40.622        0.181      343.484       19.628      866.439
10/26/2013  13:50:00      101.027       24.115        2.135       35.345       25.328       26.117     1249.236      641.508      682.087        0.668        0.129      103.865       17.068        0.027      343.433       19.541      866.413
10/26/2013  13:51:00       71.417       10.346       28.584       31.145       45.867       39.299      969.995     2103.813     1544.444        0.532        0.231       72.162       31.995        0.197      343.519       19.688      866.404
10/26/2013  13:52:00      114.142       46.948       11.132       85.442       34.292       40.510     7300.300     1175.908     1641.063        1.274        0.506      123.420       23.939        0.038      343.485       19.628      866.386
10/26/2013  13:53:00       61.289       25.717       -2.821       19.550       15.853       27.463      382.219      251.319      754.217        0.291        0.069       66.466       11.363        0.029      343.501       19.658      866.370
10/26/2013  13:54:00       71.503       56.706       17.863       44.805       27.779       23.646     2007.491      771.680      559.144        0.599        0.167       91.259       12.807        0.020      343.682       19.965      866.356
10/26/2013  13:55:00       -6.302        8.820        2.366       28.429       27.286       18.390      808.197      744.521      338.174        0.101        0.095       10.840       10.024        0.855      344.139       20.745      866.336
10/26/2013  13:56:00       10.474       -6.964        7.097       32.368       37.036       19.322     1047.718     1371.645      373.321        0.150        0.140       12.578        2.508        0.040      343.986       20.485      866.334
10/26/2013  13:57:00       84.204     -156.794      -13.334       74.101       82.627       32.413     5491.010     6827.219     1050.598        2.261        0.668      177.974       30.430        0.029      343.860       20.267      866.324
10/26/2013  13:58:00       88.176     -197.823      -12.823       45.644       58.221       35.557     2083.361     3389.685     1264.304        2.690        0.337      216.585       29.116        0.018      343.753       20.084      866.312
10/26/2013  13:59:00       10.257      -79.469        7.215       56.537       83.098       40.405     3196.431     6905.324     1632.549        0.910        0.587       80.128       39.511        0.243      344.092       20.666      866.305
10/26/2013  14:00:00       -7.146      -33.882       19.546       29.322       59.664       36.198      859.807     3559.760     1310.291        0.365        0.286       34.627       32.727        0.893      344.353       21.112      866.313
10/26/2013  14:01:00       18.766       42.756        6.553       33.410       27.396       30.984     1116.256      750.536      960.009        0.252        0.141       46.693       11.875        0.065      343.940       20.407      866.296
10/26/2013  14:02:00       27.348       15.341       26.079       43.631       17.325       26.700     1903.638      300.171      712.912        0.229        0.146       31.357       25.316        0.652      344.114       20.702      866.285
10/26/2013  14:03:00        5.143      -14.126      -20.211       26.268       42.312       17.672      689.990     1790.299      312.305        0.171        0.140       15.033       18.927        1.585      343.864       20.276      866.280
10/26/2013  14:04:00       72.705      -43.789       15.959       59.588       68.130       37.930     3550.676     4641.651     1438.702        0.854        0.482       84.873       38.289        0.204      343.977       20.468      866.256
10/26/2013  14:05:00       21.738     -120.340        3.474       39.655       52.567       38.869     1572.539     2763.240     1510.832        1.041        0.292      122.288       29.252        0.057      343.848       20.249      866.258
10/26/2013  14:06:00       27.357     -122.213      -23.864       66.877       46.791       31.175     4472.485     2189.356      971.892        1.194        0.382      125.237       19.182        0.023      344.127       20.724      866.240
10/26/2013  14:07:00      -33.597      -86.469      -15.340       44.361       62.704       36.531     1967.928     3931.757     1334.529        0.804        0.362       92.766       29.853        0.104      344.250       20.937      866.221
10/26/2013  14:08:00       -0.906      -25.840       10.433       46.658       35.432       32.540     2176.968     1255.417     1058.871        0.263        0.225       25.856       22.593        0.764      344.365       21.132      866.211
10/26/2013  14:09:00       24.856      -23.830       26.131       60.221       46.899       28.830     3626.605     2199.498      831.189        0.426        0.333       34.434       23.416        0.462      344.219       20.883      866.193
10/26/2013  14:10:00        0.109      -29.460        8.884       44.492       44.680       27.287     1979.517     1996.290      744.576        0.283        0.236       29.460       23.075        0.613      344.384       21.164      866.162
10/26/2013  14:11:00      -10.647       10.994       31.177       40.059       29.859       23.691     1604.701      891.589      561.243        0.213        0.153       15.305       21.124        1.905      344.400       21.193      866.150
10/26/2013  14:12:00       37.428       40.846       13.032       51.767       43.299       36.302     2679.857     1874.828     1317.867        0.455        0.294       55.401       26.419        0.227      344.295       21.013      866.144
10/26/2013  14:13:00       75.903       63.124       18.322       86.026       75.132       44.929     7400.438     5644.826     2018.626        1.257        0.753       98.721       33.191        0.113      344.439       21.258      866.118
10/26/2013  14:14:00      139.699       45.175       11.629       77.031       52.865       39.033     5933.735     2794.699     1523.612        1.597        0.513      146.822       37.663        0.066      344.159       20.778      866.113
10/26/2013  14:15:00       -8.630      116.661       -9.610       47.469       53.521       35.473     2253.278     2864.545     1258.347        1.008        0.319      116.980       34.223        0.086      344.133       20.736      866.110
10/26/2013  14:16:00       26.598       10.554       20.159       27.691       23.856       23.765      766.816      569.102      564.754        0.156        0.095       28.615       15.799        0.305      344.252       20.940      866.089
10/26/2013  14:17:00       87.166       38.788        6.611       71.690       50.452       34.747     5139.433     2545.378     1207.353        0.902        0.445       95.406       16.797        0.031      344.160       20.781      866.072
10/26/2013  14:18:00      102.535       23.522       13.652       79.781       53.396       46.032     6365.001     2851.151     2118.928        1.129        0.567      105.198       21.495        0.042      344.028       20.556      866.068
10/26/2013  14:19:00       40.505       88.273       -8.619       66.957       61.035       36.000     4483.200     3725.228     1296.004        0.950        0.475       97.123       18.600        0.037      344.071       20.628      866.046
10/26/2013  14:20:00       75.507       56.604        5.284       64.193       51.356       39.673     4120.690     2637.464     1573.956        0.863        0.417       94.368       35.520        0.142      344.280       20.987      866.020
10/26/2013  14:21:00       46.414       44.221       55.129       60.432       55.455       40.432     3651.972     3075.277     1634.775        0.775        0.418       64.107       43.650        0.464      344.315       21.046      866.024
10/26/2013  14:22:00       25.268       80.745       91.065       44.162       56.733       36.471     1950.268     3218.584     1330.154        1.097        0.325       84.607       38.626        0.208      344.368       21.137      865.991
10/26/2013  14:23:00       72.495       58.697       96.293       77.834       89.786       66.527     6058.189     8061.470     4425.787        1.826        0.927       93.278       76.279        0.669      344.218       20.881      865.977
10/26/2013  14:24:00       40.524       34.897       -0.793       76.515       59.848       42.807     5854.495     3581.739     1832.470        0.706        0.563       53.479       24.973        0.218      344.191       20.834      865.970
10/26/2013  14:25:00       30.864       80.237       92.736       57.401       59.390       58.034     3294.884     3527.196     3367.899        1.309        0.509       85.968       49.547        0.332      344.351       21.107      865.949
10/26/2013  14:26:00      111.967       77.847       64.687       68.886       54.840       45.164     4745.307     3007.477     2039.801        1.629        0.490      136.370       29.496        0.047      344.062       20.613      865.948
10/26/2013  14:27:00       25.446       34.109       68.618       55.437       65.701       65.898     3073.217     4316.565     4342.542        0.912        0.587       42.555       55.976        1.730      344.432       21.245      865.940
10/26/2013  14:28:00       31.168      -23.588       12.612       67.135       47.116       32.605     4507.111     2219.963     1063.092        0.474        0.390       39.088       29.826        0.582      344.053       20.600      865.946
10/26/2013  14:29:00       11.883        4.155       21.240       32.709       19.815       17.562     1069.894      392.630      308.438        0.119        0.089       12.589       15.507        1.517      344.492       21.349      865.917
10/26/2013  14:30:00      -33.344      -27.231       -3.343       35.183       41.576       20.381     1237.877     1728.584      415.367        0.262        0.169       43.051       14.166        0.108      344.430       21.243      865.897
10/26/2013  14:31:00       33.059      -59.669       -2.420       29.338       21.308       17.554      860.701      454.010      308.153        0.314        0.081       68.215       13.927        0.042      344.140       20.748      865.891
10/26/2013  14:32:00       51.547      -85.678       -0.971       44.875       43.295       20.370     2013.790     1874.472      414.950        0.715        0.215       99.989       22.104        0.049      344.237       20.913      865.885
10/26/2013  14:33:00      117.311     -181.972      -16.265       54.663       68.907       33.005     2988.032     4748.130     1089.360        2.798        0.441      216.508       32.566        0.023      344.246       20.926      865.852
10/26/2013  14:34:00      108.116     -144.520      -22.944       43.264       58.676       22.824     1871.768     3442.873      520.936        1.947        0.292      180.485       20.471        0.013      344.041       20.575      865.849
10/26/2013  14:35:00       25.576      -19.040       11.433       33.222       59.748       29.465     1103.706     3569.792      868.164        0.334        0.277       31.884       30.295        0.903      344.361       21.124      865.851
10/26/2013  14:36:00      -12.747       22.139       24.772       26.141       17.911       17.394      683.343      320.792      302.561        0.129        0.065       25.546       13.220        0.268      344.582       21.504      865.846
10/26/2013  14:37:00       -0.459      -17.964       12.186       33.126       34.027       19.183     1097.301     1157.819      367.995        0.155        0.131       17.970       12.526        0.486      344.739       21.771      865.835
10/26/2013  14:38:00       64.146      -13.068       14.823       48.501       46.480       32.596     2352.300     2160.385     1062.520        0.504        0.279       65.463       37.785        0.333      344.449       21.276      865.834
10/26/2013  14:39:00       11.738        2.093       29.594       27.416       51.768       29.421      751.641     2679.967      865.603        0.266        0.215       11.923       32.142        7.267      344.557       21.459      865.835
10/26/2013  14:40:00       17.966        8.406       44.800       45.975       55.752       41.444     2113.723     3108.316     1717.569        0.467        0.347       19.835       43.792        4.875      344.732       21.760      865.837
10/26/2013  14:41:00       21.377      -45.068        9.020       33.044       34.851       24.583     1091.937     1214.573      604.328        0.274        0.146       49.881       24.587        0.243      344.683       21.676      865.823
10/26/2013  14:42:00       32.481       16.736       32.818       23.268       23.075       16.019      541.385      532.455      256.624        0.187        0.067       36.539        7.637        0.044      344.741       21.774      865.804
10/26/2013  14:43:00       27.053       23.335       -0.358       35.845       23.797       23.477     1284.847      566.316      551.190        0.184        0.120       35.727        9.512        0.071      344.593       21.522      865.799
10/26/2013  14:44:00       32.263       40.011       28.918       25.139       32.616       38.208      631.986     1063.804     1459.855        0.332        0.158       51.398       22.054        0.184      344.517       21.392      865.784
10/26/2013  14:45:00       92.257      115.213       45.971       96.549       65.985       64.686     9321.614     4354.069     4184.311        2.088        0.893      147.599       54.812        0.138      344.498       21.358      865.779
10/26/2013  14:46:00      130.363       84.292        9.996       52.973       48.717       29.823     2806.168     2373.381      889.384        1.513        0.303      155.241       24.928        0.026      344.206       20.858      865.779
10/26/2013  14:47:00       33.488       49.646       17.160       64.778       43.792       37.926     4196.135     1917.771     1438.410        0.572        0.378       59.885       33.051        0.305      344.545       21.440      865.772
10/26/2013  14:48:00       92.780      131.028       -1.007       60.012       66.472       45.512     3601.415     4418.511     2071.338        1.793        0.505      160.551       41.536        0.067      344.307       21.030      865.774
10/26/2013  14:49:00       19.966      198.727      -19.404       48.071       67.450       39.102     2310.798     4549.472     1528.946        2.433        0.419      199.727       35.013        0.031      344.275       20.975      865.767
10/26/2013  14:50:00       77.493       81.637        4.802       55.972       55.959       45.476     3132.833     3131.407     2068.082        1.051        0.417      112.561       24.729        0.048      344.324       21.061      865.756
10/26/2013  14:51:00       94.362       65.522       41.001       37.947       31.970       40.928     1440.002     1022.066     1675.119        0.951        0.207      114.879       22.446        0.038      344.258       20.950      865.750
10/26/2013  14:52:00       55.204       66.829       30.942       47.897       50.504       38.689     2294.077     2550.660     1496.839        0.741        0.317       86.681       20.890        0.058      344.363       21.129      865.745
10/26/2013  14:53:00       42.964       62.578       42.057       49.137       53.431       58.080     2414.409     2854.843     3373.308        0.809        0.432       75.907       41.150        0.294      344.464       21.302      865.728
10/26/2013  14:54:00       71.612       42.032      -19.305       35.456       26.685       19.759     1257.139      712.069      390.417        0.481        0.118       83.036       13.471        0.026      344.198       20.847      865.718
10/26/2013  14:55:00       16.037       65.951       -4.617       23.650       52.078       23.829      559.320     2712.145      567.830        0.423        0.192       67.873       26.034        0.147      344.363       21.128      865.712
10/26/2013  14:56:00      -42.979      -22.191      -18.172       51.409       53.417       15.623     2642.878     2853.371      244.079        0.420        0.287       48.370       11.389        0.055      344.566       21.476      865.705
10/26/2013  14:57:00       -1.471      -98.489       -1.592       41.813       50.017       35.517     1748.291     2501.662     1261.434        0.761        0.276       98.500       27.553        0.078      344.380       21.158      865.686
10/26/2013  14:58:00       -3.910      -23.204       20.758       44.950       35.580       35.292     2020.523     1265.905     1245.509        0.276        0.227       23.531       30.038        1.629      344.627       21.580      865.658
10/26/2013  14:59:00      -69.333      -30.821       12.514       71.926       35.058       29.613     5173.280     1229.059      876.919        0.660        0.364       75.875       32.485        0.183      344.522       21.401      865.634
10/26/2013  15:00:00      -66.965       46.421       -0.879       39.843       61.872       30.263     1587.475     3828.149      915.850        0.648        0.317       81.481       16.538        0.041      344.680       21.671      865.634
10/26/2013  15:01:00      -89.047       57.892      -16.419       32.113       39.148       19.526     1031.275     1532.587      381.259        0.725        0.147      106.211        8.549        0.006      344.449       21.275      865.636
10/26/2013  15:02:00      -10.947       55.367       -6.402       27.695       62.207       26.272      767.039     3869.731      690.203        0.428        0.266       56.439       30.559        0.293      344.625       21.575      865.622
10/26/2013  15:03:00      -35.846      100.953       -0.877       44.705       50.112       36.831     1998.519     2511.259     1356.509        0.867        0.293      107.128       13.437        0.016      344.565       21.474      865.616
10/26/2013  15:04:00      -66.933       11.796      -18.200       26.812       26.922       17.599      718.905      724.819      309.712        0.335        0.088       67.965        4.357        0.004      344.343       21.093      865.604
10/26/2013  15:05:00      -18.503       31.697        8.303       42.761       27.905       22.471     1828.492      778.693      504.932        0.226        0.156       36.702       19.669        0.287      344.502       21.367      865.589
10/26/2013  15:06:00      -22.750       45.729        0.836       20.885       42.710       21.709      436.168     1824.148      471.299        0.267        0.137       51.076       11.813        0.053      344.702       21.709      865.591
10/26/2013  15:07:00      -39.873       89.411      -11.170       42.369       38.841       25.158     1795.126     1508.618      632.912        0.682        0.197       97.899       20.420        0.044      344.545       21.439      865.592
10/26/2013  15:08:00       43.110       67.365       18.549       55.518       34.725       29.379     3082.273     1205.794      863.100        0.595        0.258       79.978       34.344        0.184      344.459       21.291      865.595
10/26/2013  15:09:00       49.676       47.879       14.995       92.474       43.222       38.938     8551.380     1868.118     1516.136        0.846        0.597       68.993       32.900        0.227      344.746       21.782      865.591
10/26/2013  15:10:00       47.364       42.142        7.739       44.517       29.317       30.432     1981.746      859.507      926.110        0.392        0.188       63.398       18.298        0.083      344.953       22.138      865.591
10/26/2013  15:11:00       42.577       78.414        3.412       57.857       63.318       45.964     3347.465     4009.214     2112.713        0.872        0.473       89.227       42.062        0.222      344.562       21.469      865.587
10/26/2013  15:12:00       44.427       69.220       -6.389       57.736       67.551       31.634     3333.412     4563.081     1000.720        0.785        0.445       82.251       34.882        0.180      344.643       21.607      865.578
10/26/2013  15:13:00       47.308       52.079        2.534       54.873       47.582       33.473     3011.087     2264.034     1120.471        0.568        0.320       70.358       19.645        0.078      344.792       21.862      865.578
10/26/2013  15:14:00      129.735       97.020        3.596       70.919       60.486       42.179     5029.512     3658.504     1779.099        1.836        0.523      162.001       30.346        0.035      344.486       21.337      865.596
10/26/2013  15:15:00      164.187      118.736       17.830       41.222       38.329       34.791     1699.250     1469.095     1210.442        2.288        0.219      202.622       21.964        0.012      344.293       21.006      865.593
10/26/2013  15:16:00       78.567       65.364       12.092       56.190       41.092       37.939     3157.344     1688.561     1439.398        0.844        0.314      102.202       23.930        0.055      344.399       21.189      865.590
10/26/2013  15:17:00       54.566       50.082       19.552       53.477       40.370       40.383     2859.804     1629.752     1630.805        0.599        0.306       74.066       21.879        0.087      344.449       21.277      865.591
10/26/2013  15:18:00       55.708       40.817        9.181       30.577       26.985       27.249      934.929      728.166      742.516        0.363        0.120       69.061       16.209        0.055      344.451       21.278      865.584
10/26/2013  15:19:00       -5.003       98.471       -4.722       40.288       60.038       28.152     1623.113     3604.582      792.547        0.788        0.301       98.598       38.519        0.153      344.558       21.462      865.576
10/26/2013  15:20:00      -36.087       99.900      -14.996       31.167       33.140       19.771      971.378     1098.289      390.906        0.698        0.123      106.218       16.346        0.024      344.578       21.496      865.569
10/26/2013  15:21:00       -5.254      173.548      -28.986       26.118       42.926       17.679      682.146     1842.641      312.553        1.691        0.142      173.628       18.156        0.011      344.401       21.192      865.567
10/26/2013  15:22:00      -36.526       94.675       -8.615       36.939       50.994       29.446     1364.526     2600.430      867.037        0.760        0.242      101.476       32.255        0.101      344.732       21.760      865.566
10/26/2013  15:23:00      -59.914      107.761      -17.038       38.416       45.940       29.815     1475.808     2110.513      888.929        0.998        0.224      123.297       20.882        0.029      344.819       21.908      865.559
10/26/2013  15:24:00      -30.927       95.428       -3.215       37.700       62.442       32.583     1421.297     3899.032     1061.659        0.823        0.319      100.314       37.710        0.141      344.674       21.661      865.542
10/26/2013  15:25:00       -6.719       27.104        1.320       33.191       37.026       29.200     1101.624     1370.937      852.626        0.205        0.166       27.924       21.829        0.611      344.857       21.973      865.522
10/26/2013  15:26:00      -83.839       86.193      -20.137       44.963       38.774       28.419     2021.682     1503.458      807.629        0.960        0.217      120.242       23.026        0.037      344.785       21.850      865.515
10/26/2013  15:27:00      -87.384       50.885      -25.555       25.896       50.633       16.761      670.622     2563.706      280.919        0.720        0.176      101.120       13.003        0.017      344.570       21.482      865.505
10/26/2013  15:28:00      -52.816       20.588       -3.055       36.304       30.100       20.357     1317.971      906.021      414.389        0.293        0.132       56.687       19.349        0.117      344.949       22.131      865.485
10/26/2013  15:29:00      -94.014       70.355      -11.415       41.624       44.984       25.195     1732.568     2023.570      634.768        0.915        0.220      117.424       19.587        0.028      344.862       21.982      865.473
10/26/2013  15:30:00      -71.510       84.132       -8.569       39.761       37.669       26.898     1580.903     1418.918      723.487        0.799        0.186      110.417       28.386        0.066      344.689       21.686      865.457
10/26/2013  15:31:00       -5.654       79.301        8.431       31.740       51.265       25.158     1007.447     2628.150      632.916        0.533        0.213       79.503       23.453        0.087      344.637       21.598      865.445
10/26/2013  15:32:00       58.606       85.693       -0.047       60.813       30.493       26.626     3698.246      929.799      708.955        0.806        0.267      103.817       28.277        0.074      344.610       21.550      865.438
10/26/2013  15:33:00       28.470       22.006       13.530       32.236       23.667       24.030     1039.183      560.138      577.445        0.183        0.109       35.983       10.058        0.078      344.787       21.853      865.426
10/26/2013  15:34:00        6.474        8.107       12.158       25.305       28.952       22.530      640.337      838.211      507.606        0.112        0.099       10.375       10.620        1.048      345.067       22.333      865.401
10/26/2013  15:35:00       36.748      -78.032       16.705       61.261       51.710       31.498     3752.947     2673.917      992.146        0.757        0.371       86.252       13.216        0.023      344.838       21.943      865.379
10/26/2013  15:36:00       43.632      -77.856       13.783       62.396       67.424       35.483     3893.271     4546.008     1259.054        0.893        0.485       89.248       38.879        0.190      344.716       21.732      865.371
10/26/2013  15:37:00       90.429      -83.692        1.946       34.767       38.831       22.249     1208.738     1507.836      495.018        0.920        0.161      123.215       23.050        0.035      344.585       21.508      865.358
10/26/2013  15:38:00       -2.921      -30.201       14.252       48.299       27.374       25.433     2332.765      749.346      646.844        0.243        0.186       30.342       23.690        0.610      344.977       22.177      865.341
10/26/2013  15:39:00        0.988      -66.484       -6.550       44.451       32.417       27.623     1975.925     1050.856      763.048        0.413        0.189       66.491       17.510        0.069      344.861       21.981      865.330
10/26/2013  15:40:00       24.988       12.016       15.798       45.707       27.872       22.963     2089.130      776.854      527.288        0.221        0.170       27.727       17.512        0.399      344.983       22.190      865.328
10/26/2013  15:41:00       98.156       41.469       19.012       42.576       38.483       33.876     1812.717     1480.974     1147.605        0.808        0.222      106.556       20.336        0.036      344.770       21.825      865.323
10/26/2013  15:42:00       97.329      126.741        2.884       87.221       74.362       68.247     7607.550     5529.736     4657.612        2.167        0.890      159.800       59.408        0.138      344.688       21.682      865.327
10/26/2013  15:43:00       44.235      141.556      -13.200       57.335       64.575       55.998     3287.346     4169.964     3135.739        1.638        0.530      148.306       48.236        0.106      344.546       21.442      865.329
10/26/2013  15:44:00       32.175       29.395       25.089       34.318       44.080       41.508     1177.720     1943.031     1722.942        0.369        0.242       43.581       32.465        0.555      344.687       21.683      865.318
10/26/2013  15:45:00       34.186       13.420       13.887       22.199       16.068       18.200      492.814      258.190      331.255        0.131        0.054       36.726       11.429        0.097      344.740       21.773      865.302
10/26/2013  15:46:00       75.277       37.103       13.550       36.056       31.347       28.009     1300.067      982.631      784.494        0.515        0.153       83.925       10.419        0.015      344.798       21.873      865.290
10/26/2013  15:47:00       82.793       78.122        6.713       53.638       47.915       43.901     2877.046     2295.848     1927.274        1.005        0.355      113.832       34.753        0.093      344.718       21.736      865.287
10/26/2013  15:48:00       68.640       68.372       29.126       52.230       41.079       45.502     2727.968     1687.510     2070.477        0.836        0.324       96.883       19.922        0.042      344.773       21.829      865.292
10/26/2013  15:49:00        8.008       48.794       55.536       24.142       29.193       21.819      582.846      852.235      476.090        0.372        0.096       49.446       16.228        0.108      344.855       21.971      865.292
10/26/2013  15:50:00       25.670       34.599       49.471       28.578       37.521       21.561      816.717     1407.843      464.856        0.350        0.134       43.082       15.728        0.133      344.952       22.135      865.290
10/26/2013  15:51:00        0.777       33.924        4.744       36.043       48.963       29.455     1299.074     2397.408      867.584        0.287        0.228       33.933       28.270        0.694      345.081       22.357      865.275
10/26/2013  15:52:00       12.376      197.838      -33.213       31.136       48.708       26.033      969.424     2372.442      677.743        2.221        0.201      198.225       28.495        0.021      344.705       21.711      865.271
10/26/2013  15:53:00      -32.393      128.514      -10.270       26.442       35.413       18.745      699.194     1254.086      351.361        0.999        0.115      132.534       17.563        0.018      344.718       21.736      865.263
10/26/2013  15:54:00      -35.396      169.964      -21.788       45.570       60.900       25.918     2076.607     3708.796      671.738        1.854        0.323      173.610       27.726        0.026      344.718       21.733      865.260
10/26/2013  15:55:00        5.253      124.539      -28.773       30.037       53.518       14.838      902.203     2864.147      220.173        1.018        0.199      124.650       22.305        0.032      344.609       21.550      865.257
10/26/2013  15:56:00       27.939      107.153       -6.171       28.914       97.766       30.998      836.042     9558.262      960.851        1.183        0.568      110.736       45.118        0.166      344.636       21.594      865.250
10/26/2013  15:57:00       -0.173      119.428       -3.299       25.477       46.671       32.932      649.073     2178.216     1084.523        0.909        0.196      119.428       36.357        0.093      344.615       21.561      865.248
10/26/2013  15:58:00      -36.226       40.942       -0.356       33.638       44.065       30.636     1131.546     1941.760      938.594        0.350        0.201       54.668       32.319        0.349      344.886       22.022      865.241
10/26/2013  15:59:00      -59.873       94.640      -10.168       37.717       46.564       27.958     1422.540     2168.212      781.652        0.851        0.219      111.989       24.969        0.050      344.934       22.106      865.232
10/26/2013  16:00:00      -45.711       83.752      -17.076       22.626       30.100       18.963      511.958      906.035      359.587        0.559        0.089       95.414       17.680        0.034      344.735       21.765      865.229
10/26/2013  16:01:00        0.292       96.075      -11.398       17.519       27.243       17.067      306.900      742.205      291.290        0.535        0.067       96.076       12.453        0.017      344.682       21.675      865.227
10/26/2013  16:02:00        3.433       63.161      -10.380       30.414       33.505       18.909      924.995     1122.616      357.560        0.326        0.120       63.254       20.966        0.110      344.824       21.917      865.226
10/26/2013  16:03:00       82.303       68.149        7.314       94.502       64.195       48.914     8930.703     4121.049     2392.578        1.346        0.772      106.855       35.386        0.110      344.953       22.137      865.215
10/26/2013  16:04:00      199.560      138.615       20.023       55.871       43.654       45.882     3121.602     1905.714     2105.138        3.328        0.357      242.978       28.819        0.014      344.677       21.661      865.204
10/26/2013  16:05:00      131.811       91.892       10.011       37.056       32.807       25.255     1373.119     1076.322      637.808        1.450        0.154      160.681       11.333        0.005      344.540       21.431      865.202
10/26/2013  16:06:00       22.148       43.778        3.122       27.843       33.586       25.056      775.242     1127.989      627.797        0.247        0.127       49.061       18.957        0.149      344.680       21.671      865.181
10/26/2013  16:07:00       26.250       31.043       19.550       24.822       27.028       32.226      616.148      730.527     1038.523        0.221        0.119       40.654       22.848        0.316      344.805       21.886      865.173
10/26/2013  16:08:00       70.395       55.237       12.910       52.578       48.050       34.494     2764.458     2308.764     1189.857        0.722        0.313       89.479       26.227        0.086      344.807       21.888      865.160
10/26/2013  16:09:00       42.031       71.407       62.232       49.942       44.128       50.971     2494.212     1947.249     2598.073        0.889        0.352       82.859       41.307        0.249      344.845       21.954      865.148
10/26/2013  16:10:00      169.208      117.955       47.258      109.019       63.408       69.944    11885.142     4020.605     4892.105        3.278        1.040      206.264       47.012        0.052      344.797       21.868      865.142
10/26/2013  16:11:00      132.613       73.467       44.956       89.462       88.098       59.766     8003.538     7761.213     3571.966        2.217        0.967      151.604       38.630        0.065      344.829       21.922      865.129
10/26/2013  16:12:00      164.286       96.740       56.131      111.781       96.337       59.976    12494.952     9280.822     3597.096        3.243        1.269      190.652       40.347        0.045      344.808       21.887      865.119
10/26/2013  16:13:00      172.113       95.583       40.741       63.694       53.453       56.061     4056.939     2857.180     3142.786        2.524        0.503      196.873       33.266        0.029      344.797       21.867      865.119
10/26/2013  16:14:00       87.522       82.436       95.254      101.392       85.712       89.787    10280.307     7346.542     8061.657        2.460        1.284      120.232       79.295        0.435      344.881       22.013      865.104
10/26/2013  16:15:00      270.477      154.443       38.102      103.576       78.938       67.197    10728.008     6231.189     4515.420        5.996        1.074      311.465       48.249        0.024      344.623       21.570      865.116
10/26/2013  16:16:00      141.150       55.166       46.348      101.374       69.920       54.472    10276.781     4888.863     2967.163        2.162        0.907      151.548       43.080        0.081      344.579       21.498      865.120
10/26/2013  16:17:00       27.807       27.045       15.948       59.423       38.295       38.401     3531.092     1466.482     1474.671        0.411        0.324       38.790       33.194        0.732      344.712       21.725      865.110
10/26/2013  16:18:00      105.736       89.734       18.717      100.194       53.904       47.367    10038.911     2905.666     2243.614        1.738        0.759      138.680       32.731        0.056      344.582       21.502      865.100
10/26/2013  16:19:00      139.047       83.506       20.455       40.430       37.703       32.540     1634.609     1421.539     1058.848        1.542        0.206      162.195        6.456        0.002      344.600       21.533      865.094
10/26/2013  16:20:00      169.173      133.690       35.237       81.416       70.721       62.611     6628.501     5001.486     3920.093        3.164        0.778      215.622       49.287        0.052      344.702       21.706      865.093
10/26/2013  16:21:00      176.356      111.121       39.528       75.831       66.915       47.676     5750.339     4477.665     2273.041        2.875        0.625      208.445       37.280        0.032      344.728       21.750      865.084
10/26/2013  16:22:00       88.183       81.528      112.827      112.764      101.484       85.854    12715.815    10298.905     7370.873        2.876        1.519      120.097       80.160        0.446      344.814       21.897      865.054
10/26/2013  16:23:00      220.939      175.970       98.543      125.040       80.827       85.588    15634.939     6533.027     7325.241        5.949        1.475      282.453       77.633        0.076      344.654       21.621      865.062
10/26/2013  16:24:00      137.692       58.530       16.194       79.780       59.056       28.553     6364.843     3487.655      815.293        1.666        0.533      149.615       22.546        0.023      344.574       21.487      865.076
10/26/2013  16:25:00       32.713       36.496       36.649       44.499       37.208       40.090     1980.135     1384.427     1607.179        0.436        0.249       49.011       32.134        0.430      344.725       21.747      865.053
10/26/2013  16:26:00       45.425       81.107       85.649       63.062       60.859       60.452     3976.819     3703.758     3654.451        1.365        0.567       92.961       58.065        0.390      344.677       21.664      865.052
10/26/2013  16:27:00       30.107       28.508       47.684       57.140       33.107       31.514     3264.996     1096.080      993.109        0.467        0.268       41.462       25.107        0.367      344.783       21.844      865.044
10/26/2013  16:28:00      102.820       72.045       14.551       83.491       52.176       43.873     6970.755     2722.370     1924.880        1.379        0.581      125.548       33.983        0.073      344.770       21.823      865.042
10/26/2013  16:29:00      226.710      130.596        8.929       59.312       39.909       44.443     3517.917     1592.718     1975.155        3.781        0.354      261.635       16.580        0.004      344.596       21.522      865.036
10/26/2013  16:30:00      226.177      132.844       40.259       65.157       49.608       44.080     4245.395     2460.920     1943.035        3.954        0.432      262.304       19.628        0.006      344.646       21.608      865.023
10/26/2013  16:31:00      215.588      155.464       60.896       96.599       67.470       62.804     9331.406     4552.264     3944.289        4.609        0.891      265.796       44.819        0.028      344.633       21.588      865.007
10/26/2013  16:32:00      166.139       88.511       61.607       68.319       58.121       45.852     4667.495     3378.008     2102.444        2.469        0.507      188.245       33.858        0.032      344.669       21.648      864.984
10/26/2013  16:33:00       46.250       60.455       64.042       68.296       56.684       45.655     4664.376     3213.044     2084.392        0.993        0.498       76.118       44.056        0.335      344.762       21.810      864.969
10/26/2013  16:34:00      130.067       79.215       53.242       88.123       75.097       71.521     7765.690     5639.490     5115.262        2.227        0.926      152.291       61.151        0.161      344.745       21.779      864.959
10/26/2013  16:35:00      194.805      136.164       67.342       91.211       62.739       50.447     8319.489     3936.166     2544.856        3.791        0.740      237.675       42.327        0.032      344.717       21.729      864.952
10/26/2013  16:36:00      217.297      126.575       41.608       73.436       66.656       44.340     5392.832     4443.013     1966.042        3.838        0.590      251.474       33.261        0.017      344.733       21.757      864.946
10/26/2013  16:37:00      190.372      116.205       41.079       58.319       56.365       56.095     3401.098     3177.049     3146.613        3.058        0.486      223.036       26.021        0.014      344.754       21.794      864.952
10/26/2013  16:38:00       47.139       28.435       11.623       69.910       35.593       30.444     4887.371     1266.837      926.844        0.512        0.354       55.052       12.399        0.051      344.805       21.884      864.945
10/26/2013  16:39:00      137.828       97.894        1.766       88.449       52.751       42.511     7823.222     2782.684     1807.207        2.050        0.621      169.056       31.915        0.036      344.816       21.900      864.939
10/26/2013  16:40:00      160.329       85.879       10.954       82.030       51.103       43.457     6728.883     2611.491     1888.484        2.221        0.561      181.881       25.343        0.019      344.690       21.685      864.933
10/26/2013  16:41:00       78.627       23.961       15.645      102.007       79.697       45.792    10405.529     6351.544     2096.908        1.292        0.943       82.197       20.310        0.061      344.723       21.743      864.914
10/26/2013  16:42:00      172.645      141.596       13.262      130.457       75.839       61.928    17019.040     5751.499     3835.111        3.831        1.330      223.283       35.558        0.025      344.613       21.552      864.904
10/26/2013  16:43:00      226.513      127.019       33.800       92.416       68.988       59.100     8540.798     4759.304     3492.800        4.269        0.840      259.696       39.251        0.023      344.578       21.494      864.880
10/26/2013  16:44:00      219.364      146.679       34.422      112.782       79.011       57.464    12719.843     6242.756     3302.148        4.654        1.113      263.885       36.475        0.019      344.584       21.503      864.876
10/26/2013  16:45:00      210.266      100.428       54.967      117.174       99.241       78.252    13729.691     9848.833     6123.441        4.351        1.485      233.019       66.083        0.080      344.615       21.557      864.849
10/26/2013  16:46:00      154.653      110.698       51.865      125.341       90.790       70.785    15710.337     8242.782     5010.521        3.391        1.448      190.188       43.630        0.053      344.684       21.675      864.862
10/26/2013  16:47:00      130.847       91.179       38.925       90.434       64.850       46.836     8178.288     4205.486     2193.603        2.076        0.729      159.482       39.097        0.060      344.658       21.632      864.874
10/26/2013  16:48:00       88.033       50.444       23.378       81.582       61.712       42.489     6655.562     3808.325     1805.306        1.155        0.613      101.461       40.228        0.157      344.646       21.613      864.868
10/26/2013  16:49:00      164.116      113.870       13.968       83.877       61.160       52.208     7035.307     3740.603     2725.647        2.680        0.675      199.751       22.896        0.013      344.577       21.491      864.866
10/26/2013  16:50:00      142.769      101.270        8.629       76.244       56.713       42.463     5813.130     3216.353     1803.091        2.077        0.542      175.039       27.440        0.025      344.545       21.438      864.867
10/26/2013  16:51:00      162.965      104.292       14.355       48.529       34.798       30.987     2355.107     1210.934      960.222        2.108        0.226      193.479       13.725        0.005      344.562       21.467      864.869
10/26/2013  16:52:00      131.851       77.104       30.934       65.060       48.436       35.112     4232.777     2346.039     1232.870        1.605        0.391      152.741       16.939        0.012      344.593       21.522      864.887
10/26/2013  16:53:00      122.364       81.217       74.930      104.729       78.579       63.997    10968.193     6174.728     4095.677        2.421        1.062      146.864       45.014        0.094      344.606       21.541      864.893
10/26/2013  16:54:00       96.680       62.320       98.824      117.351       77.143       70.274    13771.172     5951.013     4938.428        2.382        1.233      115.025       77.012        0.448      344.624       21.573      864.876
10/26/2013  16:55:00       98.135       88.212       65.899       96.997       72.540       56.567     9408.357     5262.059     3199.868        1.981        0.894      131.954       52.140        0.156      344.592       21.519      864.891
10/26/2013  16:56:00      155.910      122.764       20.625       75.300       51.925       52.621     5670.055     2696.179     2768.927        2.547        0.557      198.441       23.221        0.014      344.514       21.385      864.888
10/26/2013  16:57:00      163.185       83.251       46.811      124.025       81.259       60.271    15382.224     6602.999     3632.541        3.068        1.281      183.194       40.940        0.050      344.568       21.478      864.865
10/26/2013  16:58:00      138.371       90.210       23.602       59.169       47.657       49.812     3501.028     2271.230     2481.248        1.805        0.413      165.180       26.171        0.025      344.523       21.400      864.882
10/26/2013  16:59:00      107.200       86.107       24.402       57.285       63.358       54.159     3281.542     4014.251     2933.172        1.486        0.511      137.500       36.229        0.069      344.519       21.394      864.880
10/26/2013  17:00:00      157.605       95.297       32.085       65.681       51.026       45.661     4313.934     2603.668     2084.931        2.197        0.450      184.176       29.148        0.025      344.510       21.378      864.869
10/26/2013  17:01:00      216.993      122.283       26.703       70.589       77.488       49.864     4982.862     6004.463     2486.457        3.811        0.674      249.076       19.708        0.006      344.524       21.400      864.862
10/26/2013  17:02:00      209.996      110.351       52.242      101.206       53.965       59.473    10242.711     2912.220     3537.018        3.785        0.835      237.225       37.007        0.024      344.522       21.398      864.850
10/26/2013  17:03:00      178.385       58.424       63.379      104.851       73.261       60.540    10993.763     5367.101     3665.122        2.964        1.001      187.709       54.254        0.084      344.494       21.351      864.852
10/26/2013  17:04:00      201.323       97.983       31.763      114.778       94.512       74.802    13173.989     8932.509     5595.375        3.942        1.385      223.901       60.662        0.073      344.461       21.292      864.853
10/26/2013  17:05:00      117.656       93.697       71.784       72.276       76.847       54.027     5223.842     5905.414     2918.883        2.091        0.702      150.406       39.429        0.069      344.438       21.255      864.856
10/26/2013  17:06:00      137.654      101.059       18.446       74.991       65.497       44.065     5623.716     4289.798     1941.727        2.068        0.593      170.768       35.643        0.044      344.439       21.257      864.855
10/26/2013  17:07:00      213.482      147.492       41.339       86.315       62.464       54.249     7450.276     3901.785     2942.963        4.166        0.715      259.477       36.450        0.020      344.433       21.244      864.850
10/26/2013  17:08:00      157.212      112.439       31.594       86.719       68.611       67.040     7520.253     4707.453     4494.364        2.754        0.836      193.283       25.098        0.017      344.425       21.231      864.848
10/26/2013  17:09:00      260.718      159.189       38.832      110.495       96.903       61.376    12209.159     9390.167     3766.987        6.009        1.268      305.475       42.095        0.019      344.425       21.231      864.852
10/26/2013  17:10:00      252.244      166.474       31.197       75.273       70.005       48.428     5666.065     4900.639     2345.274        5.261        0.646      302.226       17.757        0.003      344.402       21.191      864.850
10/26/2013  17:11:00       58.965       47.996       59.330       63.113       55.216       37.827     3983.197     3048.849     1430.848        0.888        0.423       76.030       29.168        0.147      344.401       21.193      864.853
10/26/2013  17:12:00      131.613       57.764       48.825      114.904       81.691       62.880    13202.883     6673.372     3953.832        2.343        1.192      143.731       55.046        0.147      344.394       21.179      864.849
10/26/2013  17:13:00      193.562       78.310       50.504      135.380       93.862       88.602    18327.752     8810.077     7850.312        4.056        1.749      208.803       65.981        0.100      344.374       21.145      864.834
10/26/2013  17:14:00      218.148      116.154       61.583      144.128      111.143       69.389    20772.765    12352.780     4814.772        5.140        1.897      247.144       50.002        0.041      344.342       21.091      864.844
10/26/2013  17:15:00      195.733       85.313       53.170      110.339       84.510       55.061    12174.727     7141.946     3031.734        3.538        1.117      213.517       34.177        0.026      344.327       21.066      864.852
10/26/2013  17:16:00      101.816       37.344       43.480       99.422       70.256       52.563     9884.644     4935.910     2762.910        1.561        0.879      108.449       36.270        0.112      344.312       21.039      864.840
10/26/2013  17:17:00      191.713      101.617       34.734       92.115       83.702       55.124     8485.228     7006.033     3038.686        3.340        0.926      216.979       39.316        0.033      344.284       20.993      864.833
10/26/2013  17:18:00      250.270      121.969       42.717       99.586       86.520       52.335     9917.300     7485.738     2738.924        4.974        1.007      278.409       39.218        0.020      344.345       21.095      864.816
10/26/2013  17:19:00      115.331       36.073       10.184       51.806       43.934       41.304     2683.900     1930.215     1706.025        1.051        0.316      120.841       23.318        0.037      344.270       20.970      864.814
10/26/2013  17:20:00      157.357       79.597       58.679      111.755       83.680       71.315    12489.173     7002.384     5085.816        2.955        1.229      176.344       61.368        0.121      344.266       20.962      864.792
10/26/2013  17:21:00      198.443      124.951       64.090       97.521       73.340       62.570     9510.336     5378.762     3915.020        3.895        0.940      234.504       49.813        0.045      344.266       20.960      864.777
10/26/2013  17:22:00      197.925       67.125       28.008      144.994       85.129       59.285    21023.360     7246.975     3514.675        3.812        1.589      208.998       60.903        0.085      344.273       20.973      864.748
10/26/2013  17:23:00      140.011       76.280       43.357       80.092       63.621       50.748     6414.775     4047.635     2575.375        2.017        0.652      159.442       26.460        0.028      344.198       20.844      864.737
10/26/2013  17:24:00      155.304       66.287       35.196       88.221       70.944       50.491     7782.963     5033.051     2549.373        2.256        0.768      168.859       33.933        0.040      344.221       20.885      864.736
10/26/2013  17:25:00      155.324       60.099       31.800       69.368       55.564       45.493     4811.859     3087.322     2069.642        1.936        0.498      166.545       30.474        0.033      344.196       20.841      864.736
10/26/2013  17:26:00       84.277       41.969       55.841       68.291       45.094       34.197     4663.683     2033.482     1169.428        0.992        0.393       94.149       33.971        0.130      344.147       20.760      864.722
10/26/2013  17:27:00       79.093       74.529       76.519       79.113       50.584       38.483     6258.834     2558.767     1480.921        1.398        0.515      108.675       45.166        0.173      344.173       20.804      864.711
10/26/2013  17:28:00       90.489       88.867       87.032      104.778       77.649       69.637    10978.529     6029.358     4849.341        2.276        1.093      126.829       74.201        0.342      344.185       20.823      864.711
10/26/2013  17:29:00       89.399      101.470       67.660       72.620       56.740       61.846     5273.720     3219.455     3824.895        1.759        0.616      135.234       39.502        0.085      344.208       20.863      864.719
10/26/2013  17:30:00      115.657       91.432       56.570       95.407       52.948       60.484     9102.589     2803.458     3658.336        2.025        0.778      147.432       45.950        0.097      344.133       20.734      864.707
10/26/2013  17:31:00      159.474       99.054       43.674      124.833       84.563       75.203    15583.250     7150.922     5655.472        3.277        1.419      187.733       71.662        0.146      344.140       20.743      864.693
10/26/2013  17:32:00      182.160      132.587       57.969      111.458       90.281       88.268    12422.873     8150.572     7791.276        4.124        1.418      225.303       64.455        0.082      344.160       20.777      864.695
10/26/2013  17:33:00      105.204       33.151       53.944       82.691       61.147       48.904     6837.869     3738.896     2391.608        1.402        0.648      110.303       36.128        0.107      344.109       20.694      864.708
10/26/2013  17:34:00      105.161       95.510       89.993       99.795       70.454       65.189     9959.055     4963.755     4249.627        2.372        0.959      142.060       55.606        0.153      344.078       20.640      864.699
10/26/2013  17:35:00      134.487      101.217       50.930       66.533       58.675       48.424     4426.621     3442.725     2344.910        2.057        0.511      168.320       34.246        0.041      344.064       20.617      864.703
10/26/2013  17:36:00       81.927       66.368       57.487       45.554       45.819       36.197     2075.181     2099.389     1310.252        0.995        0.274      105.436       25.872        0.060      344.020       20.542      864.717
10/26/2013  17:37:00      125.234       79.815       32.956       50.222       44.662       32.400     2522.278     1994.668     1049.774        1.435        0.278      148.506       29.458        0.039      343.979       20.471      864.722
10/26/2013  17:38:00      122.173       43.153       37.561       88.339       61.886       48.149     7803.695     3829.872     2318.319        1.607        0.698      129.570       34.897        0.073      343.940       20.404      864.716
10/26/2013  17:39:00      170.431       94.783       27.006       51.869       47.616       42.576     2690.369     2267.289     1812.707        2.276        0.339      195.015       23.192        0.014      343.926       20.380      864.719
10/26/2013  17:40:00       57.000       45.975       57.848       52.320       35.526       27.321     2737.425     1262.062      746.443        0.673        0.237       73.230       14.946        0.042      343.860       20.269      864.726
10/26/2013  17:41:00       69.370       23.442       37.317       46.781       38.563       26.851     2188.422     1487.092      720.955        0.557        0.220       73.224       20.812        0.081      343.841       20.236      864.733
10/26/2013  17:42:00      152.222       65.905       56.386      114.766       88.718       55.498    13171.213     7870.804     3080.074        2.740        1.206      165.877       48.955        0.087      343.967       20.451      864.728
10/26/2013  17:43:00       55.417       39.463       28.714       40.870       44.571       39.453     1670.340     1986.604     1556.572        0.533        0.261       68.032       26.771        0.155      343.879       20.302      864.743
10/26/2013  17:44:00       79.814       46.843       19.124       47.206       38.008       31.241     2228.425     1444.637      975.998        0.679        0.232       92.545       20.765        0.050      343.825       20.208      864.749
10/26/2013  17:45:00      103.111       77.756       37.751       44.615       29.955       33.802     1990.486      897.327     1142.548        1.107        0.202      129.143       18.626        0.021      343.852       20.256      864.745
10/26/2013  17:46:00       58.946       42.502       35.768       36.139       37.572       33.617     1306.061     1411.624     1130.096        0.520        0.192       72.671       25.145        0.120      343.765       20.108      864.750
10/26/2013  17:47:00       79.449       32.331       29.698       44.158       39.821       36.951     1949.946     1585.682     1365.373        0.657        0.245       85.775       24.497        0.082      343.741       20.066      864.749
10/26/2013  17:48:00       91.309       28.276       24.132       77.599       38.849       35.913     6021.592     1509.225     1289.756        0.927        0.441       95.587       39.419        0.170      343.742       20.068      864.744
10/26/2013  17:49:00      105.673       50.359       17.677       63.027       45.259       44.162     3972.440     2048.377     1950.271        1.099        0.399      117.059       21.454        0.034      343.793       20.155      864.737
10/26/2013  17:50:00       98.873       48.700       21.781       35.272       38.878       29.981     1244.085     1511.527      898.871        0.814        0.183      110.216       18.195        0.027      343.664       19.935      864.750
10/26/2013  17:51:00      101.429       19.785        8.217       41.659       34.025       32.195     1735.493     1157.734     1036.493        0.734        0.196      103.341       22.511        0.047      343.698       19.991      864.752
10/26/2013  17:52:00       99.516       50.879        5.045       31.120       25.865       24.956      968.485      668.974      622.778        0.739        0.113      111.768       15.453        0.019      343.646       19.906      864.746
10/26/2013  17:53:00       90.273       57.621       14.118       36.430       36.611       25.447     1327.156     1340.394      647.548        0.749        0.166      107.095       15.701        0.021      343.628       19.874      864.752
10/26/2013  17:54:00      110.046       53.545       10.330       57.779       36.796       22.972     3338.367     1353.956      527.730        1.015        0.261      122.382        9.882        0.007      343.666       19.938      864.755
10/26/2013  17:55:00       82.597       50.014       27.178       26.546       25.629       23.483      704.675      656.862      551.458        0.599        0.096       96.559       14.339        0.022      343.558       19.755      864.755
10/26/2013  17:56:00       84.086       48.469        7.201       46.351       33.750       29.940     2148.374     1139.034      896.407        0.683        0.209       97.056       11.705        0.015      343.696       19.990      864.759
10/26/2013  17:57:00       86.381       30.165       11.460       34.906       20.092       23.442     1218.416      403.687      549.533        0.534        0.109       91.496        9.126        0.010      343.527       19.701      864.760
10/26/2013  17:58:00      107.051       53.764       28.298       48.864       59.157       35.833     2387.737     3499.580     1284.033        1.116        0.359      119.793       25.196        0.044      343.595       19.817      864.764
10/26/2013  17:59:00       99.514       35.046       32.714       27.448       38.944       28.684      753.414     1516.598      822.744        0.765        0.155      105.505       18.869        0.032      343.588       19.805      864.784
10/26/2013  18:00:00       61.679       36.273       11.211       37.492       35.370       27.371     1405.663     1251.066      749.186        0.433        0.170       71.554       12.963        0.033      343.583       19.797      864.783
10/26/2013  18:01:00       64.633       29.551       16.245       22.126       30.613       16.595      489.563      937.147      275.386        0.351        0.085       71.068        6.008        0.007      343.481       19.622      864.805
10/26/2013  18:02:00       52.900       41.386       31.176       36.594       29.863       20.001     1339.098      891.797      400.030        0.406        0.132       67.166       17.680        0.069      343.549       19.737      864.815
10/26/2013  18:03:00       70.618       53.761       10.943       32.609       27.374       21.886     1063.317      749.359      479.011        0.514        0.115       88.753       12.304        0.019      343.582       19.795      864.820
10/26/2013  18:04:00       68.691       43.495       -1.406       31.879       15.969       19.367     1016.278      255.018      375.073        0.413        0.082       81.304       14.331        0.031      343.502       19.659      864.845
10/26/2013  18:05:00      116.669       69.164       18.167       35.137       37.335       24.315     1234.588     1393.928      591.208        1.097        0.161      135.629       22.282        0.027      343.558       19.755      864.855
10/26/2013  18:06:00       43.713       55.314        9.589       39.725       38.864       26.581     1578.078     1510.385      706.565        0.443        0.190       70.502       19.434        0.076      343.520       19.690      864.868
10/26/2013  18:07:00       74.376       72.598       13.965       36.593       30.409       33.820     1339.084      924.719     1143.776        0.720        0.170      103.934       16.005        0.024      343.578       19.788      864.885
10/26/2013  18:08:00       59.539       36.396        6.616       29.578       23.853       29.549      874.830      568.978      873.116        0.361        0.116       69.783       16.533        0.056      343.487       19.634      864.895
10/26/2013  18:09:00       31.793       26.119       -9.097       27.906       20.252       13.828      778.733      410.136      191.212        0.158        0.069       41.146        8.596        0.044      343.382       19.454      864.905
10/26/2013  18:10:00       14.725       10.838       -3.260       13.129       10.689        7.389      172.364      114.250       54.599        0.034        0.017       18.284        7.703        0.177      343.280       19.282      864.907
10/26/2013  18:11:00       29.300       32.199       -3.617       17.286       15.223        9.191      298.815      231.725       84.475        0.126        0.031       43.535        6.860        0.025      343.310       19.331      864.914
10/26/2013  18:12:00       41.239       41.355        2.561       28.261       15.613       14.235      798.677      243.778      202.629        0.233        0.062       58.403       12.793        0.048      343.380       19.452      864.907
10/26/2013  18:13:00       30.355       32.328        1.843       21.738       21.589       16.420      472.547      466.103      269.606        0.159        0.060       44.345       11.179        0.064      343.303       19.320      864.911
10/26/2013  18:14:00       19.362       16.514       -3.839       19.111       10.668        9.406      365.248      113.811       88.464        0.061        0.028       25.448        5.959        0.055      343.286       19.291      864.902
10/26/2013  18:15:00       10.171       16.766       -2.622       14.301       12.949       10.499      204.528      167.669      110.236        0.044        0.024       19.610        8.951        0.208      343.239       19.212      864.903
10/26/2013  18:16:00       15.913       11.829        3.079       15.570       13.237       10.809      242.410      175.206      116.834        0.047        0.027       19.828        6.041        0.093      343.265       19.255      864.899
10/26/2013  18:17:00       22.649       42.682       -4.703       25.834       19.974       13.959      667.405      398.959      194.840        0.181        0.063       48.320       15.473        0.103      343.321       19.350      864.901
10/26/2013  18:18:00       13.698       30.733       -1.105       15.147       21.648       11.210      229.427      468.615      125.654        0.098        0.041       33.647       10.861        0.104      343.287       19.292      864.910
10/26/2013  18:19:00        4.083       42.612      -11.280       10.231       11.342        6.544      104.670      128.641       42.828        0.112        0.014       42.807        6.662        0.024      343.378       19.447      864.917
10/26/2013  18:20:00        5.918       62.659      -11.140       17.580       11.183        7.170      309.070      125.055       51.416        0.229        0.024       62.938        3.410        0.003      343.372       19.435      864.925
10/26/2013  18:21:00        5.024       51.685       -6.122       16.311       16.810        8.388      266.053      282.584       70.364        0.168        0.031       51.929        6.755        0.017      343.301       19.318      864.936
10/26/2013  18:22:00      -17.727       57.436      -13.265       18.977       21.499        7.626      360.111      462.223       58.161        0.233        0.044       60.109        7.796        0.017      343.372       19.440      864.949
10/26/2013  18:23:00       -6.725       64.786      -12.863       26.348       14.467        7.713      694.198      209.304       59.492        0.269        0.048       65.134        6.087        0.009      343.343       19.390      864.964
10/26/2013  18:24:00      -35.786       58.577      -11.277       34.339       27.971       13.746     1179.142      782.380      188.965        0.349        0.108       68.643        9.412        0.019      343.153       19.065      864.975
10/26/2013  18:25:00      -52.006       41.030      -11.816       14.593       20.664        9.832      212.959      427.018       96.673        0.263        0.037       66.243        7.373        0.012      342.963       18.741      864.982
10/26/2013  18:26:00      -40.863       37.657       -7.470       22.500       34.361       12.461      506.260     1180.673      155.276        0.249        0.092       55.569       17.928        0.104      343.014       18.828      864.991
10/26/2013  18:27:00      -21.122       63.637       -8.228       23.799       55.506       17.271      566.388     3080.870      298.290        0.425        0.197       67.051       20.301        0.092      343.061       18.907      864.995
10/26/2013  18:28:00      -36.028       79.391      -13.751       18.420       37.983       13.697      339.291     1442.711      187.604        0.488        0.098       87.183        9.848        0.013      343.148       19.055      864.993
10/26/2013  18:29:00      -54.551      -11.616      -13.244       20.743       29.474       12.754      430.282      868.706      162.660        0.237        0.073       55.774       15.052        0.073      342.808       18.477      864.993
10/26/2013  18:30:00      -46.665      -17.342      -16.433       16.035       16.257        9.195      257.105      264.290       84.548        0.168        0.030       49.783        8.493        0.029      342.682       18.262      864.994
10/26/2013  18:31:00      -82.638      -23.905      -13.779       22.754       17.987       15.448      517.749      323.546      238.646        0.433        0.054       86.026        6.744        0.006      342.420       17.817      864.994
10/26/2013  18:32:00      -89.794       -6.743       -9.332       46.886       34.061       23.643     2198.297     1160.153      558.993        0.606        0.196       90.047       21.175        0.055      342.284       17.586      864.997
10/26/2013  18:33:00     -120.406        9.717      -11.802       48.515       32.547       24.931     2353.678     1059.303      621.561        0.938        0.202      120.797       22.284        0.034      342.235       17.502      864.999
10/26/2013  18:34:00      -96.441        0.490      -15.850       30.273       25.881       19.424      916.444      669.849      377.291        0.576        0.098       96.442       15.748        0.027      342.205       17.451      865.016
10/26/2013  18:35:00      -66.823       10.055       -9.881       21.386       16.305       14.051      457.381      265.841      197.436        0.279        0.046       67.575       12.866        0.036      342.280       17.580      865.022
10/26/2013  18:36:00      -65.830        6.731      -10.890       16.200       19.349       13.283      262.449      374.383      176.444        0.266        0.041       66.173        7.239        0.012      342.477       17.913      865.026
10/26/2013  18:37:00      -70.978       10.537      -10.347       25.654       33.222       16.086      658.108     1103.688      258.769        0.364        0.101       71.755       14.383        0.040      342.450       17.869      865.034
10/26/2013  18:38:00      -71.652       49.573      -10.858       31.003       45.026       16.617      961.195     2027.314      276.120        0.549        0.163       87.130       14.704        0.028      342.573       18.078      865.046
10/26/2013  18:39:00      -74.945       67.859      -13.025       31.706       51.204       19.417     1005.273     2621.863      377.004        0.720        0.200      101.102       23.045        0.052      342.703       18.299      865.056
10/26/2013  18:40:00      -75.380       44.600      -16.132       23.070       35.744       16.595      532.212     1277.608      275.395        0.501        0.104       87.586       12.022        0.019      342.676       18.253      865.064
10/26/2013  18:41:00      -41.881       15.694       -4.110       46.868       31.979       23.728     2196.626     1022.645      563.007        0.290        0.189       44.725       24.752        0.306      342.391       17.767      865.071
10/26/2013  18:42:00      -56.799       60.185      -11.157       41.092       65.663       29.337     1688.550     4311.570      860.678        0.692        0.343       82.755       33.558        0.164      342.609       18.139      865.077
10/26/2013  18:43:00      -87.610       17.972      -12.106       21.550       26.981       11.795      464.399      727.980      139.112        0.474        0.067       89.435       10.582        0.014      342.626       18.167      865.079
10/26/2013  18:44:00      -89.884       34.900      -16.853       16.052       23.195       15.319      257.654      538.027      234.664        0.531        0.052       96.422        8.599        0.008      342.498       17.949      865.082
10/26/2013  18:45:00      -91.380       23.876      -13.722       20.841       23.692       10.669      434.362      561.292      113.823        0.511        0.055       94.448        8.222        0.008      342.545       18.028      865.078
10/26/2013  18:46:00      -81.622       20.011      -13.731       19.793       15.666       10.882      391.766      245.438      118.421        0.400        0.038       84.039        7.690        0.008      342.430       17.834      865.083
10/26/2013  18:47:00      -73.739       22.700      -11.774       21.559       20.029       15.186      464.774      401.143      230.606        0.359        0.055       77.154       11.111        0.021      342.362       17.719      865.088
10/26/2013  18:48:00      -52.392       21.657       -3.998       19.783       18.652       13.830      391.372      347.893      191.272        0.208        0.047       56.692        5.062        0.008      342.469       17.900      865.085
10/26/2013  18:49:00      -51.805        7.723       -6.833       20.974       16.277       10.199      439.889      264.932      104.016        0.180        0.040       52.377        9.943        0.036      342.365       17.721      865.092
10/26/2013  18:50:00      -68.597       22.527       -9.562       22.683       28.339       13.971      514.524      803.102      195.185        0.341        0.076       72.201        7.088        0.010      342.456       17.878      865.095
10/26/2013  18:51:00     -106.775       79.790      -25.128       26.027       38.928       18.017      677.395     1515.400      324.607        1.046        0.126      133.294       17.870        0.018      342.671       18.244      865.094
10/26/2013  18:52:00      -88.916       95.586      -20.981       35.663       18.620       15.539     1271.870      346.708      241.458        0.967        0.093      130.548       17.821        0.019      342.837       18.527      865.097
10/26/2013  18:53:00      -77.023       93.949      -15.495       40.495       35.742       23.930     1639.854     1277.486      572.663        0.924        0.175      121.486       27.413        0.051      342.777       18.426      865.098
10/26/2013  18:54:00      -99.752       83.537      -25.875       32.193       28.728       14.277     1036.394      825.277      203.835        0.983        0.103      130.111        8.325        0.004      342.565       18.063      865.096
10/26/2013  18:55:00      -38.468       76.664      -13.470       52.853       38.673       25.519     2793.462     1495.595      651.232        0.624        0.247       85.774       25.716        0.090      342.938       18.699      865.090
10/26/2013  18:56:00      -60.671       54.069      -10.860       18.257       31.859       15.930      333.305     1015.019      253.757        0.416        0.080       81.267       13.610        0.028      342.665       18.234      865.097
10/26/2013  18:57:00      -49.545       33.913       -7.707       24.555       22.490       13.001      602.946      505.780      169.027        0.247        0.064       60.040        9.996        0.028      342.440       17.850      865.090
10/26/2013  18:58:00      -83.632       -1.670      -10.892       13.478       11.894        9.121      181.668      141.471       83.189        0.376        0.020       83.649        6.508        0.006      342.034       17.162      865.091
10/26/2013  18:59:00      -80.363       -2.336      -12.676       11.666       10.972        7.953      136.102      120.378       63.251        0.347        0.016       80.397        4.562        0.003      341.941       17.003      865.103
10/26/2013  19:00:00      -66.773       18.998      -12.333       17.779       27.971       15.019      316.108      782.374      225.563        0.315        0.066       69.423       12.328        0.032      341.915       16.959      865.099
10/26/2013  19:01:00      -69.627       21.067      -16.053       20.533       19.167       13.524      421.611      367.387      182.900        0.326        0.049       72.744        6.899        0.009      341.763       16.701      865.100
10/26/2013  19:02:00      -69.014       32.684      -11.243       21.108       19.899       12.137      445.566      395.983      147.318        0.347        0.049       76.362        4.299        0.003      341.853       16.854      865.104
10/26/2013  19:03:00      -57.729       29.676       -7.731       23.496       37.930       15.844      552.064     1438.673      251.037        0.326        0.112       64.911       17.980        0.077      341.942       17.006      865.112
10/26/2013  19:04:00      -74.502       26.409       -9.254       22.245       26.378       12.447      494.838      695.823      154.916        0.384        0.067       79.045       11.823        0.022      342.046       17.180      865.125
10/26/2013  19:05:00      -66.189       56.437      -12.254       22.444       31.119       22.108      503.747      968.417      488.756        0.484        0.098       86.984       18.455        0.045      342.159       17.374      865.130
10/26/2013  19:06:00      -60.609       39.145      -12.439       19.916       26.667       11.974      396.637      711.147      143.382        0.331        0.063       72.151        7.319        0.010      342.091       17.257      865.144
10/26/2013  19:07:00      -69.119       44.333      -12.127       21.841       32.591       14.143      477.008     1062.150      200.038        0.431        0.087       82.115       12.892        0.025      341.905       16.942      865.154
10/26/2013  19:08:00      -69.520       78.726      -17.598       28.917       39.758       17.916      836.216     1580.684      320.971        0.704        0.137      105.027       16.851        0.026      342.215       17.469      865.159
10/26/2013  19:09:00      -47.723      103.760      -15.145       25.060       28.629       15.276      627.997      819.598      233.360        0.748        0.084      114.209       11.295        0.010      342.429       17.832      865.167
10/26/2013  19:10:00      -50.942       88.596      -15.218       26.642       32.270       12.686      709.792     1041.370      160.944        0.629        0.096      102.198       11.384        0.012      342.278       17.576      865.167
10/26/2013  19:11:00      -41.915      113.322      -11.950       23.387       28.870       18.026      546.970      833.475      324.941        0.822        0.085      120.825       14.890        0.015      342.350       17.698      865.163
10/26/2013  19:12:00      -58.604      101.805      -20.155       27.427       24.791       15.132      752.265      614.570      228.986        0.790        0.080      117.468       12.658        0.012      342.332       17.668      865.160
10/26/2013  19:13:00      -51.118      107.266      -22.792       23.035       29.406       16.520      530.596      864.712      272.917        0.815        0.083      118.823       12.657        0.011      342.327       17.658      865.157
10/26/2013  19:14:00      -63.075       83.885      -15.915       28.055       24.127       13.107      787.066      582.106      171.792        0.640        0.077      104.953       10.304        0.010      342.142       17.344      865.150
10/26/2013  19:15:00      -61.910       98.592      -17.715       32.685       30.824       17.752     1068.341      950.094      315.123        0.810        0.117      116.418       14.793        0.016      342.155       17.367      865.145
10/26/2013  19:16:00      -53.432      121.629      -19.542       22.762       29.168       18.516      518.131      850.744      342.831        0.987        0.086      132.848       14.673        0.012      342.309       17.628      865.145
10/26/2013  19:17:00      -41.021      134.445      -17.777       26.032       37.167       17.651      677.687     1381.349      311.551        1.122        0.119      140.564       15.816        0.013      342.444       17.858      865.148
10/26/2013  19:18:00      -37.571      128.922      -12.590       18.396       24.767       16.557      338.407      613.416      274.123        0.971        0.061      134.285       11.409        0.007      342.460       17.885      865.163
10/26/2013  19:19:00      -68.823       57.209      -13.315       26.138       38.231       14.307      683.219     1461.632      204.677        0.527        0.117       89.496       14.901        0.028      342.048       17.184      865.165
10/26/2013  19:20:00      -52.345       16.701       -9.896       18.074       31.743       16.734      326.654     1007.622      280.043        0.237        0.081       54.945       13.235        0.058      341.697       16.590      865.168
10/26/2013  19:21:00      -76.744        7.354      -12.686       19.881       26.538       10.248      395.268      704.286      105.023        0.365        0.060       77.095       13.185        0.029      341.590       16.408      865.161
10/26/2013  19:22:00      -92.095       13.329      -12.414       26.784       18.313       12.674      717.380      335.368      160.635        0.501        0.061       93.055        6.919        0.006      341.263       15.852      865.159
10/26/2013  19:23:00      -65.389       23.110       -4.683       22.911       17.799       13.534      524.896      316.817      183.163        0.293        0.051       69.352       11.039        0.025      341.504       16.263      865.164
10/26/2013  19:24:00      -83.394       61.753      -13.483       23.434       50.683       17.525      549.147     2568.778      307.137        0.719        0.171      103.769       22.165        0.046      341.820       16.799      865.158
10/26/2013  19:25:00      -72.428       22.063       -2.621       14.359       20.159       16.305      206.169      406.387      265.840        0.331        0.044       75.713       11.817        0.024      341.535       16.314      865.161
10/26/2013  19:26:00      -60.789       22.177       -7.630       19.735       17.806       13.261      389.474      317.045      175.845        0.256        0.044       64.708        9.072        0.020      341.499       16.254      865.161
10/26/2013  19:27:00      -76.835       20.070      -16.174       17.923       19.898        9.490      321.249      395.915       90.053        0.369        0.040       79.413        5.871        0.005      341.379       16.050      865.166
10/26/2013  19:28:00      -77.557       52.917      -19.395       20.915       46.851       15.340      437.429     2195.007      235.301        0.603        0.143       93.890       18.376        0.038      341.697       16.590      865.161
10/26/2013  19:29:00      -82.277       32.702      -17.077       28.976       29.457       19.887      839.593      867.744      395.480        0.512        0.105       88.537       19.202        0.047      341.535       16.316      865.161
10/26/2013  19:30:00      -97.376       72.841      -25.512       33.545       40.347       18.764     1125.244     1627.919      352.098        0.927        0.155      121.605       16.458        0.018      341.834       16.822      865.158
10/26/2013  19:31:00      -76.661       59.262      -17.912       31.791       43.603       18.761     1010.668     1901.202      351.971        0.649        0.163       96.896       16.587        0.029      341.519       16.289      865.159
10/26/2013  19:32:00      -97.543       60.576      -14.788       27.195       38.758       18.254      739.557     1502.177      333.206        0.799        0.129      114.822        7.044        0.004      341.728       16.643      865.151
10/26/2013  19:33:00      -78.298       57.216      -15.645       25.165       36.105       21.532      633.301     1303.597      463.621        0.602        0.120       96.975       17.040        0.031      341.695       16.586      865.153
10/26/2013  19:34:00      -77.354       38.128       -8.136       24.370       29.344       17.933      593.880      861.068      321.585        0.464        0.089       86.240       13.118        0.023      341.653       16.516      865.148
10/26/2013  19:35:00      -67.430       18.884       -9.696       24.476       24.031       15.587      599.085      577.503      242.945        0.321        0.071       70.024       13.377        0.036      341.403       16.093      865.152
10/26/2013  19:36:00      -86.231       79.269      -18.589       27.739       49.576       18.603      769.462     2457.732      346.059        0.882        0.179      117.129       20.207        0.030      341.705       16.604      865.152
10/26/2013  19:37:00      -67.500       16.197       -6.679       14.704       19.361       13.653      216.195      374.850      186.392        0.282        0.039       69.416       11.179        0.026      341.511       16.274      865.148
10/26/2013  19:38:00      -64.578      -10.727       -8.267       19.422       30.334       12.318      377.205      920.167      151.732        0.290        0.072       65.462        9.568        0.021      341.260       15.850      865.152
10/26/2013  19:39:00      -57.202       -7.956      -10.751       16.459       17.282       10.623      270.904      298.672      112.847        0.207        0.034       57.753        1.474        0.001      341.024       15.450      865.145
10/26/2013  19:40:00      -66.349      -17.756      -12.652       18.473       16.107       11.105      341.242      259.448      123.316        0.280        0.036       68.684        6.879        0.010      340.943       15.313      865.151
10/26/2013  19:41:00      -72.655      -32.686      -12.991       17.650       18.393       13.292      311.522      338.285      176.690        0.367        0.041       79.669        7.024        0.008      340.799       15.069      865.134
10/26/2013  19:42:00      -62.770      -13.898      -17.765       20.084       18.882       17.470      403.383      356.521      305.194        0.276        0.053       64.290       11.058        0.030      340.779       15.036      865.138
10/26/2013  19:43:00      -69.372      -41.323      -14.097       24.825       21.757       15.986      616.283      473.373      255.543        0.403        0.067       80.747       11.672        0.021      340.692       14.888      865.125
10/26/2013  19:44:00      -82.811      -56.838      -19.031       20.731       20.997       13.709      429.757      440.875      187.925        0.575        0.053      100.440        7.529        0.006      340.570       14.682      865.116
10/26/2013  19:45:00     -111.845      -62.479      -13.454       20.925       25.879       15.721      437.875      669.700      247.154        0.897        0.068      128.113       10.486        0.007      340.553       14.654      865.110
10/26/2013  19:46:00     -129.226      -47.338      -14.186       29.493       30.890       18.608      869.828      954.209      346.250        1.066        0.109      137.623       14.861        0.012      340.574       14.689      865.111
10/26/2013  19:47:00     -118.240      -37.896      -11.047       23.526       28.316       18.806      553.489      801.771      353.674        0.862        0.085      124.164       13.564        0.012      340.524       14.603      865.106
10/26/2013  19:48:00     -127.674      -32.281      -10.335       18.425       19.460       14.163      339.480      378.688      200.587        0.918        0.046      131.691        9.978        0.006      340.493       14.551      865.113
10/26/2013  19:49:00     -131.917      -30.520      -15.532       24.317       19.483       16.393      591.337      379.573      268.729        0.991        0.062      135.402        9.699        0.005      340.510       14.579      865.107
10/26/2013  19:50:00     -133.015      -52.263      -17.288       16.720       15.805       11.967      279.543      249.808      143.220        1.070        0.034      142.914        6.135        0.002      340.483       14.534      865.111
10/26/2013  19:51:00     -142.992      -16.788      -21.049       38.198       27.835       21.737     1459.079      774.789      472.499        1.194        0.135      143.974       18.627        0.017      340.505       14.571      865.109
10/26/2013  19:52:00     -161.161       -9.485      -26.100       27.567       27.564       22.295      759.929      759.787      497.060        1.438        0.101      161.440       15.956        0.010      340.454       14.486      865.105
10/26/2013  19:53:00     -119.795      -21.095      -10.838       56.081       34.876       28.483     3145.071     1216.367      811.282        1.004        0.259      121.638       29.667        0.059      340.335       14.285      865.106
10/26/2013  19:54:00      -98.795      -29.760      -10.051       29.458       31.948       20.405      867.798     1020.653      416.346        0.653        0.115      103.180       16.554        0.026      340.241       14.126      865.109
10/26/2013  19:55:00     -150.562      -13.861      -24.566       51.646       37.750       19.474     2667.318     1425.030      379.254        1.397        0.224      151.198       19.756        0.017      340.385       14.370      865.121
10/26/2013  19:56:00     -118.416      -55.248      -14.055       26.933       25.139       18.675      725.368      631.976      348.751        0.949        0.085      130.671       12.866        0.010      340.282       14.195      865.115
10/26/2013  19:57:00      -93.370      -44.366        1.899       35.162       28.534       21.247     1236.372      814.165      451.454        0.660        0.125      103.374       19.428        0.035      340.174       14.012      865.119
10/26/2013  19:58:00     -105.012      -48.583      -10.636       22.782       29.027       16.376      519.010      842.540      268.187        0.757        0.081      115.706        9.514        0.007      340.174       14.012      865.109
10/26/2013  19:59:00      -90.459      -36.208       -7.375       28.726       22.687       15.905      825.164      514.720      252.975        0.557        0.080       97.436       10.824        0.012      340.206       14.066      865.104
10/26/2013  20:00:00     -102.189      -22.337      -13.889       31.539       33.442       21.751      994.700     1118.381      473.123        0.686        0.129      104.601       19.585        0.035      340.251       14.143      865.089
10/26/2013  20:01:00     -140.554      -30.832      -23.562       25.247       33.424       17.633      637.432     1117.160      310.938        1.166        0.103      143.896       15.001        0.011      340.305       14.233      865.083
10/26/2013  20:02:00     -131.567      -34.202      -19.627       24.664       28.674       21.586      608.326      822.192      465.939        1.038        0.095      135.940       17.036        0.016      340.258       14.154      865.073
10/26/2013  20:03:00     -121.554      -53.509      -21.925       24.714       21.164       14.836      610.757      447.918      220.110        0.970        0.064      132.810        4.427        0.001      340.288       14.205      865.062
10/26/2013  20:04:00     -122.278      -37.250      -13.645       20.808       28.119       14.743      432.974      790.680      217.357        0.898        0.072      127.826        9.490        0.006      340.187       14.033      865.061
10/26/2013  20:05:00     -143.934      -37.163      -23.328       22.853       26.859       21.233      522.275      721.424      450.834        1.217        0.085      148.655       16.092        0.012      340.226       14.100      865.040
10/26/2013  20:06:00     -135.839      -61.838      -14.090       21.636       23.781       16.105      468.128      565.558      259.385        1.188        0.065      149.252       11.452        0.006      340.174       14.012      865.039
10/26/2013  20:07:00     -129.226      -57.359      -15.050       19.811       21.157       16.684      392.460      447.624      278.346        1.067        0.056      141.384       11.774        0.007      340.163       13.993      865.044
10/26/2013  20:08:00     -105.666      -44.738       -6.935       37.400       21.429       21.605     1398.732      459.190      466.767        0.777        0.116      114.747       21.547        0.035      340.152       13.974      865.043
10/26/2013  20:09:00      -94.568      -78.629       -7.708       38.851       27.509       20.274     1509.386      756.762      411.017        0.893        0.134      122.986       22.429        0.033      340.206       14.067      865.039
10/26/2013  20:10:00     -126.147      -79.400       -9.450       21.483       22.254       15.479      461.515      495.231      239.586        1.175        0.060      149.055        6.707        0.002      340.223       14.095      865.034
10/26/2013  20:11:00      -99.174      -79.718       -2.560       34.799       28.080       21.672     1210.973      788.461      469.656        0.933        0.123      127.242       17.302        0.018      340.228       14.103      865.029
10/26/2013  20:12:00      -98.222      -65.867       -2.100       25.563       21.985       17.759      653.493      483.355      315.367        0.772        0.073      118.262       10.620        0.008      340.236       14.118      865.025
10/26/2013  20:13:00     -117.143      -67.758      -13.314       18.312       14.172       12.767      335.336      200.839      162.999        0.959        0.035      135.328        9.362        0.005      340.168       14.003      865.029
10/26/2013  20:14:00     -142.015      -57.279      -15.551       13.307       13.044       11.235      177.065      170.143      126.214        1.208        0.024      153.132        6.976        0.002      340.133       13.943      865.027
10/26/2013  20:15:00     -148.550      -58.862      -17.520       12.891       16.601       12.086      166.166      275.594      146.075        1.321        0.029      159.787        6.273        0.002      340.100       13.888      865.028
10/26/2013  20:16:00     -151.939      -46.591      -13.105       27.145       24.729       16.717      736.829      611.534      279.465        1.353        0.081      158.922       13.023        0.007      340.070       13.837      865.026
10/26/2013  20:17:00     -176.695      -82.725       -9.293       36.805       34.300       27.018     1354.607     1176.478      729.984        2.071        0.163      195.102       18.011        0.009      340.015       13.744      865.036
10/26/2013  20:18:00     -132.086      -50.055       -9.865       53.463       25.320       20.659     2858.331      641.095      426.802        1.199        0.196      141.252       14.969        0.011      339.870       13.500      865.047
10/26/2013  20:19:00      -58.957      -59.515       -3.174       56.712       41.424       27.699     3216.279     1715.907      767.226        0.636        0.285       83.773       30.504        0.133      339.924       13.592      865.061
10/26/2013  20:20:00      -30.545      -50.266        7.728       46.788       46.808       26.282     2189.093     2190.990      690.724        0.429        0.254       58.819       19.531        0.110      339.967       13.663      865.081
10/26/2013  20:21:00     -104.714      -92.258        1.601       51.210       42.761       28.188     2622.465     1828.509      794.568        1.236        0.262      139.559       29.338        0.044      339.972       13.673      865.088
10/26/2013  20:22:00     -146.256      -99.014       -1.698       58.841       38.710       23.086     3462.231     1498.478      532.983        1.834        0.275      176.620       27.832        0.025      340.006       13.728      865.095
10/26/2013  20:23:00     -144.442     -111.447       -3.009       58.634       43.191       34.566     3437.905     1865.434     1194.832        1.989        0.325      182.439       29.244        0.026      340.011       13.736      865.089
10/26/2013  20:24:00     -132.989      -95.339       -3.654       50.591       49.929       28.861     2559.399     2492.879      832.974        1.634        0.294      163.633       32.786        0.040      340.015       13.743      865.094
10/26/2013  20:25:00     -118.490      -82.613       -4.785       58.418       39.589       22.799     3412.622     1567.317      519.816        1.319        0.275      144.447       24.548        0.029      339.978       13.682      865.088
10/26/2013  20:26:00     -133.032      -56.460       -0.023       61.064       33.584       25.632     3728.819     1127.859      657.005        1.320        0.276      144.518       31.080        0.046      340.003       13.724      865.095
10/26/2013  20:27:00     -140.934      -64.515       -4.585       49.799       28.002       22.761     2479.934      784.127      518.064        1.391        0.189      154.999       21.372        0.019      339.997       13.713      865.085
10/26/2013  20:28:00     -140.051      -62.836       -8.898       33.340       34.074       19.667     1111.528     1161.020      386.776        1.315        0.133      153.501       15.950        0.011      340.011       13.738      865.092
10/26/2013  20:29:00     -131.348      -63.247       -2.106       46.039       31.788       27.882     2119.560     1010.501      777.430        1.258        0.195      145.782       28.830        0.039      340.009       13.735      865.095
10/26/2013  20:30:00     -152.395      -57.075       -8.386       27.038       28.427       20.774      731.071      808.115      431.545        1.426        0.099      162.732       12.009        0.005      340.004       13.725      865.094
10/26/2013  20:31:00     -169.911      -45.664      -13.975       30.035       28.484       21.030      902.100      811.358      442.263        1.665        0.108      175.940       17.617        0.010      339.976       13.679      865.091
10/26/2013  20:32:00     -139.376      -37.729       -4.537       41.409       34.079       27.709     1714.711     1161.403      767.770        1.226        0.182      144.393       26.572        0.034      339.926       13.593      865.098
10/26/2013  20:33:00     -153.515      -31.538       -7.947       50.879       33.003       27.501     2588.701     1089.211      756.281        1.453        0.222      156.721       23.973        0.023      340.011       13.737      865.095
10/26/2013  20:34:00     -141.470      -14.907        0.938       56.688       35.373       29.147     3213.553     1251.217      849.535        1.277        0.266      142.253       30.188        0.045      339.993       13.707      865.102
10/26/2013  20:35:00     -121.357      -26.372        5.673       55.526       38.743       31.452     3083.100     1501.029      989.257        1.051        0.279      124.190       31.062        0.063      339.916       13.577      865.097
10/26/2013  20:36:00     -131.293      -37.160       -2.345       46.278       24.515       21.820     2141.627      600.963      476.111        1.092        0.161      136.450       24.557        0.032      339.863       13.488      865.107
10/26/2013  20:37:00     -165.871      -59.766       -8.605       27.388       24.414       19.849      750.094      596.046      393.968        1.645        0.087      176.310       15.714        0.008      339.899       13.548      865.100
10/26/2013  20:38:00     -155.190      -52.982       -4.805       25.498       25.708       17.754      650.136      660.901      315.218        1.427        0.081      163.984       12.429        0.006      339.913       13.572      865.106
10/26/2013  20:39:00     -123.233      -31.333       -4.963       31.879       19.897       17.165     1016.278      395.904      294.632        0.895        0.085      127.154       16.465        0.017      339.780       13.349      865.101
10/26/2013  20:40:00     -114.773      -45.070       -2.440       22.849       26.865       13.197      522.060      721.714      174.158        0.831        0.071      123.305       12.755        0.011      339.805       13.391      865.106
10/26/2013  20:41:00     -105.079      -58.047       -3.586       23.466       18.263       12.847      550.642      333.551      165.037        0.774        0.052      120.046        7.455        0.004      339.763       13.321      865.102
10/26/2013  20:42:00      -92.544      -50.131       -2.801       24.692       19.780       14.842      609.707      391.263      220.280        0.615        0.061      105.249        8.066        0.006      339.689       13.196      865.102
10/26/2013  20:43:00      -66.381      -44.107        3.651       37.873       30.273       18.616     1434.391      916.439      346.549        0.453        0.135       79.698       15.981        0.040      339.588       13.024      865.099
10/26/2013  20:44:00      -92.380      -49.893        1.602       42.173       26.841       20.151     1778.584      720.446      406.072        0.697        0.145      104.992       24.337        0.054      339.599       13.042      865.095
10/26/2013  20:45:00     -131.311      -65.336      -11.193       17.309       21.266       13.885      299.596      452.246      192.794        1.129        0.047      146.667       10.978        0.006      339.651       13.132      865.099
10/26/2013  20:46:00     -146.935      -67.102      -11.837       23.783       20.559       14.516      565.647      422.681      210.726        1.372        0.060      161.532        9.056        0.003      339.705       13.222      865.090
10/26/2013  20:47:00     -144.833      -81.028      -11.679       22.611       23.802       15.101      511.273      566.555      228.047        1.449        0.065      165.958       10.296        0.004      339.605       13.053      865.090
10/26/2013  20:48:00     -122.994      -68.952      -10.725       28.775       26.894       21.785      828.002      723.269      474.605        1.101        0.101      141.003       18.693        0.018      339.472       12.829      865.083
10/26/2013  20:49:00     -145.716      -62.325       -6.387       36.841       42.084       26.441     1357.237     1771.078      699.121        1.449        0.191      158.485       17.088        0.012      339.483       12.846      865.076
10/26/2013  20:50:00     -150.130      -27.856      -17.307       41.496       34.319       22.579     1721.941     1177.787      509.797        1.351        0.170      152.692       15.009        0.010      339.496       12.870      865.071
10/26/2013  20:51:00     -126.176      -37.608      -10.032       35.654       48.146       22.299     1271.189     2318.006      497.261        1.076        0.204      131.661       17.300        0.017      339.466       12.817      865.064
10/26/2013  20:52:00     -125.365      -20.507       -1.274       67.074       51.230       33.518     4498.882     2624.469     1123.465        1.219        0.412      127.031       35.980        0.080      339.459       12.807      865.068
10/26/2013  20:53:00     -113.461      -32.903       -9.353       47.685       47.398       26.132     2273.847     2246.529      682.882        0.962        0.260      118.135       17.687        0.022      339.422       12.745      865.061
10/26/2013  20:54:00     -167.134      -57.409       -3.947       61.769       46.473       31.041     3815.418     2159.744      963.564        1.909        0.347      176.719       30.385        0.030      339.380       12.672      865.066
10/26/2013  20:55:00     -193.592      -67.038       -5.273       38.212       43.614       26.908     1460.152     1902.147      724.057        2.304        0.204      204.870       20.217        0.010      339.361       12.641      865.068
10/26/2013  20:56:00     -185.736      -42.235      -11.178       28.968       32.855       15.571      839.154     1079.450      242.454        1.928        0.108      190.477       10.526        0.003      339.308       12.553      865.062
10/26/2013  20:57:00     -144.572      -48.971       -2.293       61.723       50.756       26.779     3809.743     2576.141      717.134        1.520        0.355      152.641       24.065        0.025      339.340       12.606      865.072
10/26/2013  20:58:00     -130.168      -38.603        4.231       53.980       47.727       22.353     2913.869     2277.829      499.641        1.207        0.285      135.771       18.460        0.018      339.372       12.660      865.073
10/26/2013  20:59:00     -128.020      -31.054      -10.166       38.583       44.380       25.724     1488.678     1969.577      661.723        1.079        0.206      131.733       21.624        0.027      339.324       12.580      865.075
10/26/2013  21:00:00     -144.268      -33.542      -16.509       34.706       27.806       20.105     1204.516      773.150      404.223        1.230        0.119      148.116       18.543        0.016      339.347       12.618      865.076
10/26/2013  21:01:00     -100.855      -33.975       -4.026       22.872       29.455       16.446      523.112      867.614      270.462        0.650        0.083      106.423       11.162        0.011      339.320       12.572      865.074
10/26/2013  21:02:00     -107.026      -50.604      -12.278       32.430       25.486       15.619     1051.723      649.531      243.958        0.806        0.097      118.387       10.914        0.008      339.350       12.622      865.076
10/26/2013  21:03:00     -112.332      -63.107      -11.434       25.628       27.610       17.614      656.783      762.314      310.248        0.923        0.086      128.845        9.750        0.006      339.279       12.503      865.066
10/26/2013  21:04:00      -76.678      -20.035      -11.118       26.935       28.216       20.889      725.511      796.128      436.357        0.418        0.098       79.252       13.384        0.029      339.315       12.563      865.079
10/26/2013  21:05:00      -44.707      -10.836       -2.977       42.777       35.620       24.940     1829.890     1268.802      621.994        0.292        0.186       46.002       23.496        0.261      339.202       12.373      865.076
10/26/2013  21:06:00      -51.178      -16.532        3.805       38.087       36.506       23.472     1450.622     1332.700      550.913        0.312        0.167       53.782       20.675        0.148      339.266       12.480      865.080
10/26/2013  21:07:00      -42.664      -30.333       -5.480       46.525       40.957       26.382     2164.613     1677.491      696.005        0.365        0.227       52.348       23.535        0.202      339.256       12.464      865.093
10/26/2013  21:08:00     -141.909      -64.663      -12.051       44.670       25.748       24.576     1995.369      662.968      603.986        1.386        0.163      155.947       20.912        0.018      339.218       12.401      865.092
10/26/2013  21:09:00     -106.063      -54.337       -9.507       41.325       31.700       25.837     1707.768     1004.885      667.551        0.884        0.169      119.171       22.408        0.035      339.295       12.531      865.100
10/26/2013  21:10:00     -129.940      -89.560      -17.478       24.606       23.159       15.671      605.446      536.325      245.585        1.330        0.069      157.815        9.693        0.004      339.264       12.478      865.093
10/26/2013  21:11:00     -144.752      -76.886      -18.389       14.996       14.128       11.562      224.884      199.602      133.677        1.388        0.028      163.904        6.497        0.002      339.292       12.525      865.101
10/26/2013  21:12:00     -123.789      -76.299       -6.136       32.915       28.224       19.708     1083.406      796.597      388.408        1.173        0.113      145.415       11.904        0.007      339.301       12.539      865.099
10/26/2013  21:13:00     -122.860      -83.481       -6.229       27.534       27.807       20.539      758.134      773.211      421.869        1.203        0.098      148.538       11.736        0.006      339.317       12.566      865.113
10/26/2013  21:14:00     -116.025      -80.141      -11.024       23.036       20.075       14.934      530.678      403.007      223.016        1.058        0.058      141.012       12.857        0.008      339.252       12.456      865.124
10/26/2013  21:15:00     -115.954      -66.919      -12.359       19.241       23.740       15.294      370.200      563.592      233.915        0.962        0.058      133.878       10.266        0.006      339.204       12.378      865.123
10/26/2013  21:16:00     -104.901      -64.274       -6.401       30.868       21.092       17.256      952.844      444.863      297.779        0.844        0.085      123.026       18.096        0.022      339.206       12.381      865.136
10/26/2013  21:17:00     -115.467      -71.106       -5.904       24.637       22.625       15.981      606.959      511.882      255.392        0.990        0.069      135.605       14.467        0.011      339.131       12.254      865.132
10/26/2013  21:18:00     -109.342      -61.881       -3.550       22.534       22.442       17.472      507.797      503.631      305.287        0.856        0.066      125.638       12.426        0.010      339.081       12.169      865.138
10/26/2013  21:19:00     -125.548      -75.656      -11.285       31.312       21.226       18.256      980.417      450.535      333.280        1.169        0.088      146.582       15.444        0.011      339.140       12.270      865.141
10/26/2013  21:20:00     -122.752      -73.204       -8.874       22.689       19.762       15.637      514.799      390.539      244.514        1.083        0.057      142.923        9.157        0.004      339.095       12.193      865.134
10/26/2013  21:21:00     -132.142      -67.498      -13.330       20.886       17.027       15.480      436.222      289.935      239.624        1.158        0.048      148.383        8.711        0.003      339.039       12.099      865.143
10/26/2013  21:22:00     -104.200      -63.124       -9.749       35.324       18.494       16.802     1247.758      342.045      282.293        0.840        0.094      121.829        6.311        0.003      339.032       12.087      865.139
10/26/2013  21:23:00     -132.291      -78.810       -7.385       24.137       20.204       18.575      582.595      408.190      345.014        1.255        0.067      153.987       11.262        0.005      339.024       12.075      865.143
10/26/2013  21:24:00     -148.163      -69.397       -9.120       25.301       19.480       19.832      640.157      379.459      393.307        1.413        0.071      163.609       12.787        0.006      338.955       11.959      865.150
10/26/2013  21:25:00     -102.391      -53.681        2.520       38.130       30.751       23.249     1453.917      945.597      540.494        0.816        0.147      115.610       21.676        0.035      338.872       11.818      865.148
10/26/2013  21:26:00      -59.237      -38.242        1.801       36.734       25.519       16.664     1349.419      651.204      277.677        0.363        0.114       70.509       19.085        0.073      338.897       11.861      865.164
10/26/2013  21:27:00      -73.452      -46.340       -6.844       16.959       17.675       12.818      287.600      312.414      164.291        0.418        0.038       86.848        5.706        0.004      338.975       11.993      865.173
10/26/2013  21:28:00      -18.322      -17.225       11.177       29.317       19.306       17.319      859.492      372.731      299.931        0.114        0.077       25.147       17.618        0.491      339.021       12.069      865.180
10/26/2013  21:29:00      -23.974      -40.937        1.049       33.441       27.142       19.718     1118.328      736.694      388.812        0.225        0.112       47.440       20.256        0.182      339.042       12.104      865.185
10/26/2013  21:30:00      -67.721      -46.246       -3.404       37.572       25.081       20.955     1411.623      629.071      439.113        0.461        0.124       82.005       22.415        0.075      339.025       12.077      865.182
10/26/2013  21:31:00      -97.082      -68.091       -1.410       40.861       30.840       24.056     1669.640      951.118      578.680        0.863        0.160      118.580       11.062        0.009      339.052       12.120      865.175
10/26/2013  21:32:00      -92.187      -61.403        3.519       46.380       42.401       28.745     2151.146     1797.808      826.288        0.853        0.239      110.765       29.603        0.071      338.909       11.882      865.174
10/26/2013  21:33:00      -83.998      -62.968        6.755       45.665       33.418       25.510     2085.259     1116.732      650.752        0.746        0.193      104.979       22.156        0.045      338.925       11.908      865.166
10/26/2013  21:34:00      -37.168      -34.862        7.418       41.159       27.684       18.589     1694.061      766.431      345.567        0.273        0.140       50.959       12.993        0.065      338.919       11.897      865.175
10/26/2013  21:35:00      -79.262      -51.034       -6.205       38.353       26.169       19.676     1470.947      684.823      387.126        0.573        0.127       94.271       20.676        0.048      338.910       11.883      865.182
10/26/2013  21:36:00      -85.820      -47.575        4.809       34.187       25.669       16.632     1168.759      658.872      276.610        0.588        0.105       98.124       14.204        0.021      338.798       11.695      865.171
10/26/2013  21:37:00      -88.535      -57.206       -4.202       24.211       15.707       16.929      586.181      246.715      286.594        0.612        0.056      105.408       15.285        0.021      338.826       11.742      865.170
10/26/2013  21:38:00     -122.732      -46.476      -18.261       10.721        9.625        6.647      114.948       92.648       44.177        0.890        0.013      131.237        1.870        0.000      338.832       11.751      865.161
10/26/2013  21:39:00     -129.155      -38.929      -15.896       14.525       14.955        8.793      210.970      223.665       77.320        0.948        0.026      134.894        5.452        0.002      338.848       11.780      865.141
10/26/2013  21:40:00     -112.983      -55.535       -3.484       13.147       12.528       12.263      172.851      156.953      150.384        0.817        0.024      125.894        7.895        0.004      338.798       11.694      865.141
10/26/2013  21:41:00      -98.580      -56.859       -8.724       15.632       10.250       13.464      244.368      105.068      181.271        0.678        0.027      113.803        9.835        0.007      338.833       11.754      865.146
10/26/2013  21:42:00     -100.362      -64.659      -17.458        9.882       12.211       11.311       97.654      149.101      127.936        0.747        0.019      119.387        5.608        0.002      338.897       11.861      865.134
10/26/2013  21:43:00     -116.018      -55.130      -19.417        9.444       11.120       11.135       89.195      123.644      123.986        0.861        0.017      128.450        5.643        0.002      338.876       11.825      865.128
10/26/2013  21:44:00     -104.553      -57.516      -21.740       10.691       15.029        9.442      114.307      225.882       89.142        0.757        0.021      119.329        4.690        0.002      338.816       11.726      865.124
10/26/2013  21:45:00     -104.330      -34.190      -20.990       13.506       14.033       10.244      182.421      196.914      104.945        0.649        0.024      109.789        5.745        0.003      338.789       11.678      865.109
10/26/2013  21:46:00      -91.981      -34.197      -15.759       15.213       19.230       13.103      231.446      369.777      171.692        0.533        0.039       98.132       10.113        0.011      338.759       11.629      865.108
10/26/2013  21:47:00      -98.337      -33.882      -12.527       14.502       16.925       13.054      210.296      286.454      170.398        0.582        0.033      104.010        8.832        0.007      338.741       11.600      865.105
10/26/2013  21:48:00      -89.256       -9.164      -21.421       17.613       17.498       11.400      310.225      306.186      129.960        0.463        0.037       89.725        7.109        0.006      338.712       11.551      865.091
10/26/2013  21:49:00      -93.403       -2.414      -12.628       12.835       18.677       11.113      164.740      348.815      123.502        0.476        0.032       93.434        7.550        0.007      338.921       11.901      865.085
10/26/2013  21:50:00      -86.295        6.515       -9.547       16.936       18.172       16.707      286.830      330.226      279.127        0.424        0.045       86.541       14.284        0.027      339.027       12.080      865.077
10/26/2013  21:51:00      -69.754      -24.084      -12.752       14.782       17.114       13.795      218.511      292.891      190.313        0.315        0.035       73.794       11.843        0.026      338.837       11.759      865.070
10/26/2013  21:52:00      -60.913      -39.541      -20.937       14.063       12.733       12.669      197.775      162.121      160.509        0.312        0.026       72.622        8.316        0.013      338.888       11.844      865.071
10/26/2013  21:53:00      -87.601      -37.294      -15.221       13.572       17.036       13.799      184.207      290.226      190.406        0.498        0.033       95.209        9.380        0.010      338.791       11.683      865.066
10/26/2013  21:54:00      -96.015      -25.402      -14.410       18.097       16.189       14.038      327.509      262.097      197.065        0.543        0.039       99.319        8.250        0.007      338.744       11.604      865.068
10/26/2013  21:55:00     -101.812      -21.714      -19.236       21.667       15.075       12.915      469.444      227.263      166.796        0.604        0.043      104.102       11.858        0.013      338.679       11.493      865.077
10/26/2013  21:56:00     -106.741      -18.335      -18.815       12.089       14.292       10.593      146.141      204.271      112.209        0.627        0.023      108.304        8.405        0.006      338.651       11.448      865.074
10/26/2013  21:57:00     -104.178      -14.044      -21.914       19.588       18.723       12.743      383.670      350.553      162.394        0.621        0.045      105.120       12.630        0.014      338.614       11.385      865.076
10/26/2013  21:58:00     -107.092      -12.342      -21.746       16.720       12.080        9.189      279.550      145.919       84.432        0.630        0.025      107.801        9.262        0.007      338.660       11.463      865.083
10/26/2013  21:59:00      -84.724      -34.589      -12.249       21.434       17.547       11.997      459.410      307.905      143.920        0.472        0.046       91.513       12.669        0.019      338.624       11.403      865.094
10/26/2013  22:00:00     -100.472      -37.713      -18.909       10.077       13.515        9.279      101.552      182.665       86.093        0.612        0.019      107.317        4.069        0.001      338.669       11.477      865.098
10/26/2013  22:01:00      -91.383      -37.598      -17.658       17.709       11.551       10.119      313.616      133.434      102.385        0.531        0.027       98.816        4.663        0.002      338.719       11.562      865.108
10/26/2013  22:02:00      -82.205      -42.565      -15.531       14.672       12.108       10.525      215.270      146.603      110.780        0.464        0.024       92.571        6.516        0.005      338.713       11.551      865.117
10/26/2013  22:03:00      -93.994      -31.220      -15.800       13.320       10.441        8.818      177.412      109.006       77.765        0.521        0.018       99.043        4.468        0.002      338.659       11.461      865.106
10/26/2013  22:04:00     -101.033      -32.541      -11.900        8.545       13.565        9.701       73.025      184.004       94.104        0.588        0.018      106.144        5.718        0.003      338.620       11.396      865.112
10/26/2013  22:05:00      -98.767      -27.467      -14.906        8.367       10.719        8.454       70.009      114.902       71.463        0.549        0.013      102.515        4.214        0.002      338.534       11.250      865.112
10/26/2013  22:06:00      -92.545      -39.638       -9.116        8.016       10.460        8.890       64.252      109.403       79.040        0.524        0.013      100.676        3.141        0.001      338.573       11.315      865.115
10/26/2013  22:07:00      -85.200      -51.161      -15.516       11.509       10.973        8.988      132.459      120.409       80.775        0.523        0.017       99.381        1.944        0.000      338.618       11.392      865.107
10/26/2013  22:08:00      -72.066      -35.677      -13.926        9.706       11.242        7.081       94.203      126.373       50.144        0.347        0.014       80.414        3.057        0.001      338.573       11.316      865.116
10/26/2013  22:09:00      -80.795      -25.792      -12.337       11.032       10.451       10.268      121.700      109.219      105.427        0.384        0.017       84.812        3.753        0.002      338.619       11.395      865.113
10/26/2013  22:10:00      -92.666      -20.088      -13.917        9.933        9.318        7.464       98.656       86.823       55.705        0.471        0.012       94.818        3.305        0.001      338.575       11.320      865.100
10/26/2013  22:11:00      -72.332      -25.558      -14.398        9.184       12.323        9.680       84.348      151.868       93.694        0.321        0.016       76.715        4.646        0.004      338.472       11.147      865.109
10/26/2013  22:12:00      -77.643      -32.109      -16.079        7.937        7.717        7.881       63.002       59.555       62.113        0.375        0.009       84.020        0.744        0.000      338.491       11.180      865.104
10/26/2013  22:13:00      -83.989      -19.705      -15.150        7.612        7.892        7.651       57.950       62.280       58.536        0.393        0.009       86.270        3.645        0.002      338.412       11.048      865.093
10/26/2013  22:14:00      -85.537      -21.748      -14.646        8.935        9.116        7.026       79.825       83.108       49.363        0.411        0.011       88.258        3.193        0.001      338.483       11.163      865.099
10/26/2013  22:15:00      -83.718      -36.336      -15.247       12.689       10.194        8.192      161.017      103.909       67.102        0.445        0.017       91.263        6.542        0.005      338.496       11.188      865.090
10/26/2013  22:16:00      -77.851      -31.773      -13.995        8.012        7.731        6.824       64.185       59.765       46.569        0.372        0.009       84.085        2.322        0.001      338.527       11.238      865.088
10/26/2013  22:17:00      -86.379      -34.964      -14.234       12.851        9.256        8.381      165.157       85.683       70.235        0.460        0.016       93.187        2.661        0.001      338.511       11.211      865.098
10/26/2013  22:18:00     -107.027      -41.243      -11.185       10.327       15.047        7.499      106.655      226.404       56.234        0.683        0.019      114.698        3.147        0.001      338.406       11.037      865.108
10/26/2013  22:19:00     -115.355      -49.681      -15.548       10.564        9.357        6.537      111.590       87.547       42.735        0.813        0.012      125.599        5.168        0.002      338.316       10.886      865.117
10/26/2013  22:20:00      -92.504      -54.410      -14.584       19.908       17.097       11.545      396.328      292.322      133.294        0.628        0.041      107.319        7.020        0.004      338.318       10.889      865.128
10/26/2013  22:21:00      -85.106      -49.438      -13.690       20.986       17.477       14.189      440.406      305.431      201.341        0.541        0.047       98.423        5.130        0.003      338.277       10.819      865.138
10/26/2013  22:22:00      -93.464      -42.781       -7.087       17.697       15.058       15.084      313.188      226.756      227.534        0.569        0.038      102.789       12.501        0.015      338.231       10.743      865.130
10/26/2013  22:23:00      -84.675      -25.949      -12.645       10.779       13.756        9.352      116.196      189.238       87.459        0.420        0.020       88.562        5.940        0.004      338.259       10.789      865.135
10/26/2013  22:24:00      -84.420      -16.868      -12.215        8.441       10.932        7.720       71.256      119.514       59.606        0.391        0.013       86.088        3.221        0.001      338.278       10.822      865.140
10/26/2013  22:25:00      -87.051      -26.054      -16.295        6.482       12.356        7.121       42.018      152.673       50.711        0.438        0.012       90.866        5.112        0.003      338.262       10.794      865.140
10/26/2013  22:26:00      -92.787      -44.839      -15.980       16.361       14.963       11.961      267.693      223.904      143.062        0.575        0.032      103.053        6.512        0.004      338.231       10.742      865.139
10/26/2013  22:27:00      -97.413      -76.452      -12.610       28.838       27.632       15.744      831.654      763.520      247.870        0.867        0.092      123.831        9.145        0.005      338.083       10.494      865.158
10/26/2013  22:28:00     -115.572      -91.690       -1.204       39.189       30.949       24.328     1535.760      957.850      591.870        1.242        0.154      147.526       20.969        0.020      338.075       10.481      865.166
10/26/2013  22:29:00     -106.424      -58.996        1.192       52.003       31.721       21.864     2704.291     1006.199      478.047        0.950        0.209      121.682       20.661        0.029      338.122       10.558      865.162
10/26/2013  22:30:00      -75.512      -52.251       -0.982       44.276       25.638       24.003     1960.323      657.290      576.164        0.581        0.160       91.828       25.411        0.077      338.065       10.463      865.167
10/26/2013  22:31:00      -49.643      -47.388        2.350       32.945       29.025       18.166     1085.367      842.428      330.015        0.349        0.113       68.630       17.936        0.068      338.016       10.381      865.169
10/26/2013  22:32:00     -108.400      -60.770       -7.489       20.806       27.915       13.987      432.884      779.246      195.629        0.845        0.070      124.272       10.474        0.007      338.066       10.465      865.158
10/26/2013  22:33:00     -108.713      -44.479       -8.515       30.833       25.404       15.816      950.659      645.350      250.137        0.786        0.092      117.460       15.385        0.017      338.046       10.432      865.147
10/26/2013  22:34:00     -106.664      -63.824        0.243       31.740       21.007       14.376     1007.448      441.283      206.669        0.855        0.083      124.301       14.136        0.013      337.988       10.333      865.153
10/26/2013  22:35:00      -76.762      -56.570        1.121       56.398       29.683       23.389     3180.759      881.059      547.057        0.685        0.230       95.355       26.827        0.079      337.850       10.103      865.150
10/26/2013  22:36:00     -138.266      -60.878      -12.830       17.097       23.365       13.736      292.303      545.928      188.690        1.201        0.051      151.074       10.398        0.005      337.912       10.207      865.153
10/26/2013  22:37:00     -114.384      -31.512       -8.784       21.869       18.830       12.525      478.263      354.580      156.879        0.757        0.049      118.646        9.199        0.006      337.880       10.152      865.149
10/26/2013  22:38:00     -111.509      -26.408       -4.034       22.364       19.119       18.235      500.128      365.553      332.499        0.717        0.060      114.593       13.768        0.014      337.855       10.112      865.130
10/26/2013  22:39:00     -100.264      -37.493       -1.375       37.328       27.156       17.945     1393.362      737.458      322.022        0.696        0.123      107.045       18.686        0.030      337.831       10.070      865.121
10/26/2013  22:40:00     -143.046      -69.788       -6.678       16.330       23.758       14.842      266.683      564.437      220.273        1.321        0.053      159.162       10.038        0.004      337.820       10.051      865.122
10/26/2013  22:41:00      -90.711      -68.578       -2.585       37.041       35.209       22.587     1372.009     1239.666      510.186        0.803        0.156      113.716       17.107        0.023      337.761        9.954      865.117
10/26/2013  22:42:00      -91.652     -105.547       -0.274       52.876       51.905       29.084     2795.889     2694.163      845.901        1.294        0.317      139.787       23.190        0.028      337.766        9.961      865.116
10/26/2013  22:43:00     -147.043      -87.001       -6.772       71.537       37.501       29.792     5117.539     1406.324      887.566        1.832        0.371      170.853       34.408        0.041      337.722        9.889      865.124
10/26/2013  22:44:00      -95.098      -68.357       -0.542       67.251       36.958       27.316     4522.718     1365.885      746.170        1.017        0.332      117.117       28.290        0.058      337.715        9.876      865.098
10/26/2013  22:45:00     -105.521      -47.489        4.768       40.065       32.244       25.031     1605.181     1039.680      626.570        0.834        0.164      115.715       21.273        0.034      337.652        9.771      865.088
10/26/2013  22:46:00      -95.708      -50.396       -6.209       41.615       20.197       16.688     1731.846      407.936      278.488        0.708        0.121      108.165       10.339        0.009      337.689        9.834      865.072
10/26/2013  22:47:00     -135.104      -43.498      -15.081       15.825       14.515       10.795      250.438      210.680      116.542        1.048        0.029      141.934        5.605        0.002      337.744        9.925      865.048
10/26/2013  22:48:00     -131.285      -35.407       -5.545       35.212       27.510       18.969     1239.866      756.827      359.827        1.044        0.118      135.976       16.616        0.015      337.712        9.871      865.039
10/26/2013  22:49:00     -139.643      -25.176       -6.463       33.696       27.878       21.263     1135.438      777.182      452.095        1.127        0.118      141.894       16.708        0.014      337.638        9.748      865.025
10/26/2013  22:50:00     -157.778       11.505       -9.210       49.450       39.652       26.604     2445.268     1572.253      707.775        1.492        0.236      158.197       23.316        0.022      337.785        9.993      865.016
10/26/2013  22:51:00     -159.921       37.985      -16.094       41.393       34.385       23.641     1713.357     1182.307      558.892        1.536        0.173      164.370       19.220        0.014      337.947       10.265      865.008
10/26/2013  22:52:00     -159.299       50.245       -9.693       57.564       35.403       23.698     3313.636     1253.396      561.614        1.656        0.256      167.035       20.947        0.016      338.001       10.356      864.982
10/26/2013  22:53:00     -148.778       43.742       -5.376       70.837       41.809       27.812     5017.870     1748.033      773.491        1.581        0.377      155.075       25.687        0.027      337.920       10.218      864.972
10/26/2013  22:54:00      -89.168        1.862       -9.951       47.110       39.041       25.549     2219.397     1524.162      652.766        0.622        0.220       89.187       21.790        0.060      337.789        9.999      864.959
10/26/2013  22:55:00     -115.685        7.611       -9.652       75.910       36.580       29.205     5762.291     1338.129      852.948        1.074        0.398      115.935       38.076        0.108      337.868       10.132      864.956
10/26/2013  22:56:00     -137.272      -46.815       -5.146       32.302       32.596       19.204     1043.394     1062.484      368.781        1.177        0.124      145.036       16.135        0.012      337.690        9.836      864.965
10/26/2013  22:57:00     -120.629      -48.586      -12.157       42.243       24.499       15.272     1784.473      600.225      233.234        0.984        0.131      130.046       14.383        0.012      337.724        9.892      864.949
10/26/2013  22:58:00      -96.185      -71.670        0.741       45.731       34.140       23.545     2091.323     1165.545      554.370        0.910        0.191      119.951       19.901        0.028      337.789        9.999      864.948
10/26/2013  22:59:00      -99.219      -52.999       -2.589       46.151       29.364       21.296     2129.881      862.228      453.509        0.805        0.172      112.487       24.485        0.047      337.776        9.980      864.921
10/26/2013  23:00:00      -89.347      -59.791        0.281       52.428       28.541       17.379     2748.736      814.574      302.038        0.771        0.193      107.508       20.642        0.037      337.823       10.057      864.911
10/26/2013  23:01:00      -25.325      -27.796        5.526       41.003       33.137       24.694     1681.268     1098.029      609.779        0.242        0.169       37.603       18.218        0.235      337.767        9.963      864.890
10/26/2013  23:02:00      -68.955      -52.743        3.756       64.650       58.571       31.531     4179.601     3430.568      994.187        0.808        0.430       86.813       32.481        0.140      337.738        9.915      864.868
10/26/2013  23:03:00     -111.387      -60.861        2.693       46.560       39.753       25.993     2167.790     1580.331      675.612        1.027        0.221      126.930       23.190        0.033      337.580        9.649      864.856
10/26/2013  23:04:00     -120.560      -66.564       -1.589       28.986       27.109       22.024      840.186      734.902      485.038        1.051        0.103      137.715       14.501        0.011      337.540        9.582      864.836
10/26/2013  23:05:00     -129.962      -45.720       -5.230       41.219       29.255       21.952     1699.008      855.827      481.907        1.102        0.152      137.770       17.741        0.017      337.530        9.568      864.815
10/26/2013  23:06:00     -142.338      -76.038      -13.432       22.904       20.222       20.882      524.590      408.926      436.046        1.380        0.068      161.375       12.935        0.006      337.491        9.501      864.813
10/26/2013  23:07:00     -118.368      -58.094       -5.889       28.841       25.497       21.123      831.818      650.098      446.161        0.967        0.096      131.855       14.070        0.011      337.453        9.438      864.804
10/26/2013  23:08:00     -130.538      -52.774       -7.029       26.249       19.483       18.636      689.000      379.595      347.319        1.064        0.071      140.802       15.766        0.013      337.480        9.482      864.792
10/26/2013  23:09:00     -122.358      -55.199       -1.938       31.917       18.731       17.356     1018.690      350.844      301.237        0.985        0.084      134.233       16.884        0.016      337.507        9.527      864.797
10/26/2013  23:10:00     -111.179      -49.512       -8.493       35.097       23.939       17.965     1231.812      573.053      322.733        0.851        0.106      121.706       20.118        0.027      337.594        9.674      864.785
10/26/2013  23:11:00      -82.070      -29.385       -1.356       28.719       28.642       15.390      824.752      820.384      236.847        0.474        0.094       87.172       16.857        0.037      337.613        9.704      864.779
10/26/2013  23:12:00      -63.928      -38.418        2.897       31.941       21.561       16.362     1020.250      464.892      267.706        0.366        0.088       74.584       17.241        0.053      337.668        9.798      864.773
10/26/2013  23:13:00      -33.508      -23.955        7.450       28.899       18.860       15.314      835.145      355.697      234.513        0.159        0.071       41.190       15.376        0.139      337.708        9.865      864.768
10/26/2013  23:14:00       -6.631      -26.954       16.082       20.245       23.401       15.968      409.846      547.597      254.981        0.112        0.061       27.758       12.550        0.204      337.663        9.789      864.769
10/26/2013  23:15:00      -43.782      -33.663       10.221       43.223       26.272       20.678     1868.203      690.224      427.566        0.307        0.149       55.227       24.453        0.196      337.658        9.781      864.769
10/26/2013  23:16:00      -92.965      -65.772       -3.957       27.615       23.077       14.559      762.603      532.540      211.971        0.725        0.075      113.879       11.811        0.011      337.678        9.815      864.750
10/26/2013  23:17:00      -65.631      -38.540        7.861       47.726       29.437       23.060     2277.799      866.544      531.757        0.476        0.184       76.110       20.641        0.074      337.657        9.777      864.736
10/26/2013  23:18:00      -74.762      -60.551        2.751       41.573       35.551       20.988     1728.313     1263.894      440.495        0.635        0.172       96.207       17.736        0.034      337.622        9.721      864.722
10/26/2013  23:19:00      -45.482      -43.913        7.956       45.298       34.750       21.296     2051.894     1207.571      453.540        0.389        0.186       63.221       22.702        0.129      337.546        9.593      864.722
10/26/2013  23:20:00      -28.033      -62.960       12.952       35.817       36.500       22.258     1282.871     1332.238      495.431        0.401        0.156       68.919       21.483        0.097      337.507        9.526      864.717
10/26/2013  23:21:00      -22.641      -50.564       10.972       34.298       30.537       22.478     1176.327      932.527      505.240        0.290        0.131       55.402       18.322        0.109      337.569        9.631      864.706
10/26/2013  23:22:00      -55.828      -47.659        1.953       38.075       27.812       22.617     1449.693      773.482      511.508        0.406        0.137       73.404       19.215        0.069      337.563        9.622      864.693
10/26/2013  23:23:00      -59.374      -47.588        1.826       41.995       37.197       20.592     1763.590     1383.596      424.013        0.468        0.179       76.091       18.008        0.056      337.546        9.592      864.674
10/26/2013  23:24:00      -53.002      -44.871        6.690       43.048       34.342       25.159     1853.093     1179.361      632.973        0.427        0.183       69.446       24.325        0.123      337.479        9.482      864.668
10/26/2013  23:25:00      -95.747      -75.171       -0.247       36.849       32.352       21.047     1357.851     1046.682      442.961        0.883        0.142      121.730       21.208        0.030      337.466        9.458      864.673
10/26/2013  23:26:00     -109.943      -52.512       -1.153       30.267       25.792       17.431      916.106      665.247      303.830        0.837        0.094      121.840       14.601        0.014      337.497        9.510      864.670
10/26/2013  23:27:00      -82.673      -82.083       -1.085       43.262       39.332       25.916     1871.606     1547.013      671.664        0.883        0.205      116.501       26.320        0.051      337.496        9.509      864.660
10/26/2013  23:28:00      -92.973      -61.983        7.004       33.661       29.190       20.319     1133.082      852.077      412.852        0.747        0.120      111.740       18.224        0.027      337.494        9.507      864.644
10/26/2013  23:29:00     -129.787      -61.054       -1.723       35.589       23.482       16.188     1266.581      551.417      262.043        1.133        0.104      143.430       18.118        0.016      337.435        9.407      864.635
10/26/2013  23:30:00     -133.712      -46.758       -9.859       16.212       22.064       11.239      262.836      486.806      126.314        1.052        0.044      141.652        8.591        0.004      337.458        9.445      864.625
10/26/2013  23:31:00     -132.542      -52.517       -1.322       27.554       24.516       18.738      759.244      601.036      351.099        1.102        0.086      142.567       15.082        0.011      337.373        9.303      864.611
10/26/2013  23:32:00     -137.832      -63.997       -5.217       26.821       23.634       15.535      719.381      558.559      241.323        1.232        0.076      151.965       13.936        0.008      337.381        9.316      864.601
10/26/2013  23:33:00     -149.752      -58.105       -6.409       22.366       23.421       13.995      500.244      548.533      195.868        1.354        0.062      160.630       11.744        0.005      337.355        9.272      864.598
10/26/2013  23:34:00     -137.731      -45.027       -5.072       32.698       24.790       17.331     1069.183      614.526      300.353        1.150        0.099      144.904       15.683        0.012      337.361        9.284      864.582
10/26/2013  23:35:00     -113.007      -52.679        0.468       44.171       33.832       24.286     1951.076     1144.597      589.796        0.962        0.184      124.683       25.430        0.042      337.331        9.233      864.572
10/26/2013  23:36:00     -119.807      -64.577        1.692       41.212       31.393       20.840     1698.441      985.522      434.324        1.082        0.156      136.102       15.756        0.013      337.290        9.164      864.577
10/26/2013  23:37:00     -117.277      -59.497        0.508       54.340       30.709       22.926     2952.793      943.021      525.585        1.086        0.221      131.506       25.646        0.038      337.286        9.157      864.576
10/26/2013  23:38:00      -80.366      -65.267       -6.285       41.800       26.147       21.916     1747.217      683.645      480.304        0.683        0.146      103.530       21.505        0.043      337.285        9.157      864.569
10/26/2013  23:39:00      -86.265      -41.114       -2.216       30.981       20.962       16.072      959.827      439.385      258.300        0.540        0.083       95.562       14.572        0.023      337.233        9.069      864.564
10/26/2013  23:40:00      -91.633      -40.250       -1.327       26.276       27.266       16.450      690.437      743.459      270.593        0.586        0.085      100.083       13.283        0.018      337.306        9.190      864.571
10/26/2013  23:41:00      -63.406      -31.975        2.498       28.163       16.647       11.919      793.181      277.121      142.067        0.313        0.061       71.012        9.955        0.020      337.292        9.168      864.568
10/26/2013  23:42:00      -31.625      -21.947        0.948       29.167       15.581        8.654      850.701      242.755       74.900        0.133        0.058       38.494       10.470        0.074      337.300        9.181      864.551
10/26/2013  23:43:00      -26.392      -12.822        8.003       20.799       18.813       16.475      432.580      353.940      271.438        0.099        0.053       29.342       12.819        0.191      337.253        9.103      864.552
10/26/2013  23:44:00       -9.205      -13.300       12.757       30.492       12.937       10.630      929.742      167.365      113.002        0.082        0.061       16.175       11.398        0.497      337.265        9.122      864.543
10/26/2013  23:45:00      -50.999      -25.257       -0.182       16.797       13.624       10.069      282.144      185.616      101.383        0.190        0.028       56.911        7.506        0.017      337.208        9.029      864.530
10/26/2013  23:46:00      -66.439      -60.465       -2.839       46.032       35.692       19.073     2118.969     1273.906      363.771        0.592        0.188       89.834       15.571        0.030      337.136        8.907      864.517
10/26/2013  23:47:00      -69.922      -45.085        9.070       42.937       49.233       25.895     1843.582     2423.869      670.554        0.597        0.247       83.197       24.907        0.090      337.069        8.795      864.510
10/26/2013  23:48:00      -65.134      -50.020        2.058       44.698       31.999       20.862     1997.910     1023.956      435.235        0.510        0.173       82.125       19.523        0.057      337.112        8.865      864.488
10/26/2013  23:49:00      -86.526      -47.152       -8.681       28.118       19.937       14.200      790.636      397.498      201.645        0.559        0.069       98.539       13.210        0.018      337.127        8.890      864.460
10/26/2013  23:50:00      -91.642      -40.046       -2.255       28.827       20.725       16.239      830.993      429.505      263.705        0.577        0.076      100.009       11.413        0.013      337.042        8.747      864.458
10/26/2013  23:51:00      -21.500      -21.280       10.487       26.989       18.357       18.346      728.417      336.983      336.573        0.121        0.070       30.251       16.068        0.282      336.980        8.644      864.451
10/26/2013  23:52:00      -15.986      -17.618        7.423       23.731       19.251       14.855      563.179      370.606      220.668        0.089        0.058       23.789       13.361        0.315      337.027        8.723      864.447
10/26/2013  23:53:00      -36.492      -39.163        0.851       23.394       17.863       14.174      547.291      319.103      200.896        0.197        0.053       53.530       10.342        0.037      337.054        8.767      864.437
10/26/2013  23:54:00      -82.616      -50.830       -2.459       29.171       24.889       23.140      850.960      619.466      535.477        0.571        0.100       97.001       18.912        0.038      337.067        8.791      864.447
10/26/2013  23:55:00      -96.530      -69.483       -8.616       53.775       34.596       21.298     2891.720     1196.860      453.617        0.938        0.227      118.937       27.425        0.053      337.063        8.782      864.454
10/26/2013  23:56:00     -132.704      -83.288       -0.968       46.745       41.858       24.731     2185.117     1752.089      611.647        1.455        0.227      156.676       23.500        0.022      337.034        8.736      864.451
10/26/2013  23:57:00     -103.000      -65.047       -1.182       40.502       29.107       22.183     1640.374      847.238      492.070        0.891        0.149      121.820       20.922        0.029      337.044        8.751      864.445
10/26/2013  23:58:00      -62.230      -47.882        3.536       32.181       26.447       18.793     1035.635      699.430      353.168        0.413        0.104       78.519       18.783        0.057      337.109        8.860      864.447
10/26/2013  23:59:00      -59.601      -41.581        4.851       37.586       23.853       14.443     1412.689      568.981      208.595        0.375        0.110       72.672       19.802        0.074      337.096        8.838      864.437
